<?xml version="1.0" encoding="UTF-8" standalone="no" ?>
<gpx xmlns="http://www.topografix.com/GPX/1/1" xmlns:xsi="http://www.w3.org/2001/XMLSchema-instance" xsi:schemaLocation="http://www.topografix.com/GPX/1/1 http://www.topografix.com/GPX/1/1/gpx.xsd" version="1.1" creator="VisuGPX - https://www.visugpx.com">
  <metadata>
    <name>Ski de Rando - départ Richebourg</name>
    <desc><![CDATA[750m de d  au départ de Richebourg (vallée d\'Abondance) avec des passage sympa en forêt]]></desc>
  </metadata>
  <trk>
    <name><![CDATA[Ski de Rando - départ Richebourg_1]]></name>
    <trkseg>
      <trkpt lat="46.28805" lon="6.74891">
        <ele>967.24438476562</ele>
        <time>2013-03-18T09:18:04Z</time>
      </trkpt>
      <trkpt lat="46.28807" lon="6.74896">
        <ele>967.69018554688</ele>
        <time>2013-03-18T09:18:10Z</time>
      </trkpt>
      <trkpt lat="46.28808" lon="6.74903">
        <ele>968.30993652344</ele>
        <time>2013-03-18T09:18:16Z</time>
      </trkpt>
      <trkpt lat="46.28809" lon="6.74908">
        <ele>968.78881835938</ele>
        <time>2013-03-18T09:18:21Z</time>
      </trkpt>
      <trkpt lat="46.2881" lon="6.74912">
        <ele>969.17163085938</ele>
        <time>2013-03-18T09:18:25Z</time>
      </trkpt>
      <trkpt lat="46.28811" lon="6.74918">
        <ele>969.76965332031</ele>
        <time>2013-03-18T09:18:32Z</time>
      </trkpt>
      <trkpt lat="46.28812" lon="6.74925">
        <ele>970.21875</ele>
        <time>2013-03-18T09:18:39Z</time>
      </trkpt>
      <trkpt lat="46.28813" lon="6.74931">
        <ele>970.66119384766</ele>
        <time>2013-03-18T09:18:45Z</time>
      </trkpt>
      <trkpt lat="46.28815" lon="6.74936">
        <ele>970.98358154297</ele>
        <time>2013-03-18T09:18:50Z</time>
      </trkpt>
      <trkpt lat="46.28816" lon="6.74943">
        <ele>971.48944091797</ele>
        <time>2013-03-18T09:18:57Z</time>
      </trkpt>
      <trkpt lat="46.28818" lon="6.74949">
        <ele>971.98785400391</ele>
        <time>2013-03-18T09:19:03Z</time>
      </trkpt>
      <trkpt lat="46.2882" lon="6.74956">
        <ele>972.52996826172</ele>
        <time>2013-03-18T09:19:10Z</time>
      </trkpt>
      <trkpt lat="46.28823" lon="6.74963">
        <ele>972.96154785156</ele>
        <time>2013-03-18T09:19:17Z</time>
      </trkpt>
      <trkpt lat="46.28825" lon="6.74966">
        <ele>973.09759521484</ele>
        <time>2013-03-18T09:19:20Z</time>
      </trkpt>
      <trkpt lat="46.28828" lon="6.74971">
        <ele>973.29229736328</ele>
        <time>2013-03-18T09:19:26Z</time>
      </trkpt>
      <trkpt lat="46.2883" lon="6.74975">
        <ele>973.46569824219</ele>
        <time>2013-03-18T09:19:30Z</time>
      </trkpt>
      <trkpt lat="46.28835" lon="6.74984">
        <ele>974.11798095703</ele>
        <time>2013-03-18T09:19:40Z</time>
      </trkpt>
      <trkpt lat="46.28838" lon="6.74988">
        <ele>974.38232421875</ele>
        <time>2013-03-18T09:19:45Z</time>
      </trkpt>
      <trkpt lat="46.28843" lon="6.74996">
        <ele>974.85272216797</ele>
        <time>2013-03-18T09:19:52Z</time>
      </trkpt>
      <trkpt lat="46.28845" lon="6.75002">
        <ele>975.29022216797</ele>
        <time>2013-03-18T09:19:58Z</time>
      </trkpt>
      <trkpt lat="46.28849" lon="6.75009">
        <ele>975.68334960938</ele>
        <time>2013-03-18T09:20:06Z</time>
      </trkpt>
      <trkpt lat="46.28852" lon="6.75016">
        <ele>975.95129394531</ele>
        <time>2013-03-18T09:20:12Z</time>
      </trkpt>
      <trkpt lat="46.28856" lon="6.75023">
        <ele>976.220703125</ele>
        <time>2013-03-18T09:20:18Z</time>
      </trkpt>
      <trkpt lat="46.28858" lon="6.75029">
        <ele>976.40081787109</ele>
        <time>2013-03-18T09:20:23Z</time>
      </trkpt>
      <trkpt lat="46.28862" lon="6.75037">
        <ele>976.84387207031</ele>
        <time>2013-03-18T09:20:31Z</time>
      </trkpt>
      <trkpt lat="46.28865" lon="6.75043">
        <ele>976.98529052734</ele>
        <time>2013-03-18T09:20:36Z</time>
      </trkpt>
      <trkpt lat="46.28869" lon="6.75051">
        <ele>977.09826660156</ele>
        <time>2013-03-18T09:20:44Z</time>
      </trkpt>
      <trkpt lat="46.28872" lon="6.75057">
        <ele>977.12658691406</ele>
        <time>2013-03-18T09:20:49Z</time>
      </trkpt>
      <trkpt lat="46.28875" lon="6.75063">
        <ele>976.98583984375</ele>
        <time>2013-03-18T09:20:54Z</time>
      </trkpt>
      <trkpt lat="46.28876" lon="6.7507">
        <ele>977.36694335938</ele>
        <time>2013-03-18T09:20:59Z</time>
      </trkpt>
      <trkpt lat="46.28877" lon="6.75077">
        <ele>977.63818359375</ele>
        <time>2013-03-18T09:21:04Z</time>
      </trkpt>
      <trkpt lat="46.28878" lon="6.7508">
        <ele>977.68280029297</ele>
        <time>2013-03-18T09:21:06Z</time>
      </trkpt>
      <trkpt lat="46.28878" lon="6.75085">
        <ele>978.05950927734</ele>
        <time>2013-03-18T09:21:11Z</time>
      </trkpt>
      <trkpt lat="46.28878" lon="6.75087">
        <ele>978.27233886719</ele>
        <time>2013-03-18T09:21:13Z</time>
      </trkpt>
      <trkpt lat="46.28878" lon="6.75089">
        <ele>978.47570800781</ele>
        <time>2013-03-18T09:21:15Z</time>
      </trkpt>
      <trkpt lat="46.28878" lon="6.75094">
        <ele>978.95806884766</ele>
        <time>2013-03-18T09:21:20Z</time>
      </trkpt>
      <trkpt lat="46.28878" lon="6.75101">
        <ele>979.70611572266</ele>
        <time>2013-03-18T09:21:26Z</time>
      </trkpt>
      <trkpt lat="46.28878" lon="6.75107">
        <ele>980.37481689453</ele>
        <time>2013-03-18T09:21:32Z</time>
      </trkpt>
      <trkpt lat="46.28877" lon="6.75113">
        <ele>981.13531494141</ele>
        <time>2013-03-18T09:21:37Z</time>
      </trkpt>
      <trkpt lat="46.28876" lon="6.75115">
        <ele>981.46917724609</ele>
        <time>2013-03-18T09:21:39Z</time>
      </trkpt>
      <trkpt lat="46.28878" lon="6.75122">
        <ele>981.46026611328</ele>
        <time>2013-03-18T09:21:46Z</time>
      </trkpt>
      <trkpt lat="46.2888" lon="6.75126">
        <ele>981.15557861328</ele>
        <time>2013-03-18T09:21:52Z</time>
      </trkpt>
      <trkpt lat="46.28883" lon="6.75132">
        <ele>980.42907714844</ele>
        <time>2013-03-18T09:21:57Z</time>
      </trkpt>
      <trkpt lat="46.28885" lon="6.75136">
        <ele>980.14886474609</ele>
        <time>2013-03-18T09:22:03Z</time>
      </trkpt>
      <trkpt lat="46.28886" lon="6.75136">
        <ele>979.80615234375</ele>
        <time>2013-03-18T09:22:07Z</time>
      </trkpt>
      <trkpt lat="46.28888" lon="6.75136">
        <ele>979.20544433594</ele>
        <time>2013-03-18T09:22:19Z</time>
      </trkpt>
      <trkpt lat="46.28889" lon="6.75136">
        <ele>978.83435058594</ele>
        <time>2013-03-18T09:22:20Z</time>
      </trkpt>
      <trkpt lat="46.28898" lon="6.75137">
        <ele>976.39282226562</ele>
        <time>2013-03-18T09:22:26Z</time>
      </trkpt>
      <trkpt lat="46.28904" lon="6.7514">
        <ele>974.59796142578</ele>
        <time>2013-03-18T09:22:31Z</time>
      </trkpt>
      <trkpt lat="46.28905" lon="6.75141">
        <ele>974.29077148438</ele>
        <time>2013-03-18T09:22:32Z</time>
      </trkpt>
      <trkpt lat="46.2891" lon="6.75145">
        <ele>972.93255615234</ele>
        <time>2013-03-18T09:22:36Z</time>
      </trkpt>
      <trkpt lat="46.28915" lon="6.75149">
        <ele>971.53686523438</ele>
        <time>2013-03-18T09:22:42Z</time>
      </trkpt>
      <trkpt lat="46.28921" lon="6.75155">
        <ele>969.68774414062</ele>
        <time>2013-03-18T09:22:46Z</time>
      </trkpt>
      <trkpt lat="46.28922" lon="6.75157">
        <ele>969.31781005859</ele>
        <time>2013-03-18T09:22:47Z</time>
      </trkpt>
      <trkpt lat="46.28922" lon="6.75163">
        <ele>969.35357666016</ele>
        <time>2013-03-18T09:22:52Z</time>
      </trkpt>
      <trkpt lat="46.28923" lon="6.75164">
        <ele>968.8642578125</ele>
        <time>2013-03-18T09:23:01Z</time>
      </trkpt>
      <trkpt lat="46.28923" lon="6.75165">
        <ele>969.08050537109</ele>
        <time>2013-03-18T09:23:35Z</time>
      </trkpt>
      <trkpt lat="46.2892" lon="6.75162">
        <ele>970.08477783203</ele>
        <time>2013-03-18T09:23:42Z</time>
      </trkpt>
      <trkpt lat="46.28915" lon="6.75158">
        <ele>971.73474121094</ele>
        <time>2013-03-18T09:23:59Z</time>
      </trkpt>
      <trkpt lat="46.28911" lon="6.75154">
        <ele>972.89886474609</ele>
        <time>2013-03-18T09:24:06Z</time>
      </trkpt>
      <trkpt lat="46.28909" lon="6.75151">
        <ele>973.72552490234</ele>
        <time>2013-03-18T09:24:12Z</time>
      </trkpt>
      <trkpt lat="46.28906" lon="6.75149">
        <ele>974.52081298828</ele>
        <time>2013-03-18T09:24:18Z</time>
      </trkpt>
      <trkpt lat="46.28902" lon="6.75146">
        <ele>975.62646484375</ele>
        <time>2013-03-18T09:24:25Z</time>
      </trkpt>
      <trkpt lat="46.28898" lon="6.75147">
        <ele>976.98638916016</ele>
        <time>2013-03-18T09:24:32Z</time>
      </trkpt>
      <trkpt lat="46.28896" lon="6.75148">
        <ele>977.82440185547</ele>
        <time>2013-03-18T09:24:37Z</time>
      </trkpt>
      <trkpt lat="46.28894" lon="6.7515">
        <ele>978.62048339844</ele>
        <time>2013-03-18T09:24:42Z</time>
      </trkpt>
      <trkpt lat="46.28891" lon="6.75152">
        <ele>979.57092285156</ele>
        <time>2013-03-18T09:24:46Z</time>
      </trkpt>
      <trkpt lat="46.28889" lon="6.75156">
        <ele>980.90454101562</ele>
        <time>2013-03-18T09:24:52Z</time>
      </trkpt>
      <trkpt lat="46.28887" lon="6.75158">
        <ele>981.82855224609</ele>
        <time>2013-03-18T09:24:56Z</time>
      </trkpt>
      <trkpt lat="46.28885" lon="6.75161">
        <ele>982.84539794922</ele>
        <time>2013-03-18T09:25:01Z</time>
      </trkpt>
      <trkpt lat="46.28883" lon="6.75164">
        <ele>983.63140869141</ele>
        <time>2013-03-18T09:25:06Z</time>
      </trkpt>
      <trkpt lat="46.28881" lon="6.75167">
        <ele>984.70037841797</ele>
        <time>2013-03-18T09:25:13Z</time>
      </trkpt>
      <trkpt lat="46.28879" lon="6.75169">
        <ele>985.91076660156</ele>
        <time>2013-03-18T09:25:19Z</time>
      </trkpt>
      <trkpt lat="46.28877" lon="6.75169">
        <ele>986.62286376953</ele>
        <time>2013-03-18T09:25:23Z</time>
      </trkpt>
      <trkpt lat="46.28875" lon="6.75169">
        <ele>987.26776123047</ele>
        <time>2013-03-18T09:25:28Z</time>
      </trkpt>
      <trkpt lat="46.28872" lon="6.75168">
        <ele>988.41351318359</ele>
        <time>2013-03-18T09:25:33Z</time>
      </trkpt>
      <trkpt lat="46.28868" lon="6.75167">
        <ele>989.37219238281</ele>
        <time>2013-03-18T09:25:39Z</time>
      </trkpt>
      <trkpt lat="46.28866" lon="6.75166">
        <ele>990.18029785156</ele>
        <time>2013-03-18T09:25:45Z</time>
      </trkpt>
      <trkpt lat="46.28862" lon="6.75165">
        <ele>991.37872314453</ele>
        <time>2013-03-18T09:25:53Z</time>
      </trkpt>
      <trkpt lat="46.28859" lon="6.75164">
        <ele>991.80780029297</ele>
        <time>2013-03-18T09:26:00Z</time>
      </trkpt>
      <trkpt lat="46.28857" lon="6.75163">
        <ele>991.94183349609</ele>
        <time>2013-03-18T09:26:05Z</time>
      </trkpt>
      <trkpt lat="46.28854" lon="6.75162">
        <ele>992.06848144531</ele>
        <time>2013-03-18T09:26:11Z</time>
      </trkpt>
      <trkpt lat="46.28852" lon="6.75161">
        <ele>992.18505859375</ele>
        <time>2013-03-18T09:26:16Z</time>
      </trkpt>
      <trkpt lat="46.28849" lon="6.75162">
        <ele>992.65386962891</ele>
        <time>2013-03-18T09:26:23Z</time>
      </trkpt>
      <trkpt lat="46.28849" lon="6.75167">
        <ele>993.36016845703</ele>
        <time>2013-03-18T09:26:30Z</time>
      </trkpt>
      <trkpt lat="46.28849" lon="6.75171">
        <ele>993.81335449219</ele>
        <time>2013-03-18T09:26:35Z</time>
      </trkpt>
      <trkpt lat="46.28847" lon="6.75175">
        <ele>994.40557861328</ele>
        <time>2013-03-18T09:26:40Z</time>
      </trkpt>
      <trkpt lat="46.28846" lon="6.75179">
        <ele>994.92572021484</ele>
        <time>2013-03-18T09:26:45Z</time>
      </trkpt>
      <trkpt lat="46.28843" lon="6.7518">
        <ele>995.322265625</ele>
        <time>2013-03-18T09:26:51Z</time>
      </trkpt>
      <trkpt lat="46.28841" lon="6.75178">
        <ele>995.35314941406</ele>
        <time>2013-03-18T09:26:56Z</time>
      </trkpt>
      <trkpt lat="46.28839" lon="6.75175">
        <ele>995.28106689453</ele>
        <time>2013-03-18T09:27:01Z</time>
      </trkpt>
      <trkpt lat="46.28836" lon="6.75172">
        <ele>995.23468017578</ele>
        <time>2013-03-18T09:27:08Z</time>
      </trkpt>
      <trkpt lat="46.28835" lon="6.7517">
        <ele>995.21923828125</ele>
        <time>2013-03-18T09:27:13Z</time>
      </trkpt>
      <trkpt lat="46.28832" lon="6.75168">
        <ele>995.34283447266</ele>
        <time>2013-03-18T09:27:18Z</time>
      </trkpt>
      <trkpt lat="46.2883" lon="6.75167">
        <ele>995.45098876953</ele>
        <time>2013-03-18T09:27:23Z</time>
      </trkpt>
      <trkpt lat="46.28828" lon="6.75168">
        <ele>995.66729736328</ele>
        <time>2013-03-18T09:27:29Z</time>
      </trkpt>
      <trkpt lat="46.28827" lon="6.75169">
        <ele>995.96594238281</ele>
        <time>2013-03-18T09:27:34Z</time>
      </trkpt>
      <trkpt lat="46.28827" lon="6.75171">
        <ele>996.18225097656</ele>
        <time>2013-03-18T09:27:39Z</time>
      </trkpt>
      <trkpt lat="46.28826" lon="6.75173">
        <ele>996.49639892578</ele>
        <time>2013-03-18T09:27:43Z</time>
      </trkpt>
      <trkpt lat="46.28827" lon="6.75176">
        <ele>996.73327636719</ele>
        <time>2013-03-18T09:27:47Z</time>
      </trkpt>
      <trkpt lat="46.28827" lon="6.7518">
        <ele>997.12469482422</ele>
        <time>2013-03-18T09:27:53Z</time>
      </trkpt>
      <trkpt lat="46.28827" lon="6.75183">
        <ele>997.49548339844</ele>
        <time>2013-03-18T09:27:58Z</time>
      </trkpt>
      <trkpt lat="46.28828" lon="6.75187">
        <ele>997.76324462891</ele>
        <time>2013-03-18T09:28:03Z</time>
      </trkpt>
      <trkpt lat="46.28828" lon="6.7519">
        <ele>998.02075195312</ele>
        <time>2013-03-18T09:28:07Z</time>
      </trkpt>
      <trkpt lat="46.28829" lon="6.75194">
        <ele>998.41217041016</ele>
        <time>2013-03-18T09:28:13Z</time>
      </trkpt>
      <trkpt lat="46.28829" lon="6.75196">
        <ele>998.68609619141</ele>
        <time>2013-03-18T09:28:17Z</time>
      </trkpt>
      <trkpt lat="46.2883" lon="6.75199">
        <ele>998.91802978516</ele>
        <time>2013-03-18T09:28:21Z</time>
      </trkpt>
      <trkpt lat="46.2883" lon="6.75203">
        <ele>999.38397216797</ele>
        <time>2013-03-18T09:28:28Z</time>
      </trkpt>
      <trkpt lat="46.2883" lon="6.75206">
        <ele>999.62744140625</ele>
        <time>2013-03-18T09:28:33Z</time>
      </trkpt>
      <trkpt lat="46.28832" lon="6.75208">
        <ele>999.6953125</ele>
        <time>2013-03-18T09:28:37Z</time>
      </trkpt>
      <trkpt lat="46.28835" lon="6.75214">
        <ele>999.9365234375</ele>
        <time>2013-03-18T09:28:45Z</time>
      </trkpt>
      <trkpt lat="46.28836" lon="6.75217">
        <ele>1000.1270751953</ele>
        <time>2013-03-18T09:28:51Z</time>
      </trkpt>
      <trkpt lat="46.28837" lon="6.7522">
        <ele>1000.3742675781</ele>
        <time>2013-03-18T09:28:57Z</time>
      </trkpt>
      <trkpt lat="46.28838" lon="6.75223">
        <ele>1000.595703125</ele>
        <time>2013-03-18T09:29:03Z</time>
      </trkpt>
      <trkpt lat="46.28839" lon="6.75226">
        <ele>1000.7398681641</ele>
        <time>2013-03-18T09:29:07Z</time>
      </trkpt>
      <trkpt lat="46.2884" lon="6.75228">
        <ele>1000.8840942383</ele>
        <time>2013-03-18T09:29:11Z</time>
      </trkpt>
      <trkpt lat="46.28841" lon="6.75231">
        <ele>1001.0797729492</ele>
        <time>2013-03-18T09:29:15Z</time>
      </trkpt>
      <trkpt lat="46.28843" lon="6.75234">
        <ele>1001.2754516602</ele>
        <time>2013-03-18T09:29:19Z</time>
      </trkpt>
      <trkpt lat="46.28844" lon="6.7524">
        <ele>1001.7647094727</ele>
        <time>2013-03-18T09:29:26Z</time>
      </trkpt>
      <trkpt lat="46.28843" lon="6.75243">
        <ele>1002.2281494141</ele>
        <time>2013-03-18T09:29:31Z</time>
      </trkpt>
      <trkpt lat="46.2884" lon="6.75247">
        <ele>1002.8822021484</ele>
        <time>2013-03-18T09:29:36Z</time>
      </trkpt>
      <trkpt lat="46.28839" lon="6.75248">
        <ele>1003.2221069336</ele>
        <time>2013-03-18T09:29:40Z</time>
      </trkpt>
      <trkpt lat="46.28837" lon="6.7525">
        <ele>1003.6032104492</ele>
        <time>2013-03-18T09:29:45Z</time>
      </trkpt>
      <trkpt lat="46.28835" lon="6.75249">
        <ele>1003.7319335938</ele>
        <time>2013-03-18T09:29:50Z</time>
      </trkpt>
      <trkpt lat="46.28831" lon="6.75248">
        <ele>1004.2843017578</ele>
        <time>2013-03-18T09:29:56Z</time>
      </trkpt>
      <trkpt lat="46.28828" lon="6.75248">
        <ele>1005.0290527344</ele>
        <time>2013-03-18T09:30:02Z</time>
      </trkpt>
      <trkpt lat="46.28824" lon="6.75248">
        <ele>1006.0177001953</ele>
        <time>2013-03-18T09:30:10Z</time>
      </trkpt>
      <trkpt lat="46.2882" lon="6.75249">
        <ele>1007.3311157227</ele>
        <time>2013-03-18T09:30:18Z</time>
      </trkpt>
      <trkpt lat="46.28815" lon="6.75251">
        <ele>1008.6950683594</ele>
        <time>2013-03-18T09:30:27Z</time>
      </trkpt>
      <trkpt lat="46.28812" lon="6.75252">
        <ele>1009.4993286133</ele>
        <time>2013-03-18T09:30:33Z</time>
      </trkpt>
      <trkpt lat="46.28809" lon="6.75252">
        <ele>1010.3678588867</ele>
        <time>2013-03-18T09:30:39Z</time>
      </trkpt>
      <trkpt lat="46.28807" lon="6.75253">
        <ele>1011.1644287109</ele>
        <time>2013-03-18T09:30:44Z</time>
      </trkpt>
      <trkpt lat="46.28804" lon="6.75254">
        <ele>1011.8753051758</ele>
        <time>2013-03-18T09:30:50Z</time>
      </trkpt>
      <trkpt lat="46.28801" lon="6.75255">
        <ele>1012.5894165039</ele>
        <time>2013-03-18T09:30:55Z</time>
      </trkpt>
      <trkpt lat="46.28799" lon="6.75256">
        <ele>1013.1593017578</ele>
        <time>2013-03-18T09:31:00Z</time>
      </trkpt>
      <trkpt lat="46.28796" lon="6.75259">
        <ele>1014.1069335938</ele>
        <time>2013-03-18T09:31:06Z</time>
      </trkpt>
      <trkpt lat="46.28794" lon="6.75262">
        <ele>1014.8004150391</ele>
        <time>2013-03-18T09:31:11Z</time>
      </trkpt>
      <trkpt lat="46.28792" lon="6.75264">
        <ele>1015.4802246094</ele>
        <time>2013-03-18T09:31:16Z</time>
      </trkpt>
      <trkpt lat="46.28793" lon="6.75268">
        <ele>1015.8647460938</ele>
        <time>2013-03-18T09:31:20Z</time>
      </trkpt>
      <trkpt lat="46.28794" lon="6.75271">
        <ele>1016.0706787109</ele>
        <time>2013-03-18T09:31:24Z</time>
      </trkpt>
      <trkpt lat="46.28795" lon="6.75274">
        <ele>1016.2835693359</ele>
        <time>2013-03-18T09:31:28Z</time>
      </trkpt>
      <trkpt lat="46.28797" lon="6.75277">
        <ele>1016.4071655273</ele>
        <time>2013-03-18T09:31:32Z</time>
      </trkpt>
      <trkpt lat="46.28798" lon="6.7528">
        <ele>1016.6615600586</ele>
        <time>2013-03-18T09:31:36Z</time>
      </trkpt>
      <trkpt lat="46.288" lon="6.75283">
        <ele>1017.0081176758</ele>
        <time>2013-03-18T09:31:40Z</time>
      </trkpt>
      <trkpt lat="46.288" lon="6.75289">
        <ele>1017.8417358398</ele>
        <time>2013-03-18T09:31:45Z</time>
      </trkpt>
      <trkpt lat="46.28801" lon="6.75294">
        <ele>1018.7219238281</ele>
        <time>2013-03-18T09:31:51Z</time>
      </trkpt>
      <trkpt lat="46.288" lon="6.75298">
        <ele>1019.3931884766</ele>
        <time>2013-03-18T09:31:55Z</time>
      </trkpt>
      <trkpt lat="46.288" lon="6.75301">
        <ele>1020.0368652344</ele>
        <time>2013-03-18T09:32:00Z</time>
      </trkpt>
      <trkpt lat="46.288" lon="6.75305">
        <ele>1020.6452026367</ele>
        <time>2013-03-18T09:32:04Z</time>
      </trkpt>
      <trkpt lat="46.28799" lon="6.75308">
        <ele>1021.3137207031</ele>
        <time>2013-03-18T09:32:09Z</time>
      </trkpt>
      <trkpt lat="46.28799" lon="6.75312">
        <ele>1021.8630371094</ele>
        <time>2013-03-18T09:32:13Z</time>
      </trkpt>
      <trkpt lat="46.28798" lon="6.75314">
        <ele>1022.3161621094</ele>
        <time>2013-03-18T09:32:17Z</time>
      </trkpt>
      <trkpt lat="46.28797" lon="6.75317">
        <ele>1022.9273071289</ele>
        <time>2013-03-18T09:32:21Z</time>
      </trkpt>
      <trkpt lat="46.28792" lon="6.75322">
        <ele>1024.2937011719</ele>
        <time>2013-03-18T09:32:28Z</time>
      </trkpt>
      <trkpt lat="46.28789" lon="6.75326">
        <ele>1025.2962646484</ele>
        <time>2013-03-18T09:32:35Z</time>
      </trkpt>
      <trkpt lat="46.28786" lon="6.7533">
        <ele>1026.3125</ele>
        <time>2013-03-18T09:32:41Z</time>
      </trkpt>
      <trkpt lat="46.28783" lon="6.75334">
        <ele>1027.2368164062</ele>
        <time>2013-03-18T09:32:48Z</time>
      </trkpt>
      <trkpt lat="46.28782" lon="6.75336">
        <ele>1027.7911376953</ele>
        <time>2013-03-18T09:32:54Z</time>
      </trkpt>
      <trkpt lat="46.28778" lon="6.75338">
        <ele>1028.6083984375</ele>
        <time>2013-03-18T09:33:00Z</time>
      </trkpt>
      <trkpt lat="46.28776" lon="6.7534">
        <ele>1029.5278320312</ele>
        <time>2013-03-18T09:33:05Z</time>
      </trkpt>
      <trkpt lat="46.28773" lon="6.75343">
        <ele>1030.9444580078</ele>
        <time>2013-03-18T09:33:11Z</time>
      </trkpt>
      <trkpt lat="46.28771" lon="6.75346">
        <ele>1032.0079345703</ele>
        <time>2013-03-18T09:33:17Z</time>
      </trkpt>
      <trkpt lat="46.28771" lon="6.75351">
        <ele>1032.9401855469</ele>
        <time>2013-03-18T09:33:24Z</time>
      </trkpt>
      <trkpt lat="46.28772" lon="6.75354">
        <ele>1033.1975097656</ele>
        <time>2013-03-18T09:33:29Z</time>
      </trkpt>
      <trkpt lat="46.28773" lon="6.75358">
        <ele>1033.2053222656</ele>
        <time>2013-03-18T09:33:34Z</time>
      </trkpt>
      <trkpt lat="46.28773" lon="6.75361">
        <ele>1033.7061767578</ele>
        <time>2013-03-18T09:33:39Z</time>
      </trkpt>
      <trkpt lat="46.28773" lon="6.75364">
        <ele>1033.9323730469</ele>
        <time>2013-03-18T09:33:43Z</time>
      </trkpt>
      <trkpt lat="46.28775" lon="6.75367">
        <ele>1033.9613037109</ele>
        <time>2013-03-18T09:33:47Z</time>
      </trkpt>
      <trkpt lat="46.28776" lon="6.7537">
        <ele>1033.8745117188</ele>
        <time>2013-03-18T09:33:51Z</time>
      </trkpt>
      <trkpt lat="46.28777" lon="6.75373">
        <ele>1034.2049560547</ele>
        <time>2013-03-18T09:33:56Z</time>
      </trkpt>
      <trkpt lat="46.28777" lon="6.75376">
        <ele>1034.6700439453</ele>
        <time>2013-03-18T09:34:01Z</time>
      </trkpt>
      <trkpt lat="46.28776" lon="6.75378">
        <ele>1035.1275634766</ele>
        <time>2013-03-18T09:34:05Z</time>
      </trkpt>
      <trkpt lat="46.28774" lon="6.7538">
        <ele>1036.0069580078</ele>
        <time>2013-03-18T09:34:09Z</time>
      </trkpt>
      <trkpt lat="46.28772" lon="6.75384">
        <ele>1037.39453125</ele>
        <time>2013-03-18T09:34:17Z</time>
      </trkpt>
      <trkpt lat="46.28772" lon="6.75384">
        <ele>1037.4161376953</ele>
        <time>2013-03-18T09:34:18Z</time>
      </trkpt>
      <trkpt lat="46.28778" lon="6.75395">
        <ele>1036.9495849609</ele>
        <time>2013-03-18T09:34:33Z</time>
      </trkpt>
      <trkpt lat="46.2878" lon="6.75399">
        <ele>1037.0163574219</ele>
        <time>2013-03-18T09:34:40Z</time>
      </trkpt>
      <trkpt lat="46.28781" lon="6.75405">
        <ele>1037.716796875</ele>
        <time>2013-03-18T09:34:46Z</time>
      </trkpt>
      <trkpt lat="46.28775" lon="6.75406">
        <ele>1039.6334228516</ele>
        <time>2013-03-18T09:34:54Z</time>
      </trkpt>
      <trkpt lat="46.28766" lon="6.75415">
        <ele>1044.7664794922</ele>
        <time>2013-03-18T09:35:10Z</time>
      </trkpt>
      <trkpt lat="46.28761" lon="6.7542">
        <ele>1047.7761230469</ele>
        <time>2013-03-18T09:35:18Z</time>
      </trkpt>
      <trkpt lat="46.28759" lon="6.75426">
        <ele>1049.43359375</ele>
        <time>2013-03-18T09:35:27Z</time>
      </trkpt>
      <trkpt lat="46.28759" lon="6.75427">
        <ele>1049.9650878906</ele>
        <time>2013-03-18T09:35:30Z</time>
      </trkpt>
      <trkpt lat="46.28749" lon="6.75425">
        <ele>1054.1011962891</ele>
        <time>2013-03-18T09:35:58Z</time>
      </trkpt>
      <trkpt lat="46.28748" lon="6.75423">
        <ele>1053.9575195312</ele>
        <time>2013-03-18T09:36:04Z</time>
      </trkpt>
      <trkpt lat="46.28749" lon="6.75421">
        <ele>1053.0222167969</ele>
        <time>2013-03-18T09:36:13Z</time>
      </trkpt>
      <trkpt lat="46.28747" lon="6.7543">
        <ele>1055.7316894531</ele>
        <time>2013-03-18T09:36:30Z</time>
      </trkpt>
      <trkpt lat="46.28746" lon="6.75434">
        <ele>1057.0375976562</ele>
        <time>2013-03-18T09:36:34Z</time>
      </trkpt>
      <trkpt lat="46.28746" lon="6.75438">
        <ele>1057.8608398438</ele>
        <time>2013-03-18T09:36:39Z</time>
      </trkpt>
      <trkpt lat="46.28745" lon="6.75441">
        <ele>1058.9401855469</ele>
        <time>2013-03-18T09:37:06Z</time>
      </trkpt>
      <trkpt lat="46.28739" lon="6.7544">
        <ele>1061.1572265625</ele>
        <time>2013-03-18T09:37:30Z</time>
      </trkpt>
      <trkpt lat="46.28746" lon="6.75441">
        <ele>1058.1268310547</ele>
        <time>2013-03-18T09:37:41Z</time>
      </trkpt>
      <trkpt lat="46.2875" lon="6.75441">
        <ele>1056.4727783203</ele>
        <time>2013-03-18T09:37:54Z</time>
      </trkpt>
      <trkpt lat="46.28753" lon="6.75439">
        <ele>1054.4869384766</ele>
        <time>2013-03-18T09:38:05Z</time>
      </trkpt>
      <trkpt lat="46.28751" lon="6.75438">
        <ele>1055.3881835938</ele>
        <time>2013-03-18T09:38:07Z</time>
      </trkpt>
      <trkpt lat="46.28742" lon="6.75438">
        <ele>1059.4302978516</ele>
        <time>2013-03-18T09:38:19Z</time>
      </trkpt>
      <trkpt lat="46.28739" lon="6.75436">
        <ele>1060.7026367188</ele>
        <time>2013-03-18T09:39:13Z</time>
      </trkpt>
      <trkpt lat="46.28744" lon="6.75437">
        <ele>1058.3745117188</ele>
        <time>2013-03-18T09:39:25Z</time>
      </trkpt>
      <trkpt lat="46.28748" lon="6.7544">
        <ele>1057.2091064453</ele>
        <time>2013-03-18T09:39:44Z</time>
      </trkpt>
      <trkpt lat="46.2875" lon="6.75444">
        <ele>1057.03125</ele>
        <time>2013-03-18T09:39:50Z</time>
      </trkpt>
      <trkpt lat="46.28751" lon="6.75455">
        <ele>1058.9056396484</ele>
        <time>2013-03-18T09:40:08Z</time>
      </trkpt>
      <trkpt lat="46.28753" lon="6.75458">
        <ele>1058.4797363281</ele>
        <time>2013-03-18T09:40:16Z</time>
      </trkpt>
      <trkpt lat="46.28753" lon="6.7546">
        <ele>1058.6340332031</ele>
        <time>2013-03-18T09:40:19Z</time>
      </trkpt>
      <trkpt lat="46.28753" lon="6.75464">
        <ele>1059.8118896484</ele>
        <time>2013-03-18T09:40:26Z</time>
      </trkpt>
      <trkpt lat="46.28754" lon="6.75469">
        <ele>1060.2916259766</ele>
        <time>2013-03-18T09:40:30Z</time>
      </trkpt>
      <trkpt lat="46.28757" lon="6.75474">
        <ele>1059.7674560547</ele>
        <time>2013-03-18T09:40:35Z</time>
      </trkpt>
      <trkpt lat="46.28757" lon="6.75479">
        <ele>1060.5485839844</ele>
        <time>2013-03-18T09:40:44Z</time>
      </trkpt>
      <trkpt lat="46.28758" lon="6.75482">
        <ele>1060.3682861328</ele>
        <time>2013-03-18T09:40:48Z</time>
      </trkpt>
      <trkpt lat="46.28759" lon="6.75486">
        <ele>1060.6944580078</ele>
        <time>2013-03-18T09:40:54Z</time>
      </trkpt>
      <trkpt lat="46.28762" lon="6.75493">
        <ele>1060.4970703125</ele>
        <time>2013-03-18T09:41:02Z</time>
      </trkpt>
      <trkpt lat="46.28761" lon="6.75498">
        <ele>1062.0162353516</ele>
        <time>2013-03-18T09:41:09Z</time>
      </trkpt>
      <trkpt lat="46.28751" lon="6.755">
        <ele>1067.5279541016</ele>
        <time>2013-03-18T09:41:22Z</time>
      </trkpt>
      <trkpt lat="46.28748" lon="6.755">
        <ele>1068.8491210938</ele>
        <time>2013-03-18T09:41:31Z</time>
      </trkpt>
      <trkpt lat="46.28754" lon="6.75507">
        <ele>1067.4034423828</ele>
        <time>2013-03-18T09:41:43Z</time>
      </trkpt>
      <trkpt lat="46.28752" lon="6.75516">
        <ele>1070.40234375</ele>
        <time>2013-03-18T09:41:56Z</time>
      </trkpt>
      <trkpt lat="46.28749" lon="6.75521">
        <ele>1073.0754394531</ele>
        <time>2013-03-18T09:42:03Z</time>
      </trkpt>
      <trkpt lat="46.28743" lon="6.75536">
        <ele>1078.435546875</ele>
        <time>2013-03-18T09:42:22Z</time>
      </trkpt>
      <trkpt lat="46.28741" lon="6.75541">
        <ele>1080.1882324219</ele>
        <time>2013-03-18T09:42:30Z</time>
      </trkpt>
      <trkpt lat="46.2874" lon="6.75543">
        <ele>1080.9383544922</ele>
        <time>2013-03-18T09:42:35Z</time>
      </trkpt>
      <trkpt lat="46.2874" lon="6.75545">
        <ele>1081.6284179688</ele>
        <time>2013-03-18T09:42:40Z</time>
      </trkpt>
      <trkpt lat="46.2874" lon="6.75548">
        <ele>1082.1348876953</ele>
        <time>2013-03-18T09:42:45Z</time>
      </trkpt>
      <trkpt lat="46.2874" lon="6.7555">
        <ele>1082.3734130859</ele>
        <time>2013-03-18T09:42:49Z</time>
      </trkpt>
      <trkpt lat="46.28741" lon="6.75553">
        <ele>1082.5845947266</ele>
        <time>2013-03-18T09:42:54Z</time>
      </trkpt>
      <trkpt lat="46.28741" lon="6.75557">
        <ele>1083</ele>
        <time>2013-03-18T09:43:00Z</time>
      </trkpt>
      <trkpt lat="46.28743" lon="6.7556">
        <ele>1083.2423095703</ele>
        <time>2013-03-18T09:43:05Z</time>
      </trkpt>
      <trkpt lat="46.28744" lon="6.75564">
        <ele>1083.4476318359</ele>
        <time>2013-03-18T09:43:11Z</time>
      </trkpt>
      <trkpt lat="46.28748" lon="6.75569">
        <ele>1083.2437744141</ele>
        <time>2013-03-18T09:43:21Z</time>
      </trkpt>
      <trkpt lat="46.2875" lon="6.75572">
        <ele>1083.0830078125</ele>
        <time>2013-03-18T09:43:26Z</time>
      </trkpt>
      <trkpt lat="46.28753" lon="6.75575">
        <ele>1082.7137451172</ele>
        <time>2013-03-18T09:43:30Z</time>
      </trkpt>
      <trkpt lat="46.28754" lon="6.75577">
        <ele>1082.6832275391</ele>
        <time>2013-03-18T09:43:34Z</time>
      </trkpt>
      <trkpt lat="46.28758" lon="6.75582">
        <ele>1082.4338378906</ele>
        <time>2013-03-18T09:43:44Z</time>
      </trkpt>
      <trkpt lat="46.28759" lon="6.75585">
        <ele>1082.6790771484</ele>
        <time>2013-03-18T09:43:49Z</time>
      </trkpt>
      <trkpt lat="46.28761" lon="6.75588">
        <ele>1083.2922363281</ele>
        <time>2013-03-18T09:44:06Z</time>
      </trkpt>
      <trkpt lat="46.28756" lon="6.75588">
        <ele>1084.8569335938</ele>
        <time>2013-03-18T09:44:11Z</time>
      </trkpt>
      <trkpt lat="46.28754" lon="6.75587">
        <ele>1085.2507324219</ele>
        <time>2013-03-18T09:44:21Z</time>
      </trkpt>
      <trkpt lat="46.28755" lon="6.75586">
        <ele>1084.8254394531</ele>
        <time>2013-03-18T09:46:15Z</time>
      </trkpt>
      <trkpt lat="46.28756" lon="6.75591">
        <ele>1085.6337890625</ele>
        <time>2013-03-18T09:46:57Z</time>
      </trkpt>
      <trkpt lat="46.28754" lon="6.75591">
        <ele>1086.6662597656</ele>
        <time>2013-03-18T09:47:11Z</time>
      </trkpt>
      <trkpt lat="46.28755" lon="6.75591">
        <ele>1086.4622802734</ele>
        <time>2013-03-18T09:47:21Z</time>
      </trkpt>
      <trkpt lat="46.28755" lon="6.75592">
        <ele>1086.6586914062</ele>
        <time>2013-03-18T09:47:27Z</time>
      </trkpt>
      <trkpt lat="46.28755" lon="6.75594">
        <ele>1087.1021728516</ele>
        <time>2013-03-18T09:47:47Z</time>
      </trkpt>
      <trkpt lat="46.28755" lon="6.75595">
        <ele>1087.4443359375</ele>
        <time>2013-03-18T09:47:54Z</time>
      </trkpt>
      <trkpt lat="46.28753" lon="6.75594">
        <ele>1087.8588867188</ele>
        <time>2013-03-18T09:47:59Z</time>
      </trkpt>
      <trkpt lat="46.28752" lon="6.75596">
        <ele>1088.8505859375</ele>
        <time>2013-03-18T09:48:37Z</time>
      </trkpt>
      <trkpt lat="46.28751" lon="6.75595">
        <ele>1089.091796875</ele>
        <time>2013-03-18T09:48:45Z</time>
      </trkpt>
      <trkpt lat="46.28749" lon="6.75595">
        <ele>1089.5080566406</ele>
        <time>2013-03-18T09:49:07Z</time>
      </trkpt>
      <trkpt lat="46.28751" lon="6.75599">
        <ele>1090.2421875</ele>
        <time>2013-03-18T09:50:10Z</time>
      </trkpt>
      <trkpt lat="46.2875" lon="6.75599">
        <ele>1090.3305664062</ele>
        <time>2013-03-18T09:50:17Z</time>
      </trkpt>
      <trkpt lat="46.28747" lon="6.756">
        <ele>1091.9096679688</ele>
        <time>2013-03-18T09:52:30Z</time>
      </trkpt>
      <trkpt lat="46.28745" lon="6.756">
        <ele>1092.3812255859</ele>
        <time>2013-03-18T09:52:46Z</time>
      </trkpt>
      <trkpt lat="46.28745" lon="6.75601">
        <ele>1092.7763671875</ele>
        <time>2013-03-18T09:52:51Z</time>
      </trkpt>
      <trkpt lat="46.28746" lon="6.75602">
        <ele>1092.7725830078</ele>
        <time>2013-03-18T09:53:13Z</time>
      </trkpt>
      <trkpt lat="46.28745" lon="6.75603">
        <ele>1093.0622558594</ele>
        <time>2013-03-18T09:53:22Z</time>
      </trkpt>
      <trkpt lat="46.28745" lon="6.75603">
        <ele>1093.2854003906</ele>
        <time>2013-03-18T09:54:09Z</time>
      </trkpt>
      <trkpt lat="46.28745" lon="6.75605">
        <ele>1093.9010009766</ele>
        <time>2013-03-18T09:54:38Z</time>
      </trkpt>
      <trkpt lat="46.28743" lon="6.75605">
        <ele>1094.1951904297</ele>
        <time>2013-03-18T09:54:50Z</time>
      </trkpt>
      <trkpt lat="46.28743" lon="6.75605">
        <ele>1094.5428466797</ele>
        <time>2013-03-18T09:55:09Z</time>
      </trkpt>
      <trkpt lat="46.28742" lon="6.75606">
        <ele>1094.86328125</ele>
        <time>2013-03-18T09:55:14Z</time>
      </trkpt>
      <trkpt lat="46.28743" lon="6.75606">
        <ele>1094.697265625</ele>
        <time>2013-03-18T09:55:20Z</time>
      </trkpt>
      <trkpt lat="46.28744" lon="6.75607">
        <ele>1094.6392822266</ele>
        <time>2013-03-18T09:55:29Z</time>
      </trkpt>
      <trkpt lat="46.28744" lon="6.75608">
        <ele>1094.9603271484</ele>
        <time>2013-03-18T09:55:36Z</time>
      </trkpt>
      <trkpt lat="46.28743" lon="6.75608">
        <ele>1095.1604003906</ele>
        <time>2013-03-18T09:55:42Z</time>
      </trkpt>
      <trkpt lat="46.28744" lon="6.75609">
        <ele>1095.1029052734</ele>
        <time>2013-03-18T09:55:53Z</time>
      </trkpt>
      <trkpt lat="46.28747" lon="6.75615">
        <ele>1095.7138671875</ele>
        <time>2013-03-18T09:56:40Z</time>
      </trkpt>
      <trkpt lat="46.28747" lon="6.75617">
        <ele>1096.1875</ele>
        <time>2013-03-18T09:57:06Z</time>
      </trkpt>
      <trkpt lat="46.28748" lon="6.75617">
        <ele>1096.1278076172</ele>
        <time>2013-03-18T09:57:14Z</time>
      </trkpt>
      <trkpt lat="46.28745" lon="6.75616">
        <ele>1096.4652099609</ele>
        <time>2013-03-18T09:57:26Z</time>
      </trkpt>
      <trkpt lat="46.28744" lon="6.75616">
        <ele>1096.9422607422</ele>
        <time>2013-03-18T09:57:32Z</time>
      </trkpt>
      <trkpt lat="46.28745" lon="6.75617">
        <ele>1096.8770751953</ele>
        <time>2013-03-18T09:57:47Z</time>
      </trkpt>
      <trkpt lat="46.28745" lon="6.75618">
        <ele>1097.2993164062</ele>
        <time>2013-03-18T09:57:54Z</time>
      </trkpt>
      <trkpt lat="46.28743" lon="6.75618">
        <ele>1097.6785888672</ele>
        <time>2013-03-18T09:58:03Z</time>
      </trkpt>
      <trkpt lat="46.28742" lon="6.75619">
        <ele>1098.0992431641</ele>
        <time>2013-03-18T09:58:23Z</time>
      </trkpt>
      <trkpt lat="46.28745" lon="6.75621">
        <ele>1097.9064941406</ele>
        <time>2013-03-18T09:58:33Z</time>
      </trkpt>
      <trkpt lat="46.28745" lon="6.75622">
        <ele>1098.2576904297</ele>
        <time>2013-03-18T09:58:39Z</time>
      </trkpt>
      <trkpt lat="46.28744" lon="6.75623">
        <ele>1098.7448730469</ele>
        <time>2013-03-18T09:58:45Z</time>
      </trkpt>
      <trkpt lat="46.28745" lon="6.75625">
        <ele>1098.9129638672</ele>
        <time>2013-03-18T09:59:14Z</time>
      </trkpt>
      <trkpt lat="46.28744" lon="6.75627">
        <ele>1099.6403808594</ele>
        <time>2013-03-18T09:59:30Z</time>
      </trkpt>
      <trkpt lat="46.28744" lon="6.75626">
        <ele>1099.3402099609</ele>
        <time>2013-03-18T09:59:37Z</time>
      </trkpt>
      <trkpt lat="46.28743" lon="6.75627">
        <ele>1099.7750244141</ele>
        <time>2013-03-18T09:59:42Z</time>
      </trkpt>
      <trkpt lat="46.28742" lon="6.75627">
        <ele>1100.1524658203</ele>
        <time>2013-03-18T09:59:49Z</time>
      </trkpt>
      <trkpt lat="46.28743" lon="6.75628">
        <ele>1100.0673828125</ele>
        <time>2013-03-18T10:00:00Z</time>
      </trkpt>
      <trkpt lat="46.28745" lon="6.75628">
        <ele>1099.7202148438</ele>
        <time>2013-03-18T10:00:17Z</time>
      </trkpt>
      <trkpt lat="46.28744" lon="6.7563">
        <ele>1100.3497314453</ele>
        <time>2013-03-18T10:00:22Z</time>
      </trkpt>
      <trkpt lat="46.28742" lon="6.7563">
        <ele>1100.7639160156</ele>
        <time>2013-03-18T10:00:31Z</time>
      </trkpt>
      <trkpt lat="46.28733" lon="6.75628">
        <ele>1102.60546875</ele>
        <time>2013-03-18T10:01:06Z</time>
      </trkpt>
      <trkpt lat="46.28733" lon="6.75628">
        <ele>1102.7648925781</ele>
        <time>2013-03-18T10:01:24Z</time>
      </trkpt>
      <trkpt lat="46.28734" lon="6.75628">
        <ele>1102.5148925781</ele>
        <time>2013-03-18T10:01:33Z</time>
      </trkpt>
      <trkpt lat="46.28734" lon="6.75628">
        <ele>1102.4464111328</ele>
        <time>2013-03-18T10:01:37Z</time>
      </trkpt>
      <trkpt lat="46.28735" lon="6.75628">
        <ele>1102.2639160156</ele>
        <time>2013-03-18T10:01:46Z</time>
      </trkpt>
      <trkpt lat="46.28733" lon="6.75629">
        <ele>1102.8033447266</ele>
        <time>2013-03-18T10:01:52Z</time>
      </trkpt>
      <trkpt lat="46.28733" lon="6.75629">
        <ele>1102.9243164062</ele>
        <time>2013-03-18T10:02:00Z</time>
      </trkpt>
      <trkpt lat="46.28735" lon="6.7563">
        <ele>1102.6091308594</ele>
        <time>2013-03-18T10:02:09Z</time>
      </trkpt>
      <trkpt lat="46.28736" lon="6.7563">
        <ele>1102.2396240234</ele>
        <time>2013-03-18T10:02:15Z</time>
      </trkpt>
      <trkpt lat="46.2874" lon="6.7563">
        <ele>1101.3354492188</ele>
        <time>2013-03-18T10:02:28Z</time>
      </trkpt>
      <trkpt lat="46.28742" lon="6.75632">
        <ele>1101.2789306641</ele>
        <time>2013-03-18T10:02:36Z</time>
      </trkpt>
      <trkpt lat="46.2874" lon="6.75631">
        <ele>1101.6323242188</ele>
        <time>2013-03-18T10:02:44Z</time>
      </trkpt>
      <trkpt lat="46.28738" lon="6.75632">
        <ele>1102.5002441406</ele>
        <time>2013-03-18T10:03:05Z</time>
      </trkpt>
      <trkpt lat="46.28739" lon="6.75633">
        <ele>1102.3858642578</ele>
        <time>2013-03-18T10:03:12Z</time>
      </trkpt>
      <trkpt lat="46.2874" lon="6.75635">
        <ele>1102.5184326172</ele>
        <time>2013-03-18T10:03:16Z</time>
      </trkpt>
      <trkpt lat="46.2874" lon="6.75636">
        <ele>1102.7690429688</ele>
        <time>2013-03-18T10:03:22Z</time>
      </trkpt>
      <trkpt lat="46.28738" lon="6.75636">
        <ele>1103.2955322266</ele>
        <time>2013-03-18T10:03:26Z</time>
      </trkpt>
      <trkpt lat="46.28738" lon="6.75637">
        <ele>1103.6705322266</ele>
        <time>2013-03-18T10:04:05Z</time>
      </trkpt>
      <trkpt lat="46.28739" lon="6.75637">
        <ele>1103.3616943359</ele>
        <time>2013-03-18T10:04:12Z</time>
      </trkpt>
      <trkpt lat="46.28739" lon="6.75639">
        <ele>1103.8323974609</ele>
        <time>2013-03-18T10:04:18Z</time>
      </trkpt>
      <trkpt lat="46.28737" lon="6.7564">
        <ele>1104.3817138672</ele>
        <time>2013-03-18T10:04:25Z</time>
      </trkpt>
      <trkpt lat="46.28739" lon="6.75641">
        <ele>1104.1619873047</ele>
        <time>2013-03-18T10:04:53Z</time>
      </trkpt>
      <trkpt lat="46.28737" lon="6.75641">
        <ele>1104.5662841797</ele>
        <time>2013-03-18T10:04:59Z</time>
      </trkpt>
      <trkpt lat="46.28738" lon="6.75644">
        <ele>1104.8468017578</ele>
        <time>2013-03-18T10:05:05Z</time>
      </trkpt>
      <trkpt lat="46.28738" lon="6.75646">
        <ele>1105.2164306641</ele>
        <time>2013-03-18T10:05:10Z</time>
      </trkpt>
      <trkpt lat="46.28736" lon="6.75646">
        <ele>1105.9296875</ele>
        <time>2013-03-18T10:05:14Z</time>
      </trkpt>
      <trkpt lat="46.28736" lon="6.75646">
        <ele>1105.9509277344</ele>
        <time>2013-03-18T10:05:18Z</time>
      </trkpt>
      <trkpt lat="46.28737" lon="6.75644">
        <ele>1105.3161621094</ele>
        <time>2013-03-18T10:05:31Z</time>
      </trkpt>
      <trkpt lat="46.28739" lon="6.75643">
        <ele>1104.6092529297</ele>
        <time>2013-03-18T10:05:33Z</time>
      </trkpt>
      <trkpt lat="46.28738" lon="6.75644">
        <ele>1105.1359863281</ele>
        <time>2013-03-18T10:05:45Z</time>
      </trkpt>
      <trkpt lat="46.28746" lon="6.75652">
        <ele>1104.0943603516</ele>
        <time>2013-03-18T10:06:15Z</time>
      </trkpt>
      <trkpt lat="46.28741" lon="6.75655">
        <ele>1106.1341552734</ele>
        <time>2013-03-18T10:07:03Z</time>
      </trkpt>
      <trkpt lat="46.28735" lon="6.75659">
        <ele>1108.634765625</ele>
        <time>2013-03-18T10:07:11Z</time>
      </trkpt>
      <trkpt lat="46.28733" lon="6.75661">
        <ele>1109.9565429688</ele>
        <time>2013-03-18T10:07:15Z</time>
      </trkpt>
      <trkpt lat="46.28731" lon="6.75665">
        <ele>1111.5979003906</ele>
        <time>2013-03-18T10:07:20Z</time>
      </trkpt>
      <trkpt lat="46.2873" lon="6.75668">
        <ele>1112.6422119141</ele>
        <time>2013-03-18T10:07:24Z</time>
      </trkpt>
      <trkpt lat="46.28728" lon="6.75673">
        <ele>1114.0584716797</ele>
        <time>2013-03-18T10:07:30Z</time>
      </trkpt>
      <trkpt lat="46.28727" lon="6.75677">
        <ele>1115.0197753906</ele>
        <time>2013-03-18T10:07:35Z</time>
      </trkpt>
      <trkpt lat="46.28726" lon="6.75683">
        <ele>1116.4788818359</ele>
        <time>2013-03-18T10:07:43Z</time>
      </trkpt>
      <trkpt lat="46.28725" lon="6.75686">
        <ele>1117.5260009766</ele>
        <time>2013-03-18T10:07:48Z</time>
      </trkpt>
      <trkpt lat="46.28724" lon="6.75689">
        <ele>1118.2813720703</ele>
        <time>2013-03-18T10:07:53Z</time>
      </trkpt>
      <trkpt lat="46.28723" lon="6.75691">
        <ele>1119.1224365234</ele>
        <time>2013-03-18T10:07:57Z</time>
      </trkpt>
      <trkpt lat="46.28722" lon="6.75693">
        <ele>1119.7318115234</ele>
        <time>2013-03-18T10:08:01Z</time>
      </trkpt>
      <trkpt lat="46.28721" lon="6.75697">
        <ele>1120.7788085938</ele>
        <time>2013-03-18T10:08:07Z</time>
      </trkpt>
      <trkpt lat="46.2872" lon="6.757">
        <ele>1121.9185791016</ele>
        <time>2013-03-18T10:08:13Z</time>
      </trkpt>
      <trkpt lat="46.28719" lon="6.75702">
        <ele>1122.7288818359</ele>
        <time>2013-03-18T10:08:17Z</time>
      </trkpt>
      <trkpt lat="46.28718" lon="6.75706">
        <ele>1123.4429931641</ele>
        <time>2013-03-18T10:08:22Z</time>
      </trkpt>
      <trkpt lat="46.28718" lon="6.75709">
        <ele>1124.0059814453</ele>
        <time>2013-03-18T10:08:27Z</time>
      </trkpt>
      <trkpt lat="46.28717" lon="6.75711">
        <ele>1124.5141601562</ele>
        <time>2013-03-18T10:08:31Z</time>
      </trkpt>
      <trkpt lat="46.28715" lon="6.75714">
        <ele>1126.0797119141</ele>
        <time>2013-03-18T10:08:37Z</time>
      </trkpt>
      <trkpt lat="46.28714" lon="6.75717">
        <ele>1126.9586181641</ele>
        <time>2013-03-18T10:08:42Z</time>
      </trkpt>
      <trkpt lat="46.28713" lon="6.7572">
        <ele>1127.5422363281</ele>
        <time>2013-03-18T10:08:47Z</time>
      </trkpt>
      <trkpt lat="46.28713" lon="6.75722">
        <ele>1127.8924560547</ele>
        <time>2013-03-18T10:08:51Z</time>
      </trkpt>
      <trkpt lat="46.28713" lon="6.75726">
        <ele>1128.4486083984</ele>
        <time>2013-03-18T10:08:57Z</time>
      </trkpt>
      <trkpt lat="46.28713" lon="6.75729">
        <ele>1129.0460205078</ele>
        <time>2013-03-18T10:09:02Z</time>
      </trkpt>
      <trkpt lat="46.28712" lon="6.75732">
        <ele>1129.5610351562</ele>
        <time>2013-03-18T10:09:06Z</time>
      </trkpt>
      <trkpt lat="46.28711" lon="6.75734">
        <ele>1130.4399414062</ele>
        <time>2013-03-18T10:09:11Z</time>
      </trkpt>
      <trkpt lat="46.28709" lon="6.75734">
        <ele>1131.3737792969</ele>
        <time>2013-03-18T10:09:16Z</time>
      </trkpt>
      <trkpt lat="46.28707" lon="6.75732">
        <ele>1131.9780273438</ele>
        <time>2013-03-18T10:09:21Z</time>
      </trkpt>
      <trkpt lat="46.28705" lon="6.75731">
        <ele>1132.5959472656</ele>
        <time>2013-03-18T10:09:26Z</time>
      </trkpt>
      <trkpt lat="46.28703" lon="6.75729">
        <ele>1133.5091552734</ele>
        <time>2013-03-18T10:09:32Z</time>
      </trkpt>
      <trkpt lat="46.287" lon="6.75727">
        <ele>1134.1752929688</ele>
        <time>2013-03-18T10:09:38Z</time>
      </trkpt>
      <trkpt lat="46.28698" lon="6.75724">
        <ele>1134.6077880859</ele>
        <time>2013-03-18T10:09:44Z</time>
      </trkpt>
      <trkpt lat="46.28697" lon="6.75722">
        <ele>1134.96484375</ele>
        <time>2013-03-18T10:09:49Z</time>
      </trkpt>
      <trkpt lat="46.28695" lon="6.75719">
        <ele>1135.4730224609</ele>
        <time>2013-03-18T10:09:56Z</time>
      </trkpt>
      <trkpt lat="46.28693" lon="6.75716">
        <ele>1135.8881835938</ele>
        <time>2013-03-18T10:10:01Z</time>
      </trkpt>
      <trkpt lat="46.28691" lon="6.75714">
        <ele>1136.0529785156</ele>
        <time>2013-03-18T10:10:05Z</time>
      </trkpt>
      <trkpt lat="46.2869" lon="6.75712">
        <ele>1136.4375</ele>
        <time>2013-03-18T10:10:10Z</time>
      </trkpt>
      <trkpt lat="46.28688" lon="6.75709">
        <ele>1136.6022949219</ele>
        <time>2013-03-18T10:10:15Z</time>
      </trkpt>
      <trkpt lat="46.28684" lon="6.75704">
        <ele>1137.4125976562</ele>
        <time>2013-03-18T10:10:24Z</time>
      </trkpt>
      <trkpt lat="46.28682" lon="6.75702">
        <ele>1138.0443115234</ele>
        <time>2013-03-18T10:10:29Z</time>
      </trkpt>
      <trkpt lat="46.28679" lon="6.757">
        <ele>1139.0124511719</ele>
        <time>2013-03-18T10:10:33Z</time>
      </trkpt>
      <trkpt lat="46.28677" lon="6.75701">
        <ele>1140.0218505859</ele>
        <time>2013-03-18T10:10:39Z</time>
      </trkpt>
      <trkpt lat="46.28676" lon="6.75704">
        <ele>1140.7839355469</ele>
        <time>2013-03-18T10:10:46Z</time>
      </trkpt>
      <trkpt lat="46.28675" lon="6.75705">
        <ele>1141.0998535156</ele>
        <time>2013-03-18T10:10:47Z</time>
      </trkpt>
      <trkpt lat="46.28674" lon="6.75708">
        <ele>1142.2191162109</ele>
        <time>2013-03-18T10:10:53Z</time>
      </trkpt>
      <trkpt lat="46.28671" lon="6.75709">
        <ele>1143.455078125</ele>
        <time>2013-03-18T10:10:58Z</time>
      </trkpt>
      <trkpt lat="46.28668" lon="6.75708">
        <ele>1144.3544921875</ele>
        <time>2013-03-18T10:11:03Z</time>
      </trkpt>
      <trkpt lat="46.28666" lon="6.75707">
        <ele>1145.1618652344</ele>
        <time>2013-03-18T10:11:08Z</time>
      </trkpt>
      <trkpt lat="46.28663" lon="6.75706">
        <ele>1146.4459228516</ele>
        <time>2013-03-18T10:11:14Z</time>
      </trkpt>
      <trkpt lat="46.28661" lon="6.75705">
        <ele>1147.5445556641</ele>
        <time>2013-03-18T10:11:19Z</time>
      </trkpt>
      <trkpt lat="46.28659" lon="6.75703">
        <ele>1148.1624755859</ele>
        <time>2013-03-18T10:11:24Z</time>
      </trkpt>
      <trkpt lat="46.28658" lon="6.75702">
        <ele>1148.74609375</ele>
        <time>2013-03-18T10:11:29Z</time>
      </trkpt>
      <trkpt lat="46.28656" lon="6.757">
        <ele>1149.3298339844</ele>
        <time>2013-03-18T10:11:34Z</time>
      </trkpt>
      <trkpt lat="46.28654" lon="6.75698">
        <ele>1150.064453125</ele>
        <time>2013-03-18T10:11:40Z</time>
      </trkpt>
      <trkpt lat="46.28653" lon="6.75696">
        <ele>1150.8334960938</ele>
        <time>2013-03-18T10:11:45Z</time>
      </trkpt>
      <trkpt lat="46.28651" lon="6.75694">
        <ele>1151.6137695312</ele>
        <time>2013-03-18T10:11:50Z</time>
      </trkpt>
      <trkpt lat="46.28649" lon="6.75692">
        <ele>1152.0925292969</ele>
        <time>2013-03-18T10:11:56Z</time>
      </trkpt>
      <trkpt lat="46.28647" lon="6.7569">
        <ele>1152.4449462891</ele>
        <time>2013-03-18T10:12:01Z</time>
      </trkpt>
      <trkpt lat="46.28645" lon="6.75688">
        <ele>1153.0147705078</ele>
        <time>2013-03-18T10:12:06Z</time>
      </trkpt>
      <trkpt lat="46.28643" lon="6.75686">
        <ele>1153.4631347656</ele>
        <time>2013-03-18T10:12:13Z</time>
      </trkpt>
      <trkpt lat="46.28641" lon="6.75684">
        <ele>1154.107421875</ele>
        <time>2013-03-18T10:12:19Z</time>
      </trkpt>
      <trkpt lat="46.28639" lon="6.75682">
        <ele>1154.7122802734</ele>
        <time>2013-03-18T10:12:24Z</time>
      </trkpt>
      <trkpt lat="46.28637" lon="6.7568">
        <ele>1154.9627685547</ele>
        <time>2013-03-18T10:12:31Z</time>
      </trkpt>
      <trkpt lat="46.28635" lon="6.75679">
        <ele>1155.0747070312</ele>
        <time>2013-03-18T10:12:36Z</time>
      </trkpt>
      <trkpt lat="46.28632" lon="6.75678">
        <ele>1155.4425048828</ele>
        <time>2013-03-18T10:12:42Z</time>
      </trkpt>
      <trkpt lat="46.28632" lon="6.7568">
        <ele>1155.9757080078</ele>
        <time>2013-03-18T10:12:47Z</time>
      </trkpt>
      <trkpt lat="46.28632" lon="6.75684">
        <ele>1156.9846191406</ele>
        <time>2013-03-18T10:12:55Z</time>
      </trkpt>
      <trkpt lat="46.28631" lon="6.75688">
        <ele>1157.8720703125</ele>
        <time>2013-03-18T10:13:00Z</time>
      </trkpt>
      <trkpt lat="46.28631" lon="6.7569">
        <ele>1158.5611572266</ele>
        <time>2013-03-18T10:13:04Z</time>
      </trkpt>
      <trkpt lat="46.2863" lon="6.75694">
        <ele>1159.3955078125</ele>
        <time>2013-03-18T10:13:09Z</time>
      </trkpt>
      <trkpt lat="46.2863" lon="6.75697">
        <ele>1159.955078125</ele>
        <time>2013-03-18T10:13:14Z</time>
      </trkpt>
      <trkpt lat="46.28629" lon="6.75699">
        <ele>1160.3327636719</ele>
        <time>2013-03-18T10:13:18Z</time>
      </trkpt>
      <trkpt lat="46.28628" lon="6.75699">
        <ele>1160.6280517578</ele>
        <time>2013-03-18T10:13:23Z</time>
      </trkpt>
      <trkpt lat="46.28626" lon="6.75697">
        <ele>1160.6142578125</ele>
        <time>2013-03-18T10:13:28Z</time>
      </trkpt>
      <trkpt lat="46.28623" lon="6.75695">
        <ele>1160.8408203125</ele>
        <time>2013-03-18T10:13:34Z</time>
      </trkpt>
      <trkpt lat="46.28621" lon="6.75692">
        <ele>1160.7336425781</ele>
        <time>2013-03-18T10:13:39Z</time>
      </trkpt>
      <trkpt lat="46.2862" lon="6.7569">
        <ele>1160.6325683594</ele>
        <time>2013-03-18T10:13:43Z</time>
      </trkpt>
      <trkpt lat="46.28618" lon="6.75687">
        <ele>1160.4658203125</ele>
        <time>2013-03-18T10:13:49Z</time>
      </trkpt>
      <trkpt lat="46.28617" lon="6.75685">
        <ele>1160.4058837891</ele>
        <time>2013-03-18T10:13:53Z</time>
      </trkpt>
      <trkpt lat="46.28615" lon="6.75682">
        <ele>1160.3519287109</ele>
        <time>2013-03-18T10:13:59Z</time>
      </trkpt>
      <trkpt lat="46.28613" lon="6.75679">
        <ele>1160.4904785156</ele>
        <time>2013-03-18T10:14:05Z</time>
      </trkpt>
      <trkpt lat="46.28611" lon="6.75678">
        <ele>1160.748046875</ele>
        <time>2013-03-18T10:14:10Z</time>
      </trkpt>
      <trkpt lat="46.28608" lon="6.75678">
        <ele>1161.1231689453</ele>
        <time>2013-03-18T10:14:16Z</time>
      </trkpt>
      <trkpt lat="46.28606" lon="6.75678">
        <ele>1161.4428710938</ele>
        <time>2013-03-18T10:14:21Z</time>
      </trkpt>
      <trkpt lat="46.28603" lon="6.75677">
        <ele>1161.7990722656</ele>
        <time>2013-03-18T10:14:26Z</time>
      </trkpt>
      <trkpt lat="46.28599" lon="6.75677">
        <ele>1162.3843994141</ele>
        <time>2013-03-18T10:14:33Z</time>
      </trkpt>
      <trkpt lat="46.28596" lon="6.75676">
        <ele>1162.673828125</ele>
        <time>2013-03-18T10:14:38Z</time>
      </trkpt>
      <trkpt lat="46.28595" lon="6.75676">
        <ele>1162.8854980469</ele>
        <time>2013-03-18T10:14:43Z</time>
      </trkpt>
      <trkpt lat="46.28593" lon="6.75676">
        <ele>1163.1987304688</ele>
        <time>2013-03-18T10:14:48Z</time>
      </trkpt>
      <trkpt lat="46.28592" lon="6.75677">
        <ele>1163.5231933594</ele>
        <time>2013-03-18T10:14:58Z</time>
      </trkpt>
      <trkpt lat="46.28591" lon="6.75684">
        <ele>1164.7487792969</ele>
        <time>2013-03-18T10:15:06Z</time>
      </trkpt>
      <trkpt lat="46.2859" lon="6.75687">
        <ele>1165.4293212891</ele>
        <time>2013-03-18T10:15:11Z</time>
      </trkpt>
      <trkpt lat="46.2859" lon="6.7569">
        <ele>1166.0262451172</ele>
        <time>2013-03-18T10:15:16Z</time>
      </trkpt>
      <trkpt lat="46.28588" lon="6.75693">
        <ele>1166.7952880859</ele>
        <time>2013-03-18T10:15:22Z</time>
      </trkpt>
      <trkpt lat="46.28588" lon="6.75695">
        <ele>1167.3090820312</ele>
        <time>2013-03-18T10:15:27Z</time>
      </trkpt>
      <trkpt lat="46.28587" lon="6.75698">
        <ele>1167.7485351562</ele>
        <time>2013-03-18T10:15:31Z</time>
      </trkpt>
      <trkpt lat="46.28587" lon="6.757">
        <ele>1168.2016601562</ele>
        <time>2013-03-18T10:15:36Z</time>
      </trkpt>
      <trkpt lat="46.28586" lon="6.75701">
        <ele>1168.5382080078</ele>
        <time>2013-03-18T10:15:42Z</time>
      </trkpt>
      <trkpt lat="46.28584" lon="6.75699">
        <ele>1168.5999755859</ele>
        <time>2013-03-18T10:15:47Z</time>
      </trkpt>
      <trkpt lat="46.2858" lon="6.75696">
        <ele>1168.7470703125</ele>
        <time>2013-03-18T10:15:55Z</time>
      </trkpt>
      <trkpt lat="46.28578" lon="6.75694">
        <ele>1168.8787841797</ele>
        <time>2013-03-18T10:16:01Z</time>
      </trkpt>
      <trkpt lat="46.28576" lon="6.75692">
        <ele>1168.8767089844</ele>
        <time>2013-03-18T10:16:06Z</time>
      </trkpt>
      <trkpt lat="46.28573" lon="6.7569">
        <ele>1168.8500976562</ele>
        <time>2013-03-18T10:16:11Z</time>
      </trkpt>
      <trkpt lat="46.28571" lon="6.75689">
        <ele>1169.1129150391</ele>
        <time>2013-03-18T10:16:16Z</time>
      </trkpt>
      <trkpt lat="46.28569" lon="6.75689">
        <ele>1169.3680419922</ele>
        <time>2013-03-18T10:16:21Z</time>
      </trkpt>
      <trkpt lat="46.28566" lon="6.75689">
        <ele>1169.8529052734</ele>
        <time>2013-03-18T10:16:31Z</time>
      </trkpt>
      <trkpt lat="46.28564" lon="6.75689">
        <ele>1170.3098144531</ele>
        <time>2013-03-18T10:16:36Z</time>
      </trkpt>
      <trkpt lat="46.28562" lon="6.75689">
        <ele>1170.6469726562</ele>
        <time>2013-03-18T10:16:41Z</time>
      </trkpt>
      <trkpt lat="46.28558" lon="6.7569">
        <ele>1171.2884521484</ele>
        <time>2013-03-18T10:16:47Z</time>
      </trkpt>
      <trkpt lat="46.28556" lon="6.75692">
        <ele>1172.2509765625</ele>
        <time>2013-03-18T10:16:52Z</time>
      </trkpt>
      <trkpt lat="46.28554" lon="6.75695">
        <ele>1173.1772460938</ele>
        <time>2013-03-18T10:16:57Z</time>
      </trkpt>
      <trkpt lat="46.28553" lon="6.75698">
        <ele>1174.0434570312</ele>
        <time>2013-03-18T10:17:02Z</time>
      </trkpt>
      <trkpt lat="46.28551" lon="6.75702">
        <ele>1175.1116943359</ele>
        <time>2013-03-18T10:17:08Z</time>
      </trkpt>
      <trkpt lat="46.28549" lon="6.75705">
        <ele>1175.8774414062</ele>
        <time>2013-03-18T10:17:13Z</time>
      </trkpt>
      <trkpt lat="46.28545" lon="6.75708">
        <ele>1176.7821044922</ele>
        <time>2013-03-18T10:17:21Z</time>
      </trkpt>
      <trkpt lat="46.28543" lon="6.75709">
        <ele>1177.1915283203</ele>
        <time>2013-03-18T10:17:26Z</time>
      </trkpt>
      <trkpt lat="46.28538" lon="6.75714">
        <ele>1178.26171875</ele>
        <time>2013-03-18T10:17:35Z</time>
      </trkpt>
      <trkpt lat="46.28535" lon="6.75716">
        <ele>1178.775390625</ele>
        <time>2013-03-18T10:17:41Z</time>
      </trkpt>
      <trkpt lat="46.28532" lon="6.75718">
        <ele>1179.2521972656</ele>
        <time>2013-03-18T10:17:49Z</time>
      </trkpt>
      <trkpt lat="46.2853" lon="6.7572">
        <ele>1179.5023193359</ele>
        <time>2013-03-18T10:17:54Z</time>
      </trkpt>
      <trkpt lat="46.28529" lon="6.7572">
        <ele>1179.6170654297</ele>
        <time>2013-03-18T10:17:58Z</time>
      </trkpt>
      <trkpt lat="46.28527" lon="6.75721">
        <ele>1179.7592773438</ele>
        <time>2013-03-18T10:18:02Z</time>
      </trkpt>
      <trkpt lat="46.28526" lon="6.75723">
        <ele>1179.9279785156</ele>
        <time>2013-03-18T10:18:06Z</time>
      </trkpt>
      <trkpt lat="46.28526" lon="6.75727">
        <ele>1180.2404785156</ele>
        <time>2013-03-18T10:18:12Z</time>
      </trkpt>
      <trkpt lat="46.28527" lon="6.75733">
        <ele>1180.7280273438</ele>
        <time>2013-03-18T10:18:19Z</time>
      </trkpt>
      <trkpt lat="46.28524" lon="6.75738">
        <ele>1180.8824462891</ele>
        <time>2013-03-18T10:18:25Z</time>
      </trkpt>
      <trkpt lat="46.28521" lon="6.75741">
        <ele>1180.8309326172</ele>
        <time>2013-03-18T10:18:30Z</time>
      </trkpt>
      <trkpt lat="46.28519" lon="6.75743">
        <ele>1180.8344726562</ele>
        <time>2013-03-18T10:18:35Z</time>
      </trkpt>
      <trkpt lat="46.28515" lon="6.75745">
        <ele>1180.7589111328</ele>
        <time>2013-03-18T10:18:41Z</time>
      </trkpt>
      <trkpt lat="46.28511" lon="6.75749">
        <ele>1180.724609375</ele>
        <time>2013-03-18T10:18:48Z</time>
      </trkpt>
      <trkpt lat="46.28509" lon="6.75752">
        <ele>1180.8104248047</ele>
        <time>2013-03-18T10:18:53Z</time>
      </trkpt>
      <trkpt lat="46.28506" lon="6.75759">
        <ele>1181.0301513672</ele>
        <time>2013-03-18T10:18:59Z</time>
      </trkpt>
      <trkpt lat="46.28504" lon="6.75762">
        <ele>1181.1845703125</ele>
        <time>2013-03-18T10:19:03Z</time>
      </trkpt>
      <trkpt lat="46.28502" lon="6.75769">
        <ele>1181.5313720703</ele>
        <time>2013-03-18T10:19:11Z</time>
      </trkpt>
      <trkpt lat="46.285" lon="6.75774">
        <ele>1181.7453613281</ele>
        <time>2013-03-18T10:19:16Z</time>
      </trkpt>
      <trkpt lat="46.28497" lon="6.75781">
        <ele>1182.1145019531</ele>
        <time>2013-03-18T10:19:23Z</time>
      </trkpt>
      <trkpt lat="46.28494" lon="6.75785">
        <ele>1182.3186035156</ele>
        <time>2013-03-18T10:19:28Z</time>
      </trkpt>
      <trkpt lat="46.28488" lon="6.75788">
        <ele>1182.5455322266</ele>
        <time>2013-03-18T10:19:36Z</time>
      </trkpt>
      <trkpt lat="46.28484" lon="6.75789">
        <ele>1182.6440429688</ele>
        <time>2013-03-18T10:19:43Z</time>
      </trkpt>
      <trkpt lat="46.28478" lon="6.75789">
        <ele>1182.7280273438</ele>
        <time>2013-03-18T10:19:48Z</time>
      </trkpt>
      <trkpt lat="46.28473" lon="6.7579">
        <ele>1182.890625</ele>
        <time>2013-03-18T10:19:54Z</time>
      </trkpt>
      <trkpt lat="46.28469" lon="6.75793">
        <ele>1183.373046875</ele>
        <time>2013-03-18T10:19:58Z</time>
      </trkpt>
      <trkpt lat="46.28467" lon="6.75794">
        <ele>1183.57421875</ele>
        <time>2013-03-18T10:20:00Z</time>
      </trkpt>
      <trkpt lat="46.28464" lon="6.75796">
        <ele>1184.0235595703</ele>
        <time>2013-03-18T10:20:07Z</time>
      </trkpt>
      <trkpt lat="46.28461" lon="6.75802">
        <ele>1184.5434570312</ele>
        <time>2013-03-18T10:27:28Z</time>
      </trkpt>
      <trkpt lat="46.28457" lon="6.75805">
        <ele>1185.0402832031</ele>
        <time>2013-03-18T10:27:34Z</time>
      </trkpt>
      <trkpt lat="46.28452" lon="6.75809">
        <ele>1185.66796875</ele>
        <time>2013-03-18T10:27:41Z</time>
      </trkpt>
      <trkpt lat="46.28446" lon="6.75814">
        <ele>1186.4299316406</ele>
        <time>2013-03-18T10:27:49Z</time>
      </trkpt>
      <trkpt lat="46.28441" lon="6.75818">
        <ele>1187.3582763672</ele>
        <time>2013-03-18T10:27:57Z</time>
      </trkpt>
      <trkpt lat="46.28437" lon="6.75821">
        <ele>1188.2485351562</ele>
        <time>2013-03-18T10:28:03Z</time>
      </trkpt>
      <trkpt lat="46.28434" lon="6.75824">
        <ele>1189.0280761719</ele>
        <time>2013-03-18T10:28:09Z</time>
      </trkpt>
      <trkpt lat="46.2843" lon="6.75826">
        <ele>1189.7407226562</ele>
        <time>2013-03-18T10:28:15Z</time>
      </trkpt>
      <trkpt lat="46.28427" lon="6.75826">
        <ele>1190.2741699219</ele>
        <time>2013-03-18T10:28:20Z</time>
      </trkpt>
      <trkpt lat="46.28422" lon="6.75826">
        <ele>1191.1671142578</ele>
        <time>2013-03-18T10:28:27Z</time>
      </trkpt>
      <trkpt lat="46.28417" lon="6.75827">
        <ele>1191.9967041016</ele>
        <time>2013-03-18T10:28:34Z</time>
      </trkpt>
      <trkpt lat="46.28411" lon="6.75828">
        <ele>1194.0844726562</ele>
        <time>2013-03-18T10:28:43Z</time>
      </trkpt>
      <trkpt lat="46.28408" lon="6.75829">
        <ele>1195.2447509766</ele>
        <time>2013-03-18T10:28:49Z</time>
      </trkpt>
      <trkpt lat="46.28405" lon="6.7583">
        <ele>1196.3558349609</ele>
        <time>2013-03-18T10:28:56Z</time>
      </trkpt>
      <trkpt lat="46.28403" lon="6.7583">
        <ele>1196.9278564453</ele>
        <time>2013-03-18T10:29:00Z</time>
      </trkpt>
      <trkpt lat="46.28403" lon="6.75833">
        <ele>1197.4692382812</ele>
        <time>2013-03-18T10:29:05Z</time>
      </trkpt>
      <trkpt lat="46.28403" lon="6.75837">
        <ele>1197.9461669922</ele>
        <time>2013-03-18T10:29:10Z</time>
      </trkpt>
      <trkpt lat="46.28402" lon="6.75841">
        <ele>1199.0611572266</ele>
        <time>2013-03-18T10:29:15Z</time>
      </trkpt>
      <trkpt lat="46.28399" lon="6.75842">
        <ele>1200.0363769531</ele>
        <time>2013-03-18T10:29:19Z</time>
      </trkpt>
      <trkpt lat="46.28397" lon="6.75843">
        <ele>1201.0543212891</ele>
        <time>2013-03-18T10:29:24Z</time>
      </trkpt>
      <trkpt lat="46.28392" lon="6.75846">
        <ele>1202.8023681641</ele>
        <time>2013-03-18T10:29:33Z</time>
      </trkpt>
      <trkpt lat="46.28389" lon="6.75847">
        <ele>1203.8387451172</ele>
        <time>2013-03-18T10:29:38Z</time>
      </trkpt>
      <trkpt lat="46.28386" lon="6.75849">
        <ele>1205.0645751953</ele>
        <time>2013-03-18T10:29:45Z</time>
      </trkpt>
      <trkpt lat="46.28384" lon="6.7585">
        <ele>1205.8947753906</ele>
        <time>2013-03-18T10:29:50Z</time>
      </trkpt>
      <trkpt lat="46.28382" lon="6.75852">
        <ele>1206.6629638672</ele>
        <time>2013-03-18T10:29:55Z</time>
      </trkpt>
      <trkpt lat="46.28381" lon="6.75854">
        <ele>1207.0675048828</ele>
        <time>2013-03-18T10:29:59Z</time>
      </trkpt>
      <trkpt lat="46.28381" lon="6.75857">
        <ele>1207.5384521484</ele>
        <time>2013-03-18T10:30:05Z</time>
      </trkpt>
      <trkpt lat="46.28381" lon="6.75862">
        <ele>1208.1566162109</ele>
        <time>2013-03-18T10:30:11Z</time>
      </trkpt>
      <trkpt lat="46.28381" lon="6.75865">
        <ele>1208.4178466797</ele>
        <time>2013-03-18T10:30:15Z</time>
      </trkpt>
      <trkpt lat="46.28382" lon="6.75871">
        <ele>1209.0017089844</ele>
        <time>2013-03-18T10:30:22Z</time>
      </trkpt>
      <trkpt lat="46.28382" lon="6.75874">
        <ele>1209.4443359375</ele>
        <time>2013-03-18T10:30:26Z</time>
      </trkpt>
      <trkpt lat="46.28382" lon="6.7588">
        <ele>1210.1920166016</ele>
        <time>2013-03-18T10:30:33Z</time>
      </trkpt>
      <trkpt lat="46.28381" lon="6.75886">
        <ele>1210.9932861328</ele>
        <time>2013-03-18T10:30:40Z</time>
      </trkpt>
      <trkpt lat="46.28382" lon="6.7589">
        <ele>1211.4311523438</ele>
        <time>2013-03-18T10:30:46Z</time>
      </trkpt>
      <trkpt lat="46.28382" lon="6.75894">
        <ele>1211.8740234375</ele>
        <time>2013-03-18T10:30:56Z</time>
      </trkpt>
      <trkpt lat="46.28379" lon="6.75899">
        <ele>1212.7648925781</ele>
        <time>2013-03-18T10:31:03Z</time>
      </trkpt>
      <trkpt lat="46.28376" lon="6.759">
        <ele>1213.51171875</ele>
        <time>2013-03-18T10:31:09Z</time>
      </trkpt>
      <trkpt lat="46.28375" lon="6.75899">
        <ele>1213.5941162109</ele>
        <time>2013-03-18T10:31:18Z</time>
      </trkpt>
      <trkpt lat="46.2837" lon="6.759">
        <ele>1214.5897216797</ele>
        <time>2013-03-18T10:31:29Z</time>
      </trkpt>
      <trkpt lat="46.28366" lon="6.759">
        <ele>1215.2608642578</ele>
        <time>2013-03-18T10:31:35Z</time>
      </trkpt>
      <trkpt lat="46.28362" lon="6.75899">
        <ele>1215.9749755859</ele>
        <time>2013-03-18T10:31:42Z</time>
      </trkpt>
      <trkpt lat="46.28359" lon="6.75901">
        <ele>1216.7307128906</ele>
        <time>2013-03-18T10:31:49Z</time>
      </trkpt>
      <trkpt lat="46.28358" lon="6.75903">
        <ele>1217.2611083984</ele>
        <time>2013-03-18T10:31:54Z</time>
      </trkpt>
      <trkpt lat="46.28358" lon="6.75907">
        <ele>1217.8001708984</ele>
        <time>2013-03-18T10:31:59Z</time>
      </trkpt>
      <trkpt lat="46.28358" lon="6.75913">
        <ele>1218.4284667969</ele>
        <time>2013-03-18T10:32:07Z</time>
      </trkpt>
      <trkpt lat="46.28358" lon="6.75918">
        <ele>1218.8588867188</ele>
        <time>2013-03-18T10:32:15Z</time>
      </trkpt>
      <trkpt lat="46.28358" lon="6.75921">
        <ele>1219.0283203125</ele>
        <time>2013-03-18T10:32:23Z</time>
      </trkpt>
      <trkpt lat="46.28357" lon="6.75925">
        <ele>1219.5952148438</ele>
        <time>2013-03-18T10:32:28Z</time>
      </trkpt>
      <trkpt lat="46.28355" lon="6.75927">
        <ele>1220.2742919922</ele>
        <time>2013-03-18T10:32:32Z</time>
      </trkpt>
      <trkpt lat="46.28353" lon="6.75929">
        <ele>1221.0236816406</ele>
        <time>2013-03-18T10:32:37Z</time>
      </trkpt>
      <trkpt lat="46.28352" lon="6.75931">
        <ele>1221.5933837891</ele>
        <time>2013-03-18T10:32:42Z</time>
      </trkpt>
      <trkpt lat="46.2835" lon="6.75933">
        <ele>1222.1499023438</ele>
        <time>2013-03-18T10:32:46Z</time>
      </trkpt>
      <trkpt lat="46.28347" lon="6.75937">
        <ele>1223.2501220703</ele>
        <time>2013-03-18T10:32:54Z</time>
      </trkpt>
      <trkpt lat="46.28347" lon="6.75941">
        <ele>1223.7263183594</ele>
        <time>2013-03-18T10:33:00Z</time>
      </trkpt>
      <trkpt lat="46.28348" lon="6.75946">
        <ele>1223.9942626953</ele>
        <time>2013-03-18T10:33:07Z</time>
      </trkpt>
      <trkpt lat="46.28348" lon="6.75949">
        <ele>1224.4534912109</ele>
        <time>2013-03-18T10:33:12Z</time>
      </trkpt>
      <trkpt lat="46.28347" lon="6.75953">
        <ele>1225.1420898438</ele>
        <time>2013-03-18T10:33:18Z</time>
      </trkpt>
      <trkpt lat="46.28346" lon="6.75956">
        <ele>1225.6625976562</ele>
        <time>2013-03-18T10:33:22Z</time>
      </trkpt>
      <trkpt lat="46.28344" lon="6.75959">
        <ele>1226.6625976562</ele>
        <time>2013-03-18T10:33:28Z</time>
      </trkpt>
      <trkpt lat="46.28343" lon="6.75962">
        <ele>1227.3879394531</ele>
        <time>2013-03-18T10:33:32Z</time>
      </trkpt>
      <trkpt lat="46.28341" lon="6.75963">
        <ele>1227.8771972656</ele>
        <time>2013-03-18T10:33:39Z</time>
      </trkpt>
      <trkpt lat="46.28339" lon="6.75964">
        <ele>1228.7305908203</ele>
        <time>2013-03-18T10:33:44Z</time>
      </trkpt>
      <trkpt lat="46.28336" lon="6.75965">
        <ele>1229.40625</ele>
        <time>2013-03-18T10:33:48Z</time>
      </trkpt>
      <trkpt lat="46.28334" lon="6.75964">
        <ele>1229.9117431641</ele>
        <time>2013-03-18T10:33:52Z</time>
      </trkpt>
      <trkpt lat="46.28331" lon="6.75961">
        <ele>1230.4234619141</ele>
        <time>2013-03-18T10:33:58Z</time>
      </trkpt>
      <trkpt lat="46.28328" lon="6.75959">
        <ele>1230.9412841797</ele>
        <time>2013-03-18T10:34:04Z</time>
      </trkpt>
      <trkpt lat="46.28326" lon="6.75957">
        <ele>1231.462890625</ele>
        <time>2013-03-18T10:34:09Z</time>
      </trkpt>
      <trkpt lat="46.28324" lon="6.75955">
        <ele>1231.8074951172</ele>
        <time>2013-03-18T10:34:13Z</time>
      </trkpt>
      <trkpt lat="46.28321" lon="6.75953">
        <ele>1232.2750244141</ele>
        <time>2013-03-18T10:34:20Z</time>
      </trkpt>
      <trkpt lat="46.28319" lon="6.7595">
        <ele>1232.5394287109</ele>
        <time>2013-03-18T10:34:39Z</time>
      </trkpt>
      <trkpt lat="46.28316" lon="6.75946">
        <ele>1233.0629882812</ele>
        <time>2013-03-18T10:34:46Z</time>
      </trkpt>
      <trkpt lat="46.28316" lon="6.75945">
        <ele>1233.1397705078</ele>
        <time>2013-03-18T10:34:55Z</time>
      </trkpt>
      <trkpt lat="46.28313" lon="6.7594">
        <ele>1233.5043945312</ele>
        <time>2013-03-18T10:35:06Z</time>
      </trkpt>
      <trkpt lat="46.2831" lon="6.75935">
        <ele>1234.0174560547</ele>
        <time>2013-03-18T10:35:12Z</time>
      </trkpt>
      <trkpt lat="46.28307" lon="6.75931">
        <ele>1234.4915771484</ele>
        <time>2013-03-18T10:35:18Z</time>
      </trkpt>
      <trkpt lat="46.28304" lon="6.75926">
        <ele>1235.6646728516</ele>
        <time>2013-03-18T10:35:26Z</time>
      </trkpt>
      <trkpt lat="46.28302" lon="6.75925">
        <ele>1236.5184326172</ele>
        <time>2013-03-18T10:35:35Z</time>
      </trkpt>
      <trkpt lat="46.28302" lon="6.75926">
        <ele>1236.5626220703</ele>
        <time>2013-03-18T10:35:52Z</time>
      </trkpt>
      <trkpt lat="46.28299" lon="6.75924">
        <ele>1237.9002685547</ele>
        <time>2013-03-18T10:35:58Z</time>
      </trkpt>
      <trkpt lat="46.28296" lon="6.75921">
        <ele>1238.8826904297</ele>
        <time>2013-03-18T10:36:04Z</time>
      </trkpt>
      <trkpt lat="46.28294" lon="6.7592">
        <ele>1239.5145263672</ele>
        <time>2013-03-18T10:36:10Z</time>
      </trkpt>
      <trkpt lat="46.28293" lon="6.75924">
        <ele>1240.6147460938</ele>
        <time>2013-03-18T10:36:19Z</time>
      </trkpt>
      <trkpt lat="46.28292" lon="6.75927">
        <ele>1241.2138671875</ele>
        <time>2013-03-18T10:36:24Z</time>
      </trkpt>
      <trkpt lat="46.2829" lon="6.75929">
        <ele>1242.5399169922</ele>
        <time>2013-03-18T10:36:30Z</time>
      </trkpt>
      <trkpt lat="46.28288" lon="6.75929">
        <ele>1243.2159423828</ele>
        <time>2013-03-18T10:36:36Z</time>
      </trkpt>
      <trkpt lat="46.28286" lon="6.75927">
        <ele>1244.1553955078</ele>
        <time>2013-03-18T10:36:41Z</time>
      </trkpt>
      <trkpt lat="46.28284" lon="6.75926">
        <ele>1244.9923095703</ele>
        <time>2013-03-18T10:36:46Z</time>
      </trkpt>
      <trkpt lat="46.28282" lon="6.75926">
        <ele>1245.8642578125</ele>
        <time>2013-03-18T10:36:51Z</time>
      </trkpt>
      <trkpt lat="46.28281" lon="6.75931">
        <ele>1246.9873046875</ele>
        <time>2013-03-18T10:37:00Z</time>
      </trkpt>
      <trkpt lat="46.28281" lon="6.75937">
        <ele>1247.56640625</ele>
        <time>2013-03-18T10:37:06Z</time>
      </trkpt>
      <trkpt lat="46.2828" lon="6.75943">
        <ele>1248.7592773438</ele>
        <time>2013-03-18T10:37:13Z</time>
      </trkpt>
      <trkpt lat="46.28279" lon="6.75947">
        <ele>1249.7062988281</ele>
        <time>2013-03-18T10:37:19Z</time>
      </trkpt>
      <trkpt lat="46.28278" lon="6.75949">
        <ele>1250.2486572266</ele>
        <time>2013-03-18T10:37:25Z</time>
      </trkpt>
      <trkpt lat="46.28278" lon="6.75951">
        <ele>1250.3859863281</ele>
        <time>2013-03-18T10:37:32Z</time>
      </trkpt>
      <trkpt lat="46.28276" lon="6.75956">
        <ele>1251.5966796875</ele>
        <time>2013-03-18T10:37:43Z</time>
      </trkpt>
      <trkpt lat="46.28275" lon="6.75959">
        <ele>1252.1787109375</ele>
        <time>2013-03-18T10:37:48Z</time>
      </trkpt>
      <trkpt lat="46.28274" lon="6.75962">
        <ele>1253.0705566406</ele>
        <time>2013-03-18T10:37:52Z</time>
      </trkpt>
      <trkpt lat="46.28273" lon="6.75968">
        <ele>1253.80859375</ele>
        <time>2013-03-18T10:37:58Z</time>
      </trkpt>
      <trkpt lat="46.28273" lon="6.7597">
        <ele>1254.0842285156</ele>
        <time>2013-03-18T10:38:02Z</time>
      </trkpt>
      <trkpt lat="46.28271" lon="6.75975">
        <ele>1254.91796875</ele>
        <time>2013-03-18T10:38:08Z</time>
      </trkpt>
      <trkpt lat="46.2827" lon="6.75982">
        <ele>1255.9204101562</ele>
        <time>2013-03-18T10:38:15Z</time>
      </trkpt>
      <trkpt lat="46.28269" lon="6.75988">
        <ele>1256.8371582031</ele>
        <time>2013-03-18T10:38:22Z</time>
      </trkpt>
      <trkpt lat="46.28269" lon="6.75992">
        <ele>1257.328125</ele>
        <time>2013-03-18T10:38:28Z</time>
      </trkpt>
      <trkpt lat="46.28268" lon="6.75997">
        <ele>1257.7950439453</ele>
        <time>2013-03-18T10:38:33Z</time>
      </trkpt>
      <trkpt lat="46.28269" lon="6.76002">
        <ele>1257.89453125</ele>
        <time>2013-03-18T10:38:40Z</time>
      </trkpt>
      <trkpt lat="46.28269" lon="6.76005">
        <ele>1258.3616943359</ele>
        <time>2013-03-18T10:38:45Z</time>
      </trkpt>
      <trkpt lat="46.2827" lon="6.76008">
        <ele>1257.9940185547</ele>
        <time>2013-03-18T10:38:51Z</time>
      </trkpt>
      <trkpt lat="46.28271" lon="6.76012">
        <ele>1258.0938720703</ele>
        <time>2013-03-18T10:39:01Z</time>
      </trkpt>
      <trkpt lat="46.28271" lon="6.76014">
        <ele>1258.4788818359</ele>
        <time>2013-03-18T10:39:06Z</time>
      </trkpt>
      <trkpt lat="46.28269" lon="6.76014">
        <ele>1259.0725097656</ele>
        <time>2013-03-18T10:39:13Z</time>
      </trkpt>
      <trkpt lat="46.28267" lon="6.76012">
        <ele>1259.8000488281</ele>
        <time>2013-03-18T10:39:19Z</time>
      </trkpt>
      <trkpt lat="46.28262" lon="6.76007">
        <ele>1261.4871826172</ele>
        <time>2013-03-18T10:39:39Z</time>
      </trkpt>
      <trkpt lat="46.28261" lon="6.76004">
        <ele>1261.6507568359</ele>
        <time>2013-03-18T10:39:44Z</time>
      </trkpt>
      <trkpt lat="46.28259" lon="6.75997">
        <ele>1261.962890625</ele>
        <time>2013-03-18T10:39:51Z</time>
      </trkpt>
      <trkpt lat="46.28257" lon="6.7599">
        <ele>1262.2547607422</ele>
        <time>2013-03-18T10:39:58Z</time>
      </trkpt>
      <trkpt lat="46.28256" lon="6.75983">
        <ele>1262.2513427734</ele>
        <time>2013-03-18T10:40:05Z</time>
      </trkpt>
      <trkpt lat="46.28255" lon="6.75978">
        <ele>1262.2513427734</ele>
        <time>2013-03-18T10:40:10Z</time>
      </trkpt>
      <trkpt lat="46.28254" lon="6.75973">
        <ele>1262.2032470703</ele>
        <time>2013-03-18T10:40:16Z</time>
      </trkpt>
      <trkpt lat="46.28252" lon="6.75967">
        <ele>1262.7719726562</ele>
        <time>2013-03-18T10:40:23Z</time>
      </trkpt>
      <trkpt lat="46.28251" lon="6.7596">
        <ele>1263.3472900391</ele>
        <time>2013-03-18T10:40:31Z</time>
      </trkpt>
      <trkpt lat="46.28249" lon="6.75955">
        <ele>1264.3542480469</ele>
        <time>2013-03-18T10:40:37Z</time>
      </trkpt>
      <trkpt lat="46.28247" lon="6.7595">
        <ele>1265.1868896484</ele>
        <time>2013-03-18T10:40:44Z</time>
      </trkpt>
      <trkpt lat="46.28246" lon="6.75945">
        <ele>1266.0675048828</ele>
        <time>2013-03-18T10:40:50Z</time>
      </trkpt>
      <trkpt lat="46.28244" lon="6.75939">
        <ele>1266.7053222656</ele>
        <time>2013-03-18T10:40:57Z</time>
      </trkpt>
      <trkpt lat="46.28242" lon="6.75933">
        <ele>1267.8588867188</ele>
        <time>2013-03-18T10:41:04Z</time>
      </trkpt>
      <trkpt lat="46.2824" lon="6.75928">
        <ele>1268.8029785156</ele>
        <time>2013-03-18T10:41:10Z</time>
      </trkpt>
      <trkpt lat="46.28238" lon="6.75922">
        <ele>1269.3660888672</ele>
        <time>2013-03-18T10:41:18Z</time>
      </trkpt>
      <trkpt lat="46.28237" lon="6.75918">
        <ele>1269.8809814453</ele>
        <time>2013-03-18T10:41:24Z</time>
      </trkpt>
      <trkpt lat="46.28236" lon="6.75913">
        <ele>1270.1104736328</ele>
        <time>2013-03-18T10:41:30Z</time>
      </trkpt>
      <trkpt lat="46.28235" lon="6.75908">
        <ele>1270.6516113281</ele>
        <time>2013-03-18T10:41:36Z</time>
      </trkpt>
      <trkpt lat="46.28234" lon="6.75905">
        <ele>1271.5224609375</ele>
        <time>2013-03-18T10:41:41Z</time>
      </trkpt>
      <trkpt lat="46.28233" lon="6.759">
        <ele>1272.0875244141</ele>
        <time>2013-03-18T10:41:47Z</time>
      </trkpt>
      <trkpt lat="46.28231" lon="6.75893">
        <ele>1272.8273925781</ele>
        <time>2013-03-18T10:41:54Z</time>
      </trkpt>
      <trkpt lat="46.28231" lon="6.75887">
        <ele>1272.5946044922</ele>
        <time>2013-03-18T10:42:00Z</time>
      </trkpt>
      <trkpt lat="46.28231" lon="6.75883">
        <ele>1272.1500244141</ele>
        <time>2013-03-18T10:42:05Z</time>
      </trkpt>
      <trkpt lat="46.2823" lon="6.75878">
        <ele>1273.0632324219</ele>
        <time>2013-03-18T10:42:11Z</time>
      </trkpt>
      <trkpt lat="46.28228" lon="6.75871">
        <ele>1273.9267578125</ele>
        <time>2013-03-18T10:42:18Z</time>
      </trkpt>
      <trkpt lat="46.28228" lon="6.75868">
        <ele>1274.3524169922</ele>
        <time>2013-03-18T10:42:23Z</time>
      </trkpt>
      <trkpt lat="46.28226" lon="6.75864">
        <ele>1275.0545654297</ele>
        <time>2013-03-18T10:42:27Z</time>
      </trkpt>
      <trkpt lat="46.28226" lon="6.75862">
        <ele>1275.5076904297</ele>
        <time>2013-03-18T10:42:31Z</time>
      </trkpt>
      <trkpt lat="46.28225" lon="6.75857">
        <ele>1276.0534667969</ele>
        <time>2013-03-18T10:42:36Z</time>
      </trkpt>
      <trkpt lat="46.28225" lon="6.75851">
        <ele>1276.3435058594</ele>
        <time>2013-03-18T10:42:43Z</time>
      </trkpt>
      <trkpt lat="46.28224" lon="6.75847">
        <ele>1276.8929443359</ele>
        <time>2013-03-18T10:42:49Z</time>
      </trkpt>
      <trkpt lat="46.28223" lon="6.75842">
        <ele>1277.4333496094</ele>
        <time>2013-03-18T10:42:55Z</time>
      </trkpt>
      <trkpt lat="46.28223" lon="6.75836">
        <ele>1277.4398193359</ele>
        <time>2013-03-18T10:43:02Z</time>
      </trkpt>
      <trkpt lat="46.28223" lon="6.75829">
        <ele>1277.7711181641</ele>
        <time>2013-03-18T10:43:10Z</time>
      </trkpt>
      <trkpt lat="46.28223" lon="6.75823">
        <ele>1278.2354736328</ele>
        <time>2013-03-18T10:43:17Z</time>
      </trkpt>
      <trkpt lat="46.28223" lon="6.75819">
        <ele>1278.3155517578</ele>
        <time>2013-03-18T10:43:21Z</time>
      </trkpt>
      <trkpt lat="46.28223" lon="6.75816">
        <ele>1278.5894775391</ele>
        <time>2013-03-18T10:43:25Z</time>
      </trkpt>
      <trkpt lat="46.28224" lon="6.75812">
        <ele>1278.6466064453</ele>
        <time>2013-03-18T10:43:30Z</time>
      </trkpt>
      <trkpt lat="46.28224" lon="6.75809">
        <ele>1278.7445068359</ele>
        <time>2013-03-18T10:43:35Z</time>
      </trkpt>
      <trkpt lat="46.28225" lon="6.75802">
        <ele>1279.5463867188</ele>
        <time>2013-03-18T10:43:42Z</time>
      </trkpt>
      <trkpt lat="46.28226" lon="6.75799">
        <ele>1279.6599121094</ele>
        <time>2013-03-18T10:43:46Z</time>
      </trkpt>
      <trkpt lat="46.28227" lon="6.75796">
        <ele>1280.4193115234</ele>
        <time>2013-03-18T10:43:51Z</time>
      </trkpt>
      <trkpt lat="46.28228" lon="6.75793">
        <ele>1280.8826904297</ele>
        <time>2013-03-18T10:43:55Z</time>
      </trkpt>
      <trkpt lat="46.28228" lon="6.7579">
        <ele>1281.3801269531</ele>
        <time>2013-03-18T10:44:00Z</time>
      </trkpt>
      <trkpt lat="46.28229" lon="6.75786">
        <ele>1282.2462158203</ele>
        <time>2013-03-18T10:44:05Z</time>
      </trkpt>
      <trkpt lat="46.28229" lon="6.75782">
        <ele>1283.3791503906</ele>
        <time>2013-03-18T10:44:11Z</time>
      </trkpt>
      <trkpt lat="46.28229" lon="6.75778">
        <ele>1284.298828125</ele>
        <time>2013-03-18T10:44:16Z</time>
      </trkpt>
      <trkpt lat="46.28228" lon="6.75775">
        <ele>1285.7355957031</ele>
        <time>2013-03-18T10:44:22Z</time>
      </trkpt>
      <trkpt lat="46.28226" lon="6.75771">
        <ele>1287.7680664062</ele>
        <time>2013-03-18T10:44:27Z</time>
      </trkpt>
      <trkpt lat="46.28225" lon="6.75769">
        <ele>1288.9903564453</ele>
        <time>2013-03-18T10:44:31Z</time>
      </trkpt>
      <trkpt lat="46.28225" lon="6.75766">
        <ele>1290.0615234375</ele>
        <time>2013-03-18T10:44:36Z</time>
      </trkpt>
      <trkpt lat="46.28225" lon="6.75764">
        <ele>1290.8168945312</ele>
        <time>2013-03-18T10:44:40Z</time>
      </trkpt>
      <trkpt lat="46.28225" lon="6.7576">
        <ele>1291.7780761719</ele>
        <time>2013-03-18T10:44:45Z</time>
      </trkpt>
      <trkpt lat="46.28224" lon="6.75757">
        <ele>1292.8355712891</ele>
        <time>2013-03-18T10:44:50Z</time>
      </trkpt>
      <trkpt lat="46.28227" lon="6.75753">
        <ele>1292.3273925781</ele>
        <time>2013-03-18T10:44:55Z</time>
      </trkpt>
      <trkpt lat="46.28228" lon="6.7575">
        <ele>1292.8582763672</ele>
        <time>2013-03-18T10:45:00Z</time>
      </trkpt>
      <trkpt lat="46.2823" lon="6.75746">
        <ele>1291.6663818359</ele>
        <time>2013-03-18T10:45:04Z</time>
      </trkpt>
      <trkpt lat="46.28231" lon="6.75743">
        <ele>1291.0798339844</ele>
        <time>2013-03-18T10:45:09Z</time>
      </trkpt>
      <trkpt lat="46.28231" lon="6.75739">
        <ele>1290.5145263672</ele>
        <time>2013-03-18T10:45:14Z</time>
      </trkpt>
      <trkpt lat="46.28231" lon="6.75734">
        <ele>1290.259765625</ele>
        <time>2013-03-18T10:45:20Z</time>
      </trkpt>
      <trkpt lat="46.28232" lon="6.75731">
        <ele>1289.9144287109</ele>
        <time>2013-03-18T10:45:25Z</time>
      </trkpt>
      <trkpt lat="46.28232" lon="6.75727">
        <ele>1289.7301025391</ele>
        <time>2013-03-18T10:45:31Z</time>
      </trkpt>
      <trkpt lat="46.28231" lon="6.75725">
        <ele>1289.8305664062</ele>
        <time>2013-03-18T10:45:38Z</time>
      </trkpt>
      <trkpt lat="46.28232" lon="6.75724">
        <ele>1289.5771484375</ele>
        <time>2013-03-18T10:45:45Z</time>
      </trkpt>
      <trkpt lat="46.28231" lon="6.75721">
        <ele>1289.6010742188</ele>
        <time>2013-03-18T10:46:11Z</time>
      </trkpt>
      <trkpt lat="46.28231" lon="6.75721">
        <ele>1289.5701904297</ele>
        <time>2013-03-18T10:46:30Z</time>
      </trkpt>
      <trkpt lat="46.2823" lon="6.75718">
        <ele>1290.1333007812</ele>
        <time>2013-03-18T10:47:23Z</time>
      </trkpt>
      <trkpt lat="46.28231" lon="6.7572">
        <ele>1289.8552246094</ele>
        <time>2013-03-18T10:48:25Z</time>
      </trkpt>
      <trkpt lat="46.28231" lon="6.7572">
        <ele>1289.7006835938</ele>
        <time>2013-03-18T10:49:07Z</time>
      </trkpt>
      <trkpt lat="46.28229" lon="6.75717">
        <ele>1290.3701171875</ele>
        <time>2013-03-18T10:50:27Z</time>
      </trkpt>
      <trkpt lat="46.28226" lon="6.75713">
        <ele>1291.5168457031</ele>
        <time>2013-03-18T10:50:34Z</time>
      </trkpt>
      <trkpt lat="46.28222" lon="6.75708">
        <ele>1292.9794921875</ele>
        <time>2013-03-18T10:50:42Z</time>
      </trkpt>
      <trkpt lat="46.2822" lon="6.75705">
        <ele>1293.8614501953</ele>
        <time>2013-03-18T10:50:49Z</time>
      </trkpt>
      <trkpt lat="46.28218" lon="6.75703">
        <ele>1294.3287353516</ele>
        <time>2013-03-18T10:50:54Z</time>
      </trkpt>
      <trkpt lat="46.28217" lon="6.75702">
        <ele>1294.8143310547</ele>
        <time>2013-03-18T10:50:58Z</time>
      </trkpt>
      <trkpt lat="46.28215" lon="6.757">
        <ele>1295.4157714844</ele>
        <time>2013-03-18T10:51:03Z</time>
      </trkpt>
      <trkpt lat="46.28213" lon="6.75697">
        <ele>1295.9946289062</ele>
        <time>2013-03-18T10:51:08Z</time>
      </trkpt>
      <trkpt lat="46.28211" lon="6.75695">
        <ele>1296.5666503906</ele>
        <time>2013-03-18T10:51:13Z</time>
      </trkpt>
      <trkpt lat="46.28209" lon="6.75693">
        <ele>1296.9682617188</ele>
        <time>2013-03-18T10:51:17Z</time>
      </trkpt>
      <trkpt lat="46.28207" lon="6.7569">
        <ele>1297.4196777344</ele>
        <time>2013-03-18T10:51:22Z</time>
      </trkpt>
      <trkpt lat="46.28204" lon="6.75686">
        <ele>1298.2797851562</ele>
        <time>2013-03-18T10:51:31Z</time>
      </trkpt>
      <trkpt lat="46.28202" lon="6.75683">
        <ele>1298.9028320312</ele>
        <time>2013-03-18T10:51:36Z</time>
      </trkpt>
      <trkpt lat="46.282" lon="6.75681">
        <ele>1299.4470214844</ele>
        <time>2013-03-18T10:51:40Z</time>
      </trkpt>
      <trkpt lat="46.28198" lon="6.75679">
        <ele>1299.9809570312</ele>
        <time>2013-03-18T10:51:44Z</time>
      </trkpt>
      <trkpt lat="46.28196" lon="6.75677">
        <ele>1300.5250244141</ele>
        <time>2013-03-18T10:51:48Z</time>
      </trkpt>
      <trkpt lat="46.28194" lon="6.75675">
        <ele>1301.1174316406</ele>
        <time>2013-03-18T10:51:52Z</time>
      </trkpt>
      <trkpt lat="46.28192" lon="6.75673">
        <ele>1301.841796875</ele>
        <time>2013-03-18T10:51:56Z</time>
      </trkpt>
      <trkpt lat="46.2819" lon="6.75671">
        <ele>1302.5405273438</ele>
        <time>2013-03-18T10:52:00Z</time>
      </trkpt>
      <trkpt lat="46.28188" lon="6.75668">
        <ele>1303.2340087891</ele>
        <time>2013-03-18T10:52:04Z</time>
      </trkpt>
      <trkpt lat="46.28186" lon="6.75664">
        <ele>1304.2451171875</ele>
        <time>2013-03-18T10:52:10Z</time>
      </trkpt>
      <trkpt lat="46.28183" lon="6.7566">
        <ele>1305.45703125</ele>
        <time>2013-03-18T10:52:17Z</time>
      </trkpt>
      <trkpt lat="46.28179" lon="6.75655">
        <ele>1307.0843505859</ele>
        <time>2013-03-18T10:52:24Z</time>
      </trkpt>
      <trkpt lat="46.28175" lon="6.75652">
        <ele>1308.9486083984</ele>
        <time>2013-03-18T10:52:32Z</time>
      </trkpt>
      <trkpt lat="46.28172" lon="6.7565">
        <ele>1310.1502685547</ele>
        <time>2013-03-18T10:52:38Z</time>
      </trkpt>
      <trkpt lat="46.28169" lon="6.75648">
        <ele>1311.5750732422</ele>
        <time>2013-03-18T10:52:44Z</time>
      </trkpt>
      <trkpt lat="46.28165" lon="6.75646">
        <ele>1312.9503173828</ele>
        <time>2013-03-18T10:52:51Z</time>
      </trkpt>
      <trkpt lat="46.28163" lon="6.75644">
        <ele>1313.8251953125</ele>
        <time>2013-03-18T10:52:56Z</time>
      </trkpt>
      <trkpt lat="46.2816" lon="6.75643">
        <ele>1314.5394287109</ele>
        <time>2013-03-18T10:53:01Z</time>
      </trkpt>
      <trkpt lat="46.28158" lon="6.75641">
        <ele>1315.2641601562</ele>
        <time>2013-03-18T10:53:06Z</time>
      </trkpt>
      <trkpt lat="46.28156" lon="6.7564">
        <ele>1316.0056152344</ele>
        <time>2013-03-18T10:53:12Z</time>
      </trkpt>
      <trkpt lat="46.28153" lon="6.75638">
        <ele>1316.7741699219</ele>
        <time>2013-03-18T10:55:55Z</time>
      </trkpt>
      <trkpt lat="46.28151" lon="6.75636">
        <ele>1317.2926025391</ele>
        <time>2013-03-18T10:56:18Z</time>
      </trkpt>
      <trkpt lat="46.28148" lon="6.75631">
        <ele>1318.0411376953</ele>
        <time>2013-03-18T10:56:43Z</time>
      </trkpt>
      <trkpt lat="46.28144" lon="6.75626">
        <ele>1319.0435791016</ele>
        <time>2013-03-18T10:56:53Z</time>
      </trkpt>
      <trkpt lat="46.2814" lon="6.75626">
        <ele>1320.5541992188</ele>
        <time>2013-03-18T10:57:00Z</time>
      </trkpt>
      <trkpt lat="46.28138" lon="6.75627">
        <ele>1321.4543457031</ele>
        <time>2013-03-18T10:57:04Z</time>
      </trkpt>
      <trkpt lat="46.28135" lon="6.75631">
        <ele>1323.5588378906</ele>
        <time>2013-03-18T10:57:11Z</time>
      </trkpt>
      <trkpt lat="46.28134" lon="6.75633">
        <ele>1324.3142089844</ele>
        <time>2013-03-18T10:57:15Z</time>
      </trkpt>
      <trkpt lat="46.28132" lon="6.75635">
        <ele>1325.3098144531</ele>
        <time>2013-03-18T10:57:22Z</time>
      </trkpt>
      <trkpt lat="46.28131" lon="6.75639">
        <ele>1326.3981933594</ele>
        <time>2013-03-18T10:57:32Z</time>
      </trkpt>
      <trkpt lat="46.2813" lon="6.75641">
        <ele>1327.0037841797</ele>
        <time>2013-03-18T10:57:41Z</time>
      </trkpt>
      <trkpt lat="46.28129" lon="6.75639">
        <ele>1327.2819824219</ele>
        <time>2013-03-18T10:57:46Z</time>
      </trkpt>
      <trkpt lat="46.28128" lon="6.75637">
        <ele>1327.9053955078</ele>
        <time>2013-03-18T10:57:50Z</time>
      </trkpt>
      <trkpt lat="46.28126" lon="6.75634">
        <ele>1328.5405273438</ele>
        <time>2013-03-18T10:57:54Z</time>
      </trkpt>
      <trkpt lat="46.28125" lon="6.75631">
        <ele>1328.9318847656</ele>
        <time>2013-03-18T10:58:00Z</time>
      </trkpt>
      <trkpt lat="46.28125" lon="6.75629">
        <ele>1328.9799804688</ele>
        <time>2013-03-18T10:58:05Z</time>
      </trkpt>
      <trkpt lat="46.28123" lon="6.75623">
        <ele>1329.3576660156</ele>
        <time>2013-03-18T10:59:01Z</time>
      </trkpt>
      <trkpt lat="46.28119" lon="6.75623">
        <ele>1331.6510009766</ele>
        <time>2013-03-18T10:59:08Z</time>
      </trkpt>
      <trkpt lat="46.28116" lon="6.75624">
        <ele>1333.1479492188</ele>
        <time>2013-03-18T10:59:13Z</time>
      </trkpt>
      <trkpt lat="46.28115" lon="6.75624">
        <ele>1334.0234375</ele>
        <time>2013-03-18T10:59:17Z</time>
      </trkpt>
      <trkpt lat="46.28112" lon="6.75624">
        <ele>1335.2456054688</ele>
        <time>2013-03-18T10:59:21Z</time>
      </trkpt>
      <trkpt lat="46.2811" lon="6.75619">
        <ele>1336.1419677734</ele>
        <time>2013-03-18T10:59:28Z</time>
      </trkpt>
      <trkpt lat="46.28109" lon="6.75616">
        <ele>1336.7360839844</ele>
        <time>2013-03-18T10:59:32Z</time>
      </trkpt>
      <trkpt lat="46.28107" lon="6.75611">
        <ele>1336.9658203125</ele>
        <time>2013-03-18T10:59:38Z</time>
      </trkpt>
      <trkpt lat="46.28106" lon="6.75608">
        <ele>1337.2954101562</ele>
        <time>2013-03-18T10:59:42Z</time>
      </trkpt>
      <trkpt lat="46.28106" lon="6.75604">
        <ele>1337.2901611328</ele>
        <time>2013-03-18T10:59:48Z</time>
      </trkpt>
      <trkpt lat="46.28104" lon="6.75599">
        <ele>1337.5734863281</ele>
        <time>2013-03-18T10:59:54Z</time>
      </trkpt>
      <trkpt lat="46.28102" lon="6.75596">
        <ele>1338.0678710938</ele>
        <time>2013-03-18T10:59:59Z</time>
      </trkpt>
      <trkpt lat="46.28101" lon="6.75594">
        <ele>1338.8145751953</ele>
        <time>2013-03-18T11:00:04Z</time>
      </trkpt>
      <trkpt lat="46.28099" lon="6.75592">
        <ele>1339.1905517578</ele>
        <time>2013-03-18T11:00:08Z</time>
      </trkpt>
      <trkpt lat="46.28098" lon="6.75588">
        <ele>1339.8806152344</ele>
        <time>2013-03-18T11:00:13Z</time>
      </trkpt>
      <trkpt lat="46.28096" lon="6.75585">
        <ele>1340.1278076172</ele>
        <time>2013-03-18T11:00:18Z</time>
      </trkpt>
      <trkpt lat="46.28095" lon="6.75582">
        <ele>1340.4598388672</ele>
        <time>2013-03-18T11:00:22Z</time>
      </trkpt>
      <trkpt lat="46.28093" lon="6.75579">
        <ele>1341.142578125</ele>
        <time>2013-03-18T11:00:27Z</time>
      </trkpt>
      <trkpt lat="46.28092" lon="6.75576">
        <ele>1341.6656494141</ele>
        <time>2013-03-18T11:00:32Z</time>
      </trkpt>
      <trkpt lat="46.2809" lon="6.75573">
        <ele>1342.1768798828</ele>
        <time>2013-03-18T11:00:37Z</time>
      </trkpt>
      <trkpt lat="46.28088" lon="6.75568">
        <ele>1342.9626464844</ele>
        <time>2013-03-18T11:00:44Z</time>
      </trkpt>
      <trkpt lat="46.28086" lon="6.75566">
        <ele>1343.5440673828</ele>
        <time>2013-03-18T11:00:50Z</time>
      </trkpt>
      <trkpt lat="46.28085" lon="6.75564">
        <ele>1344.2835693359</ele>
        <time>2013-03-18T11:01:00Z</time>
      </trkpt>
      <trkpt lat="46.28083" lon="6.75563">
        <ele>1344.7186279297</ele>
        <time>2013-03-18T11:01:04Z</time>
      </trkpt>
      <trkpt lat="46.28082" lon="6.75561">
        <ele>1345.4523925781</ele>
        <time>2013-03-18T11:01:08Z</time>
      </trkpt>
      <trkpt lat="46.2808" lon="6.7556">
        <ele>1346.1981201172</ele>
        <time>2013-03-18T11:01:12Z</time>
      </trkpt>
      <trkpt lat="46.28078" lon="6.75559">
        <ele>1346.9694824219</ele>
        <time>2013-03-18T11:01:16Z</time>
      </trkpt>
      <trkpt lat="46.28077" lon="6.75559">
        <ele>1347.3186035156</ele>
        <time>2013-03-18T11:01:27Z</time>
      </trkpt>
      <trkpt lat="46.28076" lon="6.75558">
        <ele>1347.6253662109</ele>
        <time>2013-03-18T11:01:34Z</time>
      </trkpt>
      <trkpt lat="46.28072" lon="6.75562">
        <ele>1349.7054443359</ele>
        <time>2013-03-18T11:02:31Z</time>
      </trkpt>
      <trkpt lat="46.28073" lon="6.7556">
        <ele>1349.1961669922</ele>
        <time>2013-03-18T11:03:42Z</time>
      </trkpt>
      <trkpt lat="46.28071" lon="6.75553">
        <ele>1349.4663085938</ele>
        <time>2013-03-18T11:04:00Z</time>
      </trkpt>
      <trkpt lat="46.28069" lon="6.75548">
        <ele>1350.283203125</ele>
        <time>2013-03-18T11:04:07Z</time>
      </trkpt>
      <trkpt lat="46.28067" lon="6.75545">
        <ele>1350.9300537109</ele>
        <time>2013-03-18T11:04:11Z</time>
      </trkpt>
      <trkpt lat="46.28064" lon="6.75541">
        <ele>1351.677734375</ele>
        <time>2013-03-18T11:04:44Z</time>
      </trkpt>
      <trkpt lat="46.28062" lon="6.75536">
        <ele>1352.5925292969</ele>
        <time>2013-03-18T11:04:50Z</time>
      </trkpt>
      <trkpt lat="46.28059" lon="6.75532">
        <ele>1353.4237060547</ele>
        <time>2013-03-18T11:04:55Z</time>
      </trkpt>
      <trkpt lat="46.28057" lon="6.75527">
        <ele>1353.9893798828</ele>
        <time>2013-03-18T11:05:00Z</time>
      </trkpt>
      <trkpt lat="46.28055" lon="6.75521">
        <ele>1354.4658203125</ele>
        <time>2013-03-18T11:05:06Z</time>
      </trkpt>
      <trkpt lat="46.28053" lon="6.75516">
        <ele>1355.3366699219</ele>
        <time>2013-03-18T11:05:12Z</time>
      </trkpt>
      <trkpt lat="46.28052" lon="6.7551">
        <ele>1355.1884765625</ele>
        <time>2013-03-18T11:05:18Z</time>
      </trkpt>
      <trkpt lat="46.28049" lon="6.75497">
        <ele>1355.8360595703</ele>
        <time>2013-03-18T11:05:24Z</time>
      </trkpt>
      <trkpt lat="46.28049" lon="6.75495">
        <ele>1355.4973144531</ele>
        <time>2013-03-18T11:05:26Z</time>
      </trkpt>
      <trkpt lat="46.28052" lon="6.75485">
        <ele>1353.4733886719</ele>
        <time>2013-03-18T11:05:33Z</time>
      </trkpt>
      <trkpt lat="46.28052" lon="6.75483">
        <ele>1353.0778808594</ele>
        <time>2013-03-18T11:05:35Z</time>
      </trkpt>
      <trkpt lat="46.28051" lon="6.75481">
        <ele>1353.521484375</ele>
        <time>2013-03-18T11:05:37Z</time>
      </trkpt>
      <trkpt lat="46.28051" lon="6.75476">
        <ele>1353.7818603516</ele>
        <time>2013-03-18T11:05:43Z</time>
      </trkpt>
      <trkpt lat="46.28049" lon="6.75475">
        <ele>1354.763671875</ele>
        <time>2013-03-18T11:05:48Z</time>
      </trkpt>
      <trkpt lat="46.28047" lon="6.75471">
        <ele>1355.9403076172</ele>
        <time>2013-03-18T11:05:54Z</time>
      </trkpt>
      <trkpt lat="46.28047" lon="6.75468">
        <ele>1355.9780273438</ele>
        <time>2013-03-18T11:05:59Z</time>
      </trkpt>
      <trkpt lat="46.28045" lon="6.75463">
        <ele>1356.7058105469</ele>
        <time>2013-03-18T11:06:04Z</time>
      </trkpt>
      <trkpt lat="46.28044" lon="6.75459">
        <ele>1357.51953125</ele>
        <time>2013-03-18T11:06:10Z</time>
      </trkpt>
      <trkpt lat="46.28044" lon="6.75454">
        <ele>1356.9152832031</ele>
        <time>2013-03-18T11:06:15Z</time>
      </trkpt>
      <trkpt lat="46.28042" lon="6.75449">
        <ele>1358.2336425781</ele>
        <time>2013-03-18T11:06:21Z</time>
      </trkpt>
      <trkpt lat="46.2804" lon="6.75446">
        <ele>1359.0885009766</ele>
        <time>2013-03-18T11:06:28Z</time>
      </trkpt>
      <trkpt lat="46.28038" lon="6.75443">
        <ele>1360.5064697266</ele>
        <time>2013-03-18T11:06:38Z</time>
      </trkpt>
      <trkpt lat="46.28038" lon="6.75441">
        <ele>1360.3450927734</ele>
        <time>2013-03-18T11:06:43Z</time>
      </trkpt>
      <trkpt lat="46.28038" lon="6.75436">
        <ele>1359.7065429688</ele>
        <time>2013-03-18T11:06:51Z</time>
      </trkpt>
      <trkpt lat="46.28039" lon="6.7543">
        <ele>1358.7348632812</ele>
        <time>2013-03-18T11:06:57Z</time>
      </trkpt>
      <trkpt lat="46.28039" lon="6.75424">
        <ele>1358.625</ele>
        <time>2013-03-18T11:07:03Z</time>
      </trkpt>
      <trkpt lat="46.28037" lon="6.7542">
        <ele>1359.3974609375</ele>
        <time>2013-03-18T11:07:12Z</time>
      </trkpt>
      <trkpt lat="46.28036" lon="6.75416">
        <ele>1359.6481933594</ele>
        <time>2013-03-18T11:07:17Z</time>
      </trkpt>
      <trkpt lat="46.28035" lon="6.75411">
        <ele>1360.3862304688</ele>
        <time>2013-03-18T11:07:23Z</time>
      </trkpt>
      <trkpt lat="46.28033" lon="6.75406">
        <ele>1361.1243896484</ele>
        <time>2013-03-18T11:07:30Z</time>
      </trkpt>
      <trkpt lat="46.28028" lon="6.754">
        <ele>1364.3139648438</ele>
        <time>2013-03-18T11:07:56Z</time>
      </trkpt>
      <trkpt lat="46.28026" lon="6.75396">
        <ele>1365.1097412109</ele>
        <time>2013-03-18T11:08:02Z</time>
      </trkpt>
      <trkpt lat="46.28026" lon="6.75394">
        <ele>1364.8055419922</ele>
        <time>2013-03-18T11:08:06Z</time>
      </trkpt>
      <trkpt lat="46.28024" lon="6.7539">
        <ele>1365.2181396484</ele>
        <time>2013-03-18T11:08:12Z</time>
      </trkpt>
      <trkpt lat="46.28024" lon="6.75386">
        <ele>1364.7581787109</ele>
        <time>2013-03-18T11:08:18Z</time>
      </trkpt>
      <trkpt lat="46.2802" lon="6.75381">
        <ele>1365.5444335938</ele>
        <time>2013-03-18T11:08:29Z</time>
      </trkpt>
      <trkpt lat="46.28017" lon="6.75377">
        <ele>1365.8842773438</ele>
        <time>2013-03-18T11:08:33Z</time>
      </trkpt>
      <trkpt lat="46.28016" lon="6.75375">
        <ele>1365.8470458984</ele>
        <time>2013-03-18T11:08:36Z</time>
      </trkpt>
      <trkpt lat="46.28016" lon="6.75368">
        <ele>1365.4099121094</ele>
        <time>2013-03-18T11:08:42Z</time>
      </trkpt>
      <trkpt lat="46.28014" lon="6.75366">
        <ele>1365.4808349609</ele>
        <time>2013-03-18T11:08:48Z</time>
      </trkpt>
      <trkpt lat="46.28012" lon="6.75361">
        <ele>1365.3176269531</ele>
        <time>2013-03-18T11:08:57Z</time>
      </trkpt>
      <trkpt lat="46.2801" lon="6.75357">
        <ele>1365.4975585938</ele>
        <time>2013-03-18T11:09:03Z</time>
      </trkpt>
      <trkpt lat="46.28009" lon="6.75353">
        <ele>1365.3049316406</ele>
        <time>2013-03-18T11:09:08Z</time>
      </trkpt>
      <trkpt lat="46.28006" lon="6.7535">
        <ele>1365.5313720703</ele>
        <time>2013-03-18T11:09:12Z</time>
      </trkpt>
      <trkpt lat="46.28004" lon="6.75348">
        <ele>1365.8635253906</ele>
        <time>2013-03-18T11:09:16Z</time>
      </trkpt>
      <trkpt lat="46.28001" lon="6.75343">
        <ele>1365.9296875</ele>
        <time>2013-03-18T11:09:22Z</time>
      </trkpt>
      <trkpt lat="46.27999" lon="6.75342">
        <ele>1366.4177246094</ele>
        <time>2013-03-18T11:09:24Z</time>
      </trkpt>
      <trkpt lat="46.27995" lon="6.75336">
        <ele>1367.9987792969</ele>
        <time>2013-03-18T11:09:32Z</time>
      </trkpt>
      <trkpt lat="46.27995" lon="6.75333">
        <ele>1367.7316894531</ele>
        <time>2013-03-18T11:09:39Z</time>
      </trkpt>
      <trkpt lat="46.27994" lon="6.7533">
        <ele>1367.8708496094</ele>
        <time>2013-03-18T11:09:44Z</time>
      </trkpt>
      <trkpt lat="46.2799" lon="6.75334">
        <ele>1370.3212890625</ele>
        <time>2013-03-18T11:10:08Z</time>
      </trkpt>
      <trkpt lat="46.27988" lon="6.7533">
        <ele>1371.1495361328</ele>
        <time>2013-03-18T11:10:14Z</time>
      </trkpt>
      <trkpt lat="46.27985" lon="6.75322">
        <ele>1372.2830810547</ele>
        <time>2013-03-18T11:10:32Z</time>
      </trkpt>
      <trkpt lat="46.27981" lon="6.7532">
        <ele>1374.2340087891</ele>
        <time>2013-03-18T11:10:39Z</time>
      </trkpt>
      <trkpt lat="46.27978" lon="6.75319">
        <ele>1375.8715820312</ele>
        <time>2013-03-18T11:10:44Z</time>
      </trkpt>
      <trkpt lat="46.27978" lon="6.75317">
        <ele>1375.7016601562</ele>
        <time>2013-03-18T11:10:48Z</time>
      </trkpt>
      <trkpt lat="46.27977" lon="6.75313">
        <ele>1375.6457519531</ele>
        <time>2013-03-18T11:10:55Z</time>
      </trkpt>
      <trkpt lat="46.27977" lon="6.75312">
        <ele>1375.7237548828</ele>
        <time>2013-03-18T11:10:59Z</time>
      </trkpt>
      <trkpt lat="46.27972" lon="6.75312">
        <ele>1378.7707519531</ele>
        <time>2013-03-18T11:11:07Z</time>
      </trkpt>
      <trkpt lat="46.27968" lon="6.75312">
        <ele>1380.7209472656</ele>
        <time>2013-03-18T11:11:12Z</time>
      </trkpt>
      <trkpt lat="46.27967" lon="6.75311">
        <ele>1381.5780029297</ele>
        <time>2013-03-18T11:11:14Z</time>
      </trkpt>
      <trkpt lat="46.27963" lon="6.7531">
        <ele>1383.6275634766</ele>
        <time>2013-03-18T11:11:18Z</time>
      </trkpt>
      <trkpt lat="46.27959" lon="6.75309">
        <ele>1385.8424072266</ele>
        <time>2013-03-18T11:11:25Z</time>
      </trkpt>
      <trkpt lat="46.27956" lon="6.75309">
        <ele>1387.4437255859</ele>
        <time>2013-03-18T11:11:30Z</time>
      </trkpt>
      <trkpt lat="46.27954" lon="6.75307">
        <ele>1388.2076416016</ele>
        <time>2013-03-18T11:11:34Z</time>
      </trkpt>
      <trkpt lat="46.27953" lon="6.75308">
        <ele>1388.755859375</ele>
        <time>2013-03-18T11:11:40Z</time>
      </trkpt>
      <trkpt lat="46.27953" lon="6.7531">
        <ele>1389.1656494141</ele>
        <time>2013-03-18T11:11:48Z</time>
      </trkpt>
      <trkpt lat="46.27952" lon="6.75313">
        <ele>1390.0394287109</ele>
        <time>2013-03-18T11:11:53Z</time>
      </trkpt>
      <trkpt lat="46.27951" lon="6.75316">
        <ele>1391.0791015625</ele>
        <time>2013-03-18T11:11:58Z</time>
      </trkpt>
      <trkpt lat="46.27951" lon="6.75319">
        <ele>1391.6020507812</ele>
        <time>2013-03-18T11:12:02Z</time>
      </trkpt>
      <trkpt lat="46.27951" lon="6.75323">
        <ele>1392.5534667969</ele>
        <time>2013-03-18T11:12:07Z</time>
      </trkpt>
      <trkpt lat="46.2795" lon="6.75327">
        <ele>1393.7684326172</ele>
        <time>2013-03-18T11:12:13Z</time>
      </trkpt>
      <trkpt lat="46.27948" lon="6.75329">
        <ele>1395.3803710938</ele>
        <time>2013-03-18T11:12:19Z</time>
      </trkpt>
      <trkpt lat="46.27946" lon="6.75328">
        <ele>1396.8302001953</ele>
        <time>2013-03-18T11:12:26Z</time>
      </trkpt>
      <trkpt lat="46.27945" lon="6.75328">
        <ele>1397.2514648438</ele>
        <time>2013-03-18T11:12:35Z</time>
      </trkpt>
      <trkpt lat="46.27945" lon="6.75328">
        <ele>1397.7622070312</ele>
        <time>2013-03-18T11:12:40Z</time>
      </trkpt>
      <trkpt lat="46.27944" lon="6.7533">
        <ele>1398.2664794922</ele>
        <time>2013-03-18T11:13:20Z</time>
      </trkpt>
      <trkpt lat="46.27946" lon="6.75329">
        <ele>1397.2908935547</ele>
        <time>2013-03-18T11:14:05Z</time>
      </trkpt>
      <trkpt lat="46.27945" lon="6.75328">
        <ele>1397.6136474609</ele>
        <time>2013-03-18T11:14:13Z</time>
      </trkpt>
      <trkpt lat="46.27945" lon="6.75329">
        <ele>1398.0805664062</ele>
        <time>2013-03-18T11:15:03Z</time>
      </trkpt>
      <trkpt lat="46.27943" lon="6.75328">
        <ele>1397.9675292969</ele>
        <time>2013-03-18T11:15:08Z</time>
      </trkpt>
      <trkpt lat="46.27943" lon="6.75327">
        <ele>1397.8250732422</ele>
        <time>2013-03-18T11:18:35Z</time>
      </trkpt>
      <trkpt lat="46.27941" lon="6.75327">
        <ele>1397.9639892578</ele>
        <time>2013-03-18T11:24:31Z</time>
      </trkpt>
      <trkpt lat="46.27938" lon="6.75321">
        <ele>1397.3175048828</ele>
        <time>2013-03-18T11:24:37Z</time>
      </trkpt>
      <trkpt lat="46.27935" lon="6.75316">
        <ele>1397.1798095703</ele>
        <time>2013-03-18T11:24:43Z</time>
      </trkpt>
      <trkpt lat="46.27933" lon="6.75312">
        <ele>1397.2115478516</ele>
        <time>2013-03-18T11:24:49Z</time>
      </trkpt>
      <trkpt lat="46.27931" lon="6.7531">
        <ele>1397.3565673828</ele>
        <time>2013-03-18T11:24:54Z</time>
      </trkpt>
      <trkpt lat="46.27928" lon="6.75306">
        <ele>1397.7152099609</ele>
        <time>2013-03-18T11:25:00Z</time>
      </trkpt>
      <trkpt lat="46.27925" lon="6.75301">
        <ele>1398.0454101562</ele>
        <time>2013-03-18T11:25:07Z</time>
      </trkpt>
      <trkpt lat="46.27924" lon="6.75298">
        <ele>1398.2705078125</ele>
        <time>2013-03-18T11:25:12Z</time>
      </trkpt>
      <trkpt lat="46.27922" lon="6.75295">
        <ele>1398.666015625</ele>
        <time>2013-03-18T11:25:17Z</time>
      </trkpt>
      <trkpt lat="46.2792" lon="6.75291">
        <ele>1399.1168212891</ele>
        <time>2013-03-18T11:25:22Z</time>
      </trkpt>
      <trkpt lat="46.27917" lon="6.75287">
        <ele>1399.982421875</ele>
        <time>2013-03-18T11:25:27Z</time>
      </trkpt>
      <trkpt lat="46.27915" lon="6.75282">
        <ele>1400.2908935547</ele>
        <time>2013-03-18T11:25:33Z</time>
      </trkpt>
      <trkpt lat="46.27913" lon="6.75278">
        <ele>1400.2668457031</ele>
        <time>2013-03-18T11:25:37Z</time>
      </trkpt>
      <trkpt lat="46.27911" lon="6.75275">
        <ele>1400.2004394531</ele>
        <time>2013-03-18T11:25:43Z</time>
      </trkpt>
      <trkpt lat="46.27907" lon="6.75268">
        <ele>1400.115234375</ele>
        <time>2013-03-18T11:25:51Z</time>
      </trkpt>
      <trkpt lat="46.27905" lon="6.75263">
        <ele>1400.0640869141</ele>
        <time>2013-03-18T11:25:57Z</time>
      </trkpt>
      <trkpt lat="46.27902" lon="6.7526">
        <ele>1400.1149902344</ele>
        <time>2013-03-18T11:26:03Z</time>
      </trkpt>
      <trkpt lat="46.27899" lon="6.75255">
        <ele>1400.1616210938</ele>
        <time>2013-03-18T11:26:11Z</time>
      </trkpt>
      <trkpt lat="46.27896" lon="6.75251">
        <ele>1400.2628173828</ele>
        <time>2013-03-18T11:26:17Z</time>
      </trkpt>
      <trkpt lat="46.27892" lon="6.75246">
        <ele>1400.4312744141</ele>
        <time>2013-03-18T11:26:25Z</time>
      </trkpt>
      <trkpt lat="46.27889" lon="6.75242">
        <ele>1400.7258300781</ele>
        <time>2013-03-18T11:26:32Z</time>
      </trkpt>
      <trkpt lat="46.27887" lon="6.7524">
        <ele>1400.876953125</ele>
        <time>2013-03-18T11:26:39Z</time>
      </trkpt>
      <trkpt lat="46.27885" lon="6.75237">
        <ele>1400.9953613281</ele>
        <time>2013-03-18T11:26:46Z</time>
      </trkpt>
      <trkpt lat="46.27882" lon="6.75235">
        <ele>1401.2357177734</ele>
        <time>2013-03-18T11:26:52Z</time>
      </trkpt>
      <trkpt lat="46.27879" lon="6.75233">
        <ele>1401.4124755859</ele>
        <time>2013-03-18T11:26:57Z</time>
      </trkpt>
      <trkpt lat="46.27875" lon="6.75229">
        <ele>1401.7318115234</ele>
        <time>2013-03-18T11:27:04Z</time>
      </trkpt>
      <trkpt lat="46.27872" lon="6.75226">
        <ele>1401.9892578125</ele>
        <time>2013-03-18T11:27:10Z</time>
      </trkpt>
      <trkpt lat="46.27868" lon="6.75223">
        <ele>1402.2432861328</ele>
        <time>2013-03-18T11:27:16Z</time>
      </trkpt>
      <trkpt lat="46.27866" lon="6.75221">
        <ele>1402.3951416016</ele>
        <time>2013-03-18T11:27:21Z</time>
      </trkpt>
      <trkpt lat="46.27864" lon="6.75218">
        <ele>1402.4396972656</ele>
        <time>2013-03-18T11:27:25Z</time>
      </trkpt>
      <trkpt lat="46.27861" lon="6.75217">
        <ele>1402.6092529297</ele>
        <time>2013-03-18T11:27:30Z</time>
      </trkpt>
      <trkpt lat="46.27857" lon="6.75213">
        <ele>1402.8699951172</ele>
        <time>2013-03-18T11:27:38Z</time>
      </trkpt>
      <trkpt lat="46.27853" lon="6.7521">
        <ele>1403.1168212891</ele>
        <time>2013-03-18T11:27:45Z</time>
      </trkpt>
      <trkpt lat="46.2785" lon="6.75208">
        <ele>1403.3115234375</ele>
        <time>2013-03-18T11:27:50Z</time>
      </trkpt>
      <trkpt lat="46.27846" lon="6.75205">
        <ele>1403.5541992188</ele>
        <time>2013-03-18T11:27:57Z</time>
      </trkpt>
      <trkpt lat="46.27843" lon="6.75202">
        <ele>1403.7283935547</ele>
        <time>2013-03-18T11:28:03Z</time>
      </trkpt>
      <trkpt lat="46.27839" lon="6.752">
        <ele>1403.9094238281</ele>
        <time>2013-03-18T11:28:10Z</time>
      </trkpt>
      <trkpt lat="46.27836" lon="6.75198">
        <ele>1404.0493164062</ele>
        <time>2013-03-18T11:28:16Z</time>
      </trkpt>
      <trkpt lat="46.27833" lon="6.75197">
        <ele>1404.330078125</ele>
        <time>2013-03-18T11:28:22Z</time>
      </trkpt>
      <trkpt lat="46.27832" lon="6.75196">
        <ele>1404.2600097656</ele>
        <time>2013-03-18T11:28:32Z</time>
      </trkpt>
      <trkpt lat="46.2783" lon="6.75196">
        <ele>1404.4567871094</ele>
        <time>2013-03-18T11:28:49Z</time>
      </trkpt>
      <trkpt lat="46.27826" lon="6.75199">
        <ele>1405.0686035156</ele>
        <time>2013-03-18T11:28:56Z</time>
      </trkpt>
      <trkpt lat="46.27822" lon="6.75201">
        <ele>1405.5264892578</ele>
        <time>2013-03-18T11:29:01Z</time>
      </trkpt>
      <trkpt lat="46.27818" lon="6.75204">
        <ele>1406.39453125</ele>
        <time>2013-03-18T11:29:09Z</time>
      </trkpt>
      <trkpt lat="46.27816" lon="6.75208">
        <ele>1407.0368652344</ele>
        <time>2013-03-18T11:29:32Z</time>
      </trkpt>
      <trkpt lat="46.27814" lon="6.75211">
        <ele>1407.646484375</ele>
        <time>2013-03-18T11:29:40Z</time>
      </trkpt>
      <trkpt lat="46.27811" lon="6.75215">
        <ele>1408.4332275391</ele>
        <time>2013-03-18T11:29:45Z</time>
      </trkpt>
      <trkpt lat="46.2781" lon="6.75221">
        <ele>1409.3969726562</ele>
        <time>2013-03-18T11:29:50Z</time>
      </trkpt>
      <trkpt lat="46.27808" lon="6.75228">
        <ele>1410.1596679688</ele>
        <time>2013-03-18T11:29:56Z</time>
      </trkpt>
      <trkpt lat="46.27807" lon="6.75235">
        <ele>1410.7236328125</ele>
        <time>2013-03-18T11:30:02Z</time>
      </trkpt>
      <trkpt lat="46.27806" lon="6.7524">
        <ele>1411.2763671875</ele>
        <time>2013-03-18T11:30:09Z</time>
      </trkpt>
      <trkpt lat="46.27805" lon="6.75243">
        <ele>1411.5786132812</ele>
        <time>2013-03-18T11:30:14Z</time>
      </trkpt>
      <trkpt lat="46.27805" lon="6.75247">
        <ele>1411.8739013672</ele>
        <time>2013-03-18T11:30:19Z</time>
      </trkpt>
      <trkpt lat="46.27804" lon="6.75251">
        <ele>1412.24609375</ele>
        <time>2013-03-18T11:30:24Z</time>
      </trkpt>
      <trkpt lat="46.27802" lon="6.75254">
        <ele>1412.5529785156</ele>
        <time>2013-03-18T11:30:28Z</time>
      </trkpt>
      <trkpt lat="46.27799" lon="6.75252">
        <ele>1412.7556152344</ele>
        <time>2013-03-18T11:30:32Z</time>
      </trkpt>
      <trkpt lat="46.27797" lon="6.75246">
        <ele>1412.6910400391</ele>
        <time>2013-03-18T11:30:38Z</time>
      </trkpt>
      <trkpt lat="46.27795" lon="6.7524">
        <ele>1412.3923339844</ele>
        <time>2013-03-18T11:30:44Z</time>
      </trkpt>
      <trkpt lat="46.27795" lon="6.75239">
        <ele>1412.3889160156</ele>
        <time>2013-03-18T11:30:50Z</time>
      </trkpt>
      <trkpt lat="46.27794" lon="6.75238">
        <ele>1412.4060058594</ele>
        <time>2013-03-18T11:31:09Z</time>
      </trkpt>
      <trkpt lat="46.27794" lon="6.75239">
        <ele>1412.4953613281</ele>
        <time>2013-03-18T11:31:23Z</time>
      </trkpt>
      <trkpt lat="46.27794" lon="6.75238">
        <ele>1412.3510742188</ele>
        <time>2013-03-18T11:31:27Z</time>
      </trkpt>
      <trkpt lat="46.27802" lon="6.75238">
        <ele>1411.4859619141</ele>
        <time>2013-03-18T11:31:45Z</time>
      </trkpt>
      <trkpt lat="46.27801" lon="6.75233">
        <ele>1411.2421875</ele>
        <time>2013-03-18T11:31:51Z</time>
      </trkpt>
      <trkpt lat="46.278" lon="6.75242">
        <ele>1411.9733886719</ele>
        <time>2013-03-18T11:32:11Z</time>
      </trkpt>
      <trkpt lat="46.27798" lon="6.75243">
        <ele>1412.2893066406</ele>
        <time>2013-03-18T11:32:19Z</time>
      </trkpt>
      <trkpt lat="46.27801" lon="6.75244">
        <ele>1412.0627441406</ele>
        <time>2013-03-18T11:33:08Z</time>
      </trkpt>
      <trkpt lat="46.27739" lon="6.75279">
        <ele>1426.3509521484</ele>
        <time>2013-03-18T12:08:53Z</time>
      </trkpt>
      <trkpt lat="46.27739" lon="6.75279">
        <ele>1426.3509521484</ele>
        <time>2013-03-18T12:08:53Z</time>
      </trkpt>
      <trkpt lat="46.27738" lon="6.75282">
        <ele>1427.0554199219</ele>
        <time>2013-03-18T12:08:59Z</time>
      </trkpt>
      <trkpt lat="46.27737" lon="6.75284">
        <ele>1427.8286132812</ele>
        <time>2013-03-18T12:09:04Z</time>
      </trkpt>
      <trkpt lat="46.27736" lon="6.75288">
        <ele>1429.0012207031</ele>
        <time>2013-03-18T12:09:09Z</time>
      </trkpt>
      <trkpt lat="46.27734" lon="6.75292">
        <ele>1430.1638183594</ele>
        <time>2013-03-18T12:09:17Z</time>
      </trkpt>
      <trkpt lat="46.27734" lon="6.75295">
        <ele>1431.0703125</ele>
        <time>2013-03-18T12:09:23Z</time>
      </trkpt>
      <trkpt lat="46.27733" lon="6.75297">
        <ele>1431.6893310547</ele>
        <time>2013-03-18T12:09:28Z</time>
      </trkpt>
      <trkpt lat="46.27732" lon="6.75301">
        <ele>1432.634765625</ele>
        <time>2013-03-18T12:09:36Z</time>
      </trkpt>
      <trkpt lat="46.27731" lon="6.75303">
        <ele>1433.5549316406</ele>
        <time>2013-03-18T12:09:41Z</time>
      </trkpt>
      <trkpt lat="46.27731" lon="6.75306">
        <ele>1434.4774169922</ele>
        <time>2013-03-18T12:09:49Z</time>
      </trkpt>
      <trkpt lat="46.2773" lon="6.75308">
        <ele>1435.0648193359</ele>
        <time>2013-03-18T12:09:54Z</time>
      </trkpt>
      <trkpt lat="46.27729" lon="6.75312">
        <ele>1435.6422119141</ele>
        <time>2013-03-18T12:10:01Z</time>
      </trkpt>
      <trkpt lat="46.27729" lon="6.75315">
        <ele>1436.1436767578</ele>
        <time>2013-03-18T12:10:06Z</time>
      </trkpt>
      <trkpt lat="46.27729" lon="6.75318">
        <ele>1436.7198486328</ele>
        <time>2013-03-18T12:10:12Z</time>
      </trkpt>
      <trkpt lat="46.27728" lon="6.75321">
        <ele>1437.1766357422</ele>
        <time>2013-03-18T12:10:16Z</time>
      </trkpt>
      <trkpt lat="46.27728" lon="6.75324">
        <ele>1437.6362304688</ele>
        <time>2013-03-18T12:10:21Z</time>
      </trkpt>
      <trkpt lat="46.27728" lon="6.75327">
        <ele>1438.142578125</ele>
        <time>2013-03-18T12:10:26Z</time>
      </trkpt>
      <trkpt lat="46.27727" lon="6.7533">
        <ele>1438.6241455078</ele>
        <time>2013-03-18T12:10:31Z</time>
      </trkpt>
      <trkpt lat="46.27726" lon="6.75334">
        <ele>1439.5361328125</ele>
        <time>2013-03-18T12:10:39Z</time>
      </trkpt>
      <trkpt lat="46.27726" lon="6.75336">
        <ele>1440.0209960938</ele>
        <time>2013-03-18T12:10:44Z</time>
      </trkpt>
      <trkpt lat="46.27725" lon="6.75339">
        <ele>1440.4671630859</ele>
        <time>2013-03-18T12:10:49Z</time>
      </trkpt>
      <trkpt lat="46.27725" lon="6.75342">
        <ele>1440.9683837891</ele>
        <time>2013-03-18T12:10:54Z</time>
      </trkpt>
      <trkpt lat="46.27724" lon="6.75346">
        <ele>1441.5177001953</ele>
        <time>2013-03-18T12:11:00Z</time>
      </trkpt>
      <trkpt lat="46.27724" lon="6.75349">
        <ele>1441.8649902344</ele>
        <time>2013-03-18T12:11:06Z</time>
      </trkpt>
      <trkpt lat="46.27724" lon="6.75352">
        <ele>1442.5152587891</ele>
        <time>2013-03-18T12:11:13Z</time>
      </trkpt>
      <trkpt lat="46.27723" lon="6.75355">
        <ele>1443.0997314453</ele>
        <time>2013-03-18T12:11:18Z</time>
      </trkpt>
      <trkpt lat="46.27723" lon="6.75358">
        <ele>1443.5252685547</ele>
        <time>2013-03-18T12:11:23Z</time>
      </trkpt>
      <trkpt lat="46.27722" lon="6.7536">
        <ele>1443.8975830078</ele>
        <time>2013-03-18T12:11:27Z</time>
      </trkpt>
      <trkpt lat="46.27722" lon="6.75363">
        <ele>1444.3188476562</ele>
        <time>2013-03-18T12:11:34Z</time>
      </trkpt>
      <trkpt lat="46.27721" lon="6.75366">
        <ele>1444.8218994141</ele>
        <time>2013-03-18T12:11:39Z</time>
      </trkpt>
      <trkpt lat="46.2772" lon="6.7537">
        <ele>1445.4566650391</ele>
        <time>2013-03-18T12:11:46Z</time>
      </trkpt>
      <trkpt lat="46.2772" lon="6.75373">
        <ele>1445.8695068359</ele>
        <time>2013-03-18T12:11:52Z</time>
      </trkpt>
      <trkpt lat="46.27719" lon="6.75376">
        <ele>1446.4207763672</ele>
        <time>2013-03-18T12:11:57Z</time>
      </trkpt>
      <trkpt lat="46.27719" lon="6.7538">
        <ele>1446.8802490234</ele>
        <time>2013-03-18T12:12:04Z</time>
      </trkpt>
      <trkpt lat="46.27718" lon="6.75382">
        <ele>1447.5765380859</ele>
        <time>2013-03-18T12:12:10Z</time>
      </trkpt>
      <trkpt lat="46.27717" lon="6.75387">
        <ele>1448.3255615234</ele>
        <time>2013-03-18T12:12:19Z</time>
      </trkpt>
      <trkpt lat="46.27716" lon="6.7539">
        <ele>1448.7819824219</ele>
        <time>2013-03-18T12:12:24Z</time>
      </trkpt>
      <trkpt lat="46.27715" lon="6.75395">
        <ele>1450.0677490234</ele>
        <time>2013-03-18T12:12:33Z</time>
      </trkpt>
      <trkpt lat="46.27715" lon="6.75399">
        <ele>1450.2136230469</ele>
        <time>2013-03-18T12:12:40Z</time>
      </trkpt>
      <trkpt lat="46.27715" lon="6.75402">
        <ele>1450.5300292969</ele>
        <time>2013-03-18T12:12:46Z</time>
      </trkpt>
      <trkpt lat="46.27715" lon="6.75406">
        <ele>1451.1014404297</ele>
        <time>2013-03-18T12:12:56Z</time>
      </trkpt>
      <trkpt lat="46.27714" lon="6.75408">
        <ele>1451.6043701172</ele>
        <time>2013-03-18T12:13:01Z</time>
      </trkpt>
      <trkpt lat="46.27712" lon="6.75407">
        <ele>1452.5703125</ele>
        <time>2013-03-18T12:13:08Z</time>
      </trkpt>
      <trkpt lat="46.27711" lon="6.75409">
        <ele>1452.9282226562</ele>
        <time>2013-03-18T12:13:13Z</time>
      </trkpt>
      <trkpt lat="46.27712" lon="6.75412">
        <ele>1452.8631591797</ele>
        <time>2013-03-18T12:13:18Z</time>
      </trkpt>
      <trkpt lat="46.27713" lon="6.75416">
        <ele>1452.8770751953</ele>
        <time>2013-03-18T12:13:24Z</time>
      </trkpt>
      <trkpt lat="46.27713" lon="6.75418">
        <ele>1453.1015625</ele>
        <time>2013-03-18T12:13:29Z</time>
      </trkpt>
      <trkpt lat="46.27713" lon="6.7542">
        <ele>1453.4206542969</ele>
        <time>2013-03-18T12:13:39Z</time>
      </trkpt>
      <trkpt lat="46.27712" lon="6.75421">
        <ele>1453.7019042969</ele>
        <time>2013-03-18T12:13:54Z</time>
      </trkpt>
      <trkpt lat="46.27713" lon="6.75421">
        <ele>1453.5346679688</ele>
        <time>2013-03-18T12:13:55Z</time>
      </trkpt>
      <trkpt lat="46.27712" lon="6.75419">
        <ele>1453.7384033203</ele>
        <time>2013-03-18T12:14:24Z</time>
      </trkpt>
      <trkpt lat="46.27707" lon="6.7542">
        <ele>1455.9425048828</ele>
        <time>2013-03-18T12:15:45Z</time>
      </trkpt>
      <trkpt lat="46.2771" lon="6.7542">
        <ele>1454.4670410156</ele>
        <time>2013-03-18T12:15:53Z</time>
      </trkpt>
      <trkpt lat="46.27718" lon="6.75419">
        <ele>1450.9064941406</ele>
        <time>2013-03-18T12:16:39Z</time>
      </trkpt>
      <trkpt lat="46.27716" lon="6.75421">
        <ele>1452.2467041016</ele>
        <time>2013-03-18T12:16:47Z</time>
      </trkpt>
      <trkpt lat="46.27715" lon="6.75427">
        <ele>1453.3752441406</ele>
        <time>2013-03-18T12:17:02Z</time>
      </trkpt>
      <trkpt lat="46.27714" lon="6.75429">
        <ele>1453.6602783203</ele>
        <time>2013-03-18T12:17:03Z</time>
      </trkpt>
      <trkpt lat="46.27712" lon="6.75435">
        <ele>1455.2221679688</ele>
        <time>2013-03-18T12:17:09Z</time>
      </trkpt>
      <trkpt lat="46.27708" lon="6.75444">
        <ele>1457.6036376953</ele>
        <time>2013-03-18T12:17:18Z</time>
      </trkpt>
      <trkpt lat="46.27707" lon="6.75448">
        <ele>1458.5202636719</ele>
        <time>2013-03-18T12:17:24Z</time>
      </trkpt>
      <trkpt lat="46.27705" lon="6.75448">
        <ele>1459.0052490234</ele>
        <time>2013-03-18T12:17:25Z</time>
      </trkpt>
      <trkpt lat="46.27703" lon="6.7546">
        <ele>1461.0853271484</ele>
        <time>2013-03-18T12:17:35Z</time>
      </trkpt>
      <trkpt lat="46.27702" lon="6.75462">
        <ele>1461.7209472656</ele>
        <time>2013-03-18T12:17:36Z</time>
      </trkpt>
      <trkpt lat="46.277" lon="6.75467">
        <ele>1463.2287597656</ele>
        <time>2013-03-18T12:17:43Z</time>
      </trkpt>
      <trkpt lat="46.277" lon="6.75471">
        <ele>1463.6439208984</ele>
        <time>2013-03-18T12:17:49Z</time>
      </trkpt>
      <trkpt lat="46.277" lon="6.75474">
        <ele>1463.7130126953</ele>
        <time>2013-03-18T12:17:56Z</time>
      </trkpt>
      <trkpt lat="46.27696" lon="6.75478">
        <ele>1465.8088378906</ele>
        <time>2013-03-18T12:18:01Z</time>
      </trkpt>
      <trkpt lat="46.27694" lon="6.75483">
        <ele>1467.0161132812</ele>
        <time>2013-03-18T12:18:08Z</time>
      </trkpt>
      <trkpt lat="46.27691" lon="6.7549">
        <ele>1469.3298339844</ele>
        <time>2013-03-18T12:18:20Z</time>
      </trkpt>
      <trkpt lat="46.27687" lon="6.75494">
        <ele>1471.2885742188</ele>
        <time>2013-03-18T12:18:25Z</time>
      </trkpt>
      <trkpt lat="46.27685" lon="6.755">
        <ele>1473.2055664062</ele>
        <time>2013-03-18T12:18:33Z</time>
      </trkpt>
      <trkpt lat="46.27682" lon="6.75505">
        <ele>1475.2568359375</ele>
        <time>2013-03-18T12:18:44Z</time>
      </trkpt>
      <trkpt lat="46.27681" lon="6.75506">
        <ele>1475.4697265625</ele>
        <time>2013-03-18T12:18:45Z</time>
      </trkpt>
      <trkpt lat="46.27676" lon="6.75514">
        <ele>1479.1363525391</ele>
        <time>2013-03-18T12:18:57Z</time>
      </trkpt>
      <trkpt lat="46.27677" lon="6.75518">
        <ele>1478.8686523438</ele>
        <time>2013-03-18T12:19:04Z</time>
      </trkpt>
      <trkpt lat="46.27678" lon="6.75522">
        <ele>1478.5286865234</ele>
        <time>2013-03-18T12:19:36Z</time>
      </trkpt>
      <trkpt lat="46.27673" lon="6.75527">
        <ele>1481.5499267578</ele>
        <time>2013-03-18T12:19:42Z</time>
      </trkpt>
      <trkpt lat="46.27671" lon="6.7553">
        <ele>1482.8165283203</ele>
        <time>2013-03-18T12:19:48Z</time>
      </trkpt>
      <trkpt lat="46.2767" lon="6.75534">
        <ele>1483.6889648438</ele>
        <time>2013-03-18T12:19:53Z</time>
      </trkpt>
      <trkpt lat="46.27669" lon="6.75535">
        <ele>1484.3874511719</ele>
        <time>2013-03-18T12:19:55Z</time>
      </trkpt>
      <trkpt lat="46.27667" lon="6.75539">
        <ele>1485.6931152344</ele>
        <time>2013-03-18T12:20:03Z</time>
      </trkpt>
      <trkpt lat="46.27665" lon="6.75544">
        <ele>1486.8562011719</ele>
        <time>2013-03-18T12:20:10Z</time>
      </trkpt>
      <trkpt lat="46.27664" lon="6.75545">
        <ele>1487.2322998047</ele>
        <time>2013-03-18T12:20:13Z</time>
      </trkpt>
      <trkpt lat="46.2766" lon="6.75546">
        <ele>1489.2027587891</ele>
        <time>2013-03-18T12:20:17Z</time>
      </trkpt>
      <trkpt lat="46.27658" lon="6.75541">
        <ele>1489.3656005859</ele>
        <time>2013-03-18T12:20:26Z</time>
      </trkpt>
      <trkpt lat="46.27656" lon="6.75538">
        <ele>1490.1419677734</ele>
        <time>2013-03-18T12:20:34Z</time>
      </trkpt>
      <trkpt lat="46.27655" lon="6.75534">
        <ele>1490.228515625</ele>
        <time>2013-03-18T12:20:41Z</time>
      </trkpt>
      <trkpt lat="46.27655" lon="6.75533">
        <ele>1490.1354980469</ele>
        <time>2013-03-18T12:20:47Z</time>
      </trkpt>
      <trkpt lat="46.27656" lon="6.7553">
        <ele>1489.8377685547</ele>
        <time>2013-03-18T12:20:56Z</time>
      </trkpt>
      <trkpt lat="46.2765" lon="6.7553">
        <ele>1492.3061523438</ele>
        <time>2013-03-18T12:21:06Z</time>
      </trkpt>
      <trkpt lat="46.27649" lon="6.75532">
        <ele>1492.8619384766</ele>
        <time>2013-03-18T12:21:09Z</time>
      </trkpt>
      <trkpt lat="46.27647" lon="6.75535">
        <ele>1493.6567382812</ele>
        <time>2013-03-18T12:21:11Z</time>
      </trkpt>
      <trkpt lat="46.27645" lon="6.75541">
        <ele>1494.91015625</ele>
        <time>2013-03-18T12:21:20Z</time>
      </trkpt>
      <trkpt lat="46.27644" lon="6.7555">
        <ele>1495.7316894531</ele>
        <time>2013-03-18T12:21:27Z</time>
      </trkpt>
      <trkpt lat="46.27641" lon="6.75554">
        <ele>1497.3054199219</ele>
        <time>2013-03-18T12:21:40Z</time>
      </trkpt>
      <trkpt lat="46.27637" lon="6.75559">
        <ele>1499.1052246094</ele>
        <time>2013-03-18T12:21:47Z</time>
      </trkpt>
      <trkpt lat="46.27636" lon="6.75563">
        <ele>1500.0493164062</ele>
        <time>2013-03-18T12:21:53Z</time>
      </trkpt>
      <trkpt lat="46.27633" lon="6.75561">
        <ele>1501.6423339844</ele>
        <time>2013-03-18T12:22:02Z</time>
      </trkpt>
      <trkpt lat="46.27632" lon="6.75561">
        <ele>1502.0423583984</ele>
        <time>2013-03-18T12:22:03Z</time>
      </trkpt>
      <trkpt lat="46.27631" lon="6.75553">
        <ele>1502.3566894531</ele>
        <time>2013-03-18T12:22:10Z</time>
      </trkpt>
      <trkpt lat="46.27629" lon="6.75547">
        <ele>1502.8950195312</ele>
        <time>2013-03-18T12:22:18Z</time>
      </trkpt>
      <trkpt lat="46.27626" lon="6.75543">
        <ele>1504.3023681641</ele>
        <time>2013-03-18T12:22:26Z</time>
      </trkpt>
      <trkpt lat="46.27624" lon="6.7554">
        <ele>1505.0894775391</ele>
        <time>2013-03-18T12:22:38Z</time>
      </trkpt>
      <trkpt lat="46.27622" lon="6.75537">
        <ele>1505.9041748047</ele>
        <time>2013-03-18T12:22:49Z</time>
      </trkpt>
      <trkpt lat="46.2762" lon="6.75529">
        <ele>1506.5985107422</ele>
        <time>2013-03-18T12:23:21Z</time>
      </trkpt>
      <trkpt lat="46.27619" lon="6.75528">
        <ele>1506.9337158203</ele>
        <time>2013-03-18T12:23:30Z</time>
      </trkpt>
      <trkpt lat="46.27621" lon="6.75531">
        <ele>1506.3865966797</ele>
        <time>2013-03-18T12:23:42Z</time>
      </trkpt>
      <trkpt lat="46.27614" lon="6.75538">
        <ele>1510.3107910156</ele>
        <time>2013-03-18T12:23:49Z</time>
      </trkpt>
      <trkpt lat="46.27611" lon="6.75531">
        <ele>1511.2314453125</ele>
        <time>2013-03-18T12:24:00Z</time>
      </trkpt>
      <trkpt lat="46.27607" lon="6.75505">
        <ele>1512.7718505859</ele>
        <time>2013-03-18T12:25:33Z</time>
      </trkpt>
      <trkpt lat="46.27606" lon="6.75486">
        <ele>1513.2713623047</ele>
        <time>2013-03-18T12:26:06Z</time>
      </trkpt>
      <trkpt lat="46.27606" lon="6.75485">
        <ele>1513.2816162109</ele>
        <time>2013-03-18T12:26:10Z</time>
      </trkpt>
      <trkpt lat="46.27595" lon="6.75499">
        <ele>1519.1793212891</ele>
        <time>2013-03-18T12:26:45Z</time>
      </trkpt>
      <trkpt lat="46.27592" lon="6.75497">
        <ele>1520.8533935547</ele>
        <time>2013-03-18T12:26:52Z</time>
      </trkpt>
      <trkpt lat="46.27587" lon="6.7549">
        <ele>1523.2172851562</ele>
        <time>2013-03-18T12:27:13Z</time>
      </trkpt>
      <trkpt lat="46.27583" lon="6.75488">
        <ele>1525.1121826172</ele>
        <time>2013-03-18T12:27:23Z</time>
      </trkpt>
      <trkpt lat="46.27582" lon="6.7548">
        <ele>1525.4151611328</ele>
        <time>2013-03-18T12:27:34Z</time>
      </trkpt>
      <trkpt lat="46.2758" lon="6.75472">
        <ele>1525.7750244141</ele>
        <time>2013-03-18T12:28:03Z</time>
      </trkpt>
      <trkpt lat="46.27573" lon="6.75478">
        <ele>1530.4211425781</ele>
        <time>2013-03-18T12:28:28Z</time>
      </trkpt>
      <trkpt lat="46.27569" lon="6.75483">
        <ele>1532.5223388672</ele>
        <time>2013-03-18T12:28:35Z</time>
      </trkpt>
      <trkpt lat="46.27571" lon="6.75478">
        <ele>1531.0493164062</ele>
        <time>2013-03-18T12:28:44Z</time>
      </trkpt>
      <trkpt lat="46.27573" lon="6.75476">
        <ele>1530.3176269531</ele>
        <time>2013-03-18T12:28:46Z</time>
      </trkpt>
      <trkpt lat="46.27575" lon="6.75463">
        <ele>1527.8981933594</ele>
        <time>2013-03-18T12:28:57Z</time>
      </trkpt>
      <trkpt lat="46.27576" lon="6.75454">
        <ele>1526.6987304688</ele>
        <time>2013-03-18T12:29:11Z</time>
      </trkpt>
      <trkpt lat="46.27576" lon="6.75451">
        <ele>1526.6555175781</ele>
        <time>2013-03-18T12:29:19Z</time>
      </trkpt>
      <trkpt lat="46.2757" lon="6.7545">
        <ele>1529.9506835938</ele>
        <time>2013-03-18T12:29:33Z</time>
      </trkpt>
      <trkpt lat="46.27566" lon="6.75447">
        <ele>1531.7683105469</ele>
        <time>2013-03-18T12:29:39Z</time>
      </trkpt>
      <trkpt lat="46.27563" lon="6.75446">
        <ele>1533.0894775391</ele>
        <time>2013-03-18T12:29:43Z</time>
      </trkpt>
      <trkpt lat="46.2756" lon="6.75441">
        <ele>1533.9312744141</ele>
        <time>2013-03-18T12:29:55Z</time>
      </trkpt>
      <trkpt lat="46.27559" lon="6.75438">
        <ele>1534.1877441406</ele>
        <time>2013-03-18T12:30:01Z</time>
      </trkpt>
      <trkpt lat="46.27557" lon="6.75438">
        <ele>1535.3291015625</ele>
        <time>2013-03-18T12:30:03Z</time>
      </trkpt>
      <trkpt lat="46.27554" lon="6.75432">
        <ele>1536.1979980469</ele>
        <time>2013-03-18T12:30:10Z</time>
      </trkpt>
      <trkpt lat="46.27555" lon="6.75428">
        <ele>1534.9462890625</ele>
        <time>2013-03-18T12:30:19Z</time>
      </trkpt>
      <trkpt lat="46.27549" lon="6.7543">
        <ele>1539.2464599609</ele>
        <time>2013-03-18T12:30:31Z</time>
      </trkpt>
      <trkpt lat="46.27546" lon="6.75428">
        <ele>1540.2943115234</ele>
        <time>2013-03-18T12:30:41Z</time>
      </trkpt>
      <trkpt lat="46.27553" lon="6.75442">
        <ele>1538.2214355469</ele>
        <time>2013-03-18T12:31:48Z</time>
      </trkpt>
      <trkpt lat="46.27554" lon="6.75449">
        <ele>1538.7655029297</ele>
        <time>2013-03-18T12:31:58Z</time>
      </trkpt>
      <trkpt lat="46.27544" lon="6.75444">
        <ele>1544.7155761719</ele>
        <time>2013-03-18T12:32:05Z</time>
      </trkpt>
      <trkpt lat="46.27534" lon="6.75438">
        <ele>1549.5430908203</ele>
        <time>2013-03-18T12:32:14Z</time>
      </trkpt>
      <trkpt lat="46.27534" lon="6.75439">
        <ele>1549.4825439453</ele>
        <time>2013-03-18T12:32:29Z</time>
      </trkpt>
      <trkpt lat="46.27538" lon="6.75438">
        <ele>1547.1202392578</ele>
        <time>2013-03-18T12:33:08Z</time>
      </trkpt>
      <trkpt lat="46.2753" lon="6.75435">
        <ele>1551.318359375</ele>
        <time>2013-03-18T12:33:18Z</time>
      </trkpt>
      <trkpt lat="46.27526" lon="6.7543">
        <ele>1552.5721435547</ele>
        <time>2013-03-18T12:33:26Z</time>
      </trkpt>
      <trkpt lat="46.27526" lon="6.75427">
        <ele>1552.0571289062</ele>
        <time>2013-03-18T12:33:27Z</time>
      </trkpt>
      <trkpt lat="46.27525" lon="6.75425">
        <ele>1552.3175048828</ele>
        <time>2013-03-18T12:33:35Z</time>
      </trkpt>
      <trkpt lat="46.27524" lon="6.75426">
        <ele>1552.7928466797</ele>
        <time>2013-03-18T12:33:55Z</time>
      </trkpt>
      <trkpt lat="46.27523" lon="6.75426">
        <ele>1552.9305419922</ele>
        <time>2013-03-18T12:34:00Z</time>
      </trkpt>
      <trkpt lat="46.27526" lon="6.75433">
        <ele>1553.2742919922</ele>
        <time>2013-03-18T12:34:39Z</time>
      </trkpt>
      <trkpt lat="46.27519" lon="6.75427">
        <ele>1555.2125244141</ele>
        <time>2013-03-18T12:34:46Z</time>
      </trkpt>
      <trkpt lat="46.27514" lon="6.75427">
        <ele>1557.240234375</ele>
        <time>2013-03-18T12:34:56Z</time>
      </trkpt>
      <trkpt lat="46.27511" lon="6.7543">
        <ele>1559.5067138672</ele>
        <time>2013-03-18T12:35:01Z</time>
      </trkpt>
      <trkpt lat="46.27506" lon="6.75425">
        <ele>1560.3658447266</ele>
        <time>2013-03-18T12:35:50Z</time>
      </trkpt>
      <trkpt lat="46.27504" lon="6.75424">
        <ele>1561.2185058594</ele>
        <time>2013-03-18T12:35:57Z</time>
      </trkpt>
      <trkpt lat="46.27502" lon="6.75424">
        <ele>1561.7709960938</ele>
        <time>2013-03-18T12:36:01Z</time>
      </trkpt>
      <trkpt lat="46.275" lon="6.75423">
        <ele>1562.7980957031</ele>
        <time>2013-03-18T12:36:09Z</time>
      </trkpt>
      <trkpt lat="46.27501" lon="6.75413">
        <ele>1559.6145019531</ele>
        <time>2013-03-18T12:37:45Z</time>
      </trkpt>
      <trkpt lat="46.27496" lon="6.75406">
        <ele>1560.3907470703</ele>
        <time>2013-03-18T12:37:52Z</time>
      </trkpt>
      <trkpt lat="46.27493" lon="6.75402">
        <ele>1560.7554931641</ele>
        <time>2013-03-18T12:38:03Z</time>
      </trkpt>
      <trkpt lat="46.27491" lon="6.75401">
        <ele>1561.4221191406</ele>
        <time>2013-03-18T12:38:12Z</time>
      </trkpt>
      <trkpt lat="46.27491" lon="6.75399">
        <ele>1561.2958984375</ele>
        <time>2013-03-18T12:38:31Z</time>
      </trkpt>
      <trkpt lat="46.27489" lon="6.75396">
        <ele>1561.3284912109</ele>
        <time>2013-03-18T12:38:38Z</time>
      </trkpt>
      <trkpt lat="46.27482" lon="6.75392">
        <ele>1563.3627929688</ele>
        <time>2013-03-18T12:39:12Z</time>
      </trkpt>
      <trkpt lat="46.27479" lon="6.75391">
        <ele>1564.4444580078</ele>
        <time>2013-03-18T12:39:23Z</time>
      </trkpt>
      <trkpt lat="46.27477" lon="6.75387">
        <ele>1564.3701171875</ele>
        <time>2013-03-18T12:39:31Z</time>
      </trkpt>
      <trkpt lat="46.27474" lon="6.75382">
        <ele>1563.8217773438</ele>
        <time>2013-03-18T12:39:47Z</time>
      </trkpt>
      <trkpt lat="46.27472" lon="6.75381">
        <ele>1564.78125</ele>
        <time>2013-03-18T12:39:53Z</time>
      </trkpt>
      <trkpt lat="46.27467" lon="6.75384">
        <ele>1567.3376464844</ele>
        <time>2013-03-18T12:40:01Z</time>
      </trkpt>
      <trkpt lat="46.27467" lon="6.75382">
        <ele>1566.3380126953</ele>
        <time>2013-03-18T12:40:18Z</time>
      </trkpt>
      <trkpt lat="46.27467" lon="6.7538">
        <ele>1565.9370117188</ele>
        <time>2013-03-18T12:40:28Z</time>
      </trkpt>
      <trkpt lat="46.27477" lon="6.75385">
        <ele>1563.8342285156</ele>
        <time>2013-03-18T12:42:47Z</time>
      </trkpt>
      <trkpt lat="46.27475" lon="6.75383">
        <ele>1563.8382568359</ele>
        <time>2013-03-18T12:43:01Z</time>
      </trkpt>
      <trkpt lat="46.2747" lon="6.75389">
        <ele>1567.8540039062</ele>
        <time>2013-03-18T12:43:47Z</time>
      </trkpt>
      <trkpt lat="46.27468" lon="6.75388">
        <ele>1568.3276367188</ele>
        <time>2013-03-18T12:43:53Z</time>
      </trkpt>
      <trkpt lat="46.27465" lon="6.75388">
        <ele>1569.0577392578</ele>
        <time>2013-03-18T12:43:59Z</time>
      </trkpt>
      <trkpt lat="46.27462" lon="6.75386">
        <ele>1569.3975830078</ele>
        <time>2013-03-18T12:44:06Z</time>
      </trkpt>
      <trkpt lat="46.2746" lon="6.75385">
        <ele>1569.9478759766</ele>
        <time>2013-03-18T12:44:11Z</time>
      </trkpt>
      <trkpt lat="46.27459" lon="6.75386">
        <ele>1570.6556396484</ele>
        <time>2013-03-18T12:44:30Z</time>
      </trkpt>
      <trkpt lat="46.27468" lon="6.75395">
        <ele>1570.5766601562</ele>
        <time>2013-03-18T12:45:05Z</time>
      </trkpt>
      <trkpt lat="46.27467" lon="6.754">
        <ele>1573.0961914062</ele>
        <time>2013-03-18T12:45:49Z</time>
      </trkpt>
      <trkpt lat="46.27467" lon="6.75401">
        <ele>1573.1635742188</ele>
        <time>2013-03-18T12:45:50Z</time>
      </trkpt>
      <trkpt lat="46.27467" lon="6.754">
        <ele>1572.7351074219</ele>
        <time>2013-03-18T12:45:52Z</time>
      </trkpt>
      <trkpt lat="46.27463" lon="6.75399">
        <ele>1574.1279296875</ele>
        <time>2013-03-18T12:46:00Z</time>
      </trkpt>
      <trkpt lat="46.2746" lon="6.75395">
        <ele>1573.6389160156</ele>
        <time>2013-03-18T12:46:26Z</time>
      </trkpt>
      <trkpt lat="46.27457" lon="6.75392">
        <ele>1573.7094726562</ele>
        <time>2013-03-18T12:46:45Z</time>
      </trkpt>
      <trkpt lat="46.27454" lon="6.75392">
        <ele>1574.5646972656</ele>
        <time>2013-03-18T12:46:51Z</time>
      </trkpt>
      <trkpt lat="46.27451" lon="6.7539">
        <ele>1574.9645996094</ele>
        <time>2013-03-18T12:46:59Z</time>
      </trkpt>
      <trkpt lat="46.2745" lon="6.75393">
        <ele>1576.8024902344</ele>
        <time>2013-03-18T12:47:16Z</time>
      </trkpt>
      <trkpt lat="46.27448" lon="6.7539">
        <ele>1576.4333496094</ele>
        <time>2013-03-18T12:47:22Z</time>
      </trkpt>
      <trkpt lat="46.27446" lon="6.75381">
        <ele>1573.5924072266</ele>
        <time>2013-03-18T12:47:45Z</time>
      </trkpt>
      <trkpt lat="46.27443" lon="6.75379">
        <ele>1573.4741210938</ele>
        <time>2013-03-18T12:47:53Z</time>
      </trkpt>
      <trkpt lat="46.27441" lon="6.75378">
        <ele>1573.5242919922</ele>
        <time>2013-03-18T12:47:59Z</time>
      </trkpt>
      <trkpt lat="46.27443" lon="6.75383">
        <ele>1575.2666015625</ele>
        <time>2013-03-18T12:48:10Z</time>
      </trkpt>
      <trkpt lat="46.27443" lon="6.75386">
        <ele>1576.0426025391</ele>
        <time>2013-03-18T12:48:12Z</time>
      </trkpt>
      <trkpt lat="46.27444" lon="6.75389">
        <ele>1577.3414306641</ele>
        <time>2013-03-18T12:48:15Z</time>
      </trkpt>
      <trkpt lat="46.27445" lon="6.75391">
        <ele>1577.8356933594</ele>
        <time>2013-03-18T12:48:20Z</time>
      </trkpt>
      <trkpt lat="46.27449" lon="6.75399">
        <ele>1579.6044921875</ele>
        <time>2013-03-18T12:48:31Z</time>
      </trkpt>
      <trkpt lat="46.27452" lon="6.75403">
        <ele>1580.5915527344</ele>
        <time>2013-03-18T12:48:38Z</time>
      </trkpt>
      <trkpt lat="46.27452" lon="6.75408">
        <ele>1582.5411376953</ele>
        <time>2013-03-18T12:48:43Z</time>
      </trkpt>
      <trkpt lat="46.27454" lon="6.75413">
        <ele>1583.787109375</ele>
        <time>2013-03-18T12:48:49Z</time>
      </trkpt>
      <trkpt lat="46.27457" lon="6.7542">
        <ele>1584.8591308594</ele>
        <time>2013-03-18T12:49:04Z</time>
      </trkpt>
      <trkpt lat="46.27459" lon="6.75422">
        <ele>1584.5914306641</ele>
        <time>2013-03-18T12:49:11Z</time>
      </trkpt>
      <trkpt lat="46.2746" lon="6.75432">
        <ele>1587.7485351562</ele>
        <time>2013-03-18T12:49:29Z</time>
      </trkpt>
      <trkpt lat="46.27461" lon="6.75433">
        <ele>1587.923828125</ele>
        <time>2013-03-18T12:49:35Z</time>
      </trkpt>
      <trkpt lat="46.27462" lon="6.75442">
        <ele>1590.9445800781</ele>
        <time>2013-03-18T12:49:55Z</time>
      </trkpt>
      <trkpt lat="46.27463" lon="6.75449">
        <ele>1592.6224365234</ele>
        <time>2013-03-18T12:50:07Z</time>
      </trkpt>
      <trkpt lat="46.27463" lon="6.75453">
        <ele>1593.8234863281</ele>
        <time>2013-03-18T12:50:34Z</time>
      </trkpt>
      <trkpt lat="46.27463" lon="6.75453">
        <ele>1593.7094726562</ele>
        <time>2013-03-18T12:50:35Z</time>
      </trkpt>
      <trkpt lat="46.27473" lon="6.75456">
        <ele>1589.7135009766</ele>
        <time>2013-03-18T12:51:42Z</time>
      </trkpt>
      <trkpt lat="46.27467" lon="6.7546">
        <ele>1593.8095703125</ele>
        <time>2013-03-18T12:52:06Z</time>
      </trkpt>
      <trkpt lat="46.27465" lon="6.75461">
        <ele>1595.0621337891</ele>
        <time>2013-03-18T12:52:12Z</time>
      </trkpt>
      <trkpt lat="46.2746" lon="6.7546">
        <ele>1596.8956298828</ele>
        <time>2013-03-18T12:52:20Z</time>
      </trkpt>
      <trkpt lat="46.27456" lon="6.75457">
        <ele>1598.3890380859</ele>
        <time>2013-03-18T12:52:30Z</time>
      </trkpt>
      <trkpt lat="46.27453" lon="6.75456">
        <ele>1599.3269042969</ele>
        <time>2013-03-18T12:52:35Z</time>
      </trkpt>
      <trkpt lat="46.27451" lon="6.75454">
        <ele>1600.0629882812</ele>
        <time>2013-03-18T12:52:41Z</time>
      </trkpt>
      <trkpt lat="46.27448" lon="6.75452">
        <ele>1601.1949462891</ele>
        <time>2013-03-18T12:52:47Z</time>
      </trkpt>
      <trkpt lat="46.27442" lon="6.75447">
        <ele>1602.3322753906</ele>
        <time>2013-03-18T12:52:57Z</time>
      </trkpt>
      <trkpt lat="46.2744" lon="6.75443">
        <ele>1601.6791992188</ele>
        <time>2013-03-18T12:53:03Z</time>
      </trkpt>
      <trkpt lat="46.27438" lon="6.7544">
        <ele>1601.0737304688</ele>
        <time>2013-03-18T12:53:09Z</time>
      </trkpt>
      <trkpt lat="46.27434" lon="6.75436">
        <ele>1600.8110351562</ele>
        <time>2013-03-18T12:53:22Z</time>
      </trkpt>
      <trkpt lat="46.27431" lon="6.75434">
        <ele>1600.8833007812</ele>
        <time>2013-03-18T12:53:29Z</time>
      </trkpt>
      <trkpt lat="46.27429" lon="6.75433">
        <ele>1601.2485351562</ele>
        <time>2013-03-18T12:53:35Z</time>
      </trkpt>
      <trkpt lat="46.27429" lon="6.75437">
        <ele>1602.8293457031</ele>
        <time>2013-03-18T12:54:28Z</time>
      </trkpt>
      <trkpt lat="46.27426" lon="6.75439">
        <ele>1604.64453125</ele>
        <time>2013-03-18T12:54:41Z</time>
      </trkpt>
      <trkpt lat="46.27425" lon="6.75422">
        <ele>1598.9248046875</ele>
        <time>2013-03-18T12:55:51Z</time>
      </trkpt>
      <trkpt lat="46.27423" lon="6.75423">
        <ele>1599.8757324219</ele>
        <time>2013-03-18T12:56:11Z</time>
      </trkpt>
      <trkpt lat="46.27422" lon="6.75425">
        <ele>1601.0103759766</ele>
        <time>2013-03-18T12:56:18Z</time>
      </trkpt>
      <trkpt lat="46.27417" lon="6.75425">
        <ele>1602.4157714844</ele>
        <time>2013-03-18T12:56:32Z</time>
      </trkpt>
      <trkpt lat="46.27416" lon="6.75428">
        <ele>1603.9190673828</ele>
        <time>2013-03-18T12:56:38Z</time>
      </trkpt>
      <trkpt lat="46.2742" lon="6.75431">
        <ele>1603.4151611328</ele>
        <time>2013-03-18T12:56:58Z</time>
      </trkpt>
      <trkpt lat="46.27422" lon="6.75437">
        <ele>1604.8540039062</ele>
        <time>2013-03-18T12:57:07Z</time>
      </trkpt>
      <trkpt lat="46.27423" lon="6.75443">
        <ele>1606.8100585938</ele>
        <time>2013-03-18T12:57:16Z</time>
      </trkpt>
      <trkpt lat="46.27422" lon="6.75447">
        <ele>1608.4385986328</ele>
        <time>2013-03-18T12:57:21Z</time>
      </trkpt>
      <trkpt lat="46.2742" lon="6.75449">
        <ele>1609.4327392578</ele>
        <time>2013-03-18T12:57:23Z</time>
      </trkpt>
      <trkpt lat="46.27417" lon="6.75449">
        <ele>1610.6376953125</ele>
        <time>2013-03-18T12:57:27Z</time>
      </trkpt>
      <trkpt lat="46.27417" lon="6.75447">
        <ele>1609.7319335938</ele>
        <time>2013-03-18T12:57:33Z</time>
      </trkpt>
      <trkpt lat="46.27414" lon="6.75447">
        <ele>1610.7000732422</ele>
        <time>2013-03-18T12:57:38Z</time>
      </trkpt>
      <trkpt lat="46.27412" lon="6.75448">
        <ele>1611.5684814453</ele>
        <time>2013-03-18T12:57:50Z</time>
      </trkpt>
      <trkpt lat="46.27411" lon="6.75448">
        <ele>1612.4753417969</ele>
        <time>2013-03-18T12:58:20Z</time>
      </trkpt>
      <trkpt lat="46.27409" lon="6.75449">
        <ele>1613.15625</ele>
        <time>2013-03-18T12:58:32Z</time>
      </trkpt>
      <trkpt lat="46.27412" lon="6.75447">
        <ele>1611.3272705078</ele>
        <time>2013-03-18T13:02:30Z</time>
      </trkpt>
      <trkpt lat="46.27409" lon="6.75441">
        <ele>1610.2805175781</ele>
        <time>2013-03-18T13:02:38Z</time>
      </trkpt>
      <trkpt lat="46.27408" lon="6.75432">
        <ele>1607.4377441406</ele>
        <time>2013-03-18T13:03:19Z</time>
      </trkpt>
      <trkpt lat="46.27399" lon="6.75424">
        <ele>1606.681640625</ele>
        <time>2013-03-18T13:03:44Z</time>
      </trkpt>
      <trkpt lat="46.27405" lon="6.75444">
        <ele>1612.7318115234</ele>
        <time>2013-03-18T13:03:56Z</time>
      </trkpt>
      <trkpt lat="46.27406" lon="6.75446">
        <ele>1613.3580322266</ele>
        <time>2013-03-18T13:03:57Z</time>
      </trkpt>
      <trkpt lat="46.27409" lon="6.7545">
        <ele>1613.6303710938</ele>
        <time>2013-03-18T13:04:04Z</time>
      </trkpt>
      <trkpt lat="46.27409" lon="6.7545">
        <ele>1613.486328125</ele>
        <time>2013-03-18T13:04:10Z</time>
      </trkpt>
      <trkpt lat="46.27412" lon="6.75457">
        <ele>1614.8800048828</ele>
        <time>2013-03-18T13:13:00Z</time>
      </trkpt>
      <trkpt lat="46.27407" lon="6.75445">
        <ele>1612.2385253906</ele>
        <time>2013-03-18T13:13:12Z</time>
      </trkpt>
      <trkpt lat="46.27415" lon="6.75467">
        <ele>1617.7043457031</ele>
        <time>2013-03-18T13:16:35Z</time>
      </trkpt>
      <trkpt lat="46.27415" lon="6.75475">
        <ele>1620.2175292969</ele>
        <time>2013-03-18T13:16:52Z</time>
      </trkpt>
      <trkpt lat="46.27416" lon="6.75478">
        <ele>1620.7706298828</ele>
        <time>2013-03-18T13:16:57Z</time>
      </trkpt>
      <trkpt lat="46.27417" lon="6.75478">
        <ele>1620.2386474609</ele>
        <time>2013-03-18T13:17:03Z</time>
      </trkpt>
      <trkpt lat="46.27417" lon="6.75492">
        <ele>1623.6427001953</ele>
        <time>2013-03-18T13:17:26Z</time>
      </trkpt>
      <trkpt lat="46.27417" lon="6.75493">
        <ele>1624.16796875</ele>
        <time>2013-03-18T13:17:32Z</time>
      </trkpt>
      <trkpt lat="46.27419" lon="6.75497">
        <ele>1624.3979492188</ele>
        <time>2013-03-18T13:17:39Z</time>
      </trkpt>
      <trkpt lat="46.2742" lon="6.75508">
        <ele>1626.4558105469</ele>
        <time>2013-03-18T13:17:53Z</time>
      </trkpt>
      <trkpt lat="46.2742" lon="6.7552">
        <ele>1628.5388183594</ele>
        <time>2013-03-18T13:18:12Z</time>
      </trkpt>
      <trkpt lat="46.27418" lon="6.75527">
        <ele>1631.0841064453</ele>
        <time>2013-03-18T13:18:22Z</time>
      </trkpt>
      <trkpt lat="46.27415" lon="6.75529">
        <ele>1632.8968505859</ele>
        <time>2013-03-18T13:18:32Z</time>
      </trkpt>
      <trkpt lat="46.27415" lon="6.75538">
        <ele>1634.0390625</ele>
        <time>2013-03-18T13:18:45Z</time>
      </trkpt>
      <trkpt lat="46.27418" lon="6.75539">
        <ele>1633.10546875</ele>
        <time>2013-03-18T13:19:11Z</time>
      </trkpt>
      <trkpt lat="46.27413" lon="6.75541">
        <ele>1635.2419433594</ele>
        <time>2013-03-18T13:19:29Z</time>
      </trkpt>
      <trkpt lat="46.27411" lon="6.75536">
        <ele>1635.4512939453</ele>
        <time>2013-03-18T13:19:35Z</time>
      </trkpt>
      <trkpt lat="46.27411" lon="6.75536">
        <ele>1635.5397949219</ele>
        <time>2013-03-18T13:19:36Z</time>
      </trkpt>
      <trkpt lat="46.27392" lon="6.75526">
        <ele>1641.4521484375</ele>
        <time>2013-03-18T13:20:23Z</time>
      </trkpt>
      <trkpt lat="46.27391" lon="6.75514">
        <ele>1640.5096435547</ele>
        <time>2013-03-18T13:20:37Z</time>
      </trkpt>
      <trkpt lat="46.27388" lon="6.75511">
        <ele>1641.4328613281</ele>
        <time>2013-03-18T13:20:40Z</time>
      </trkpt>
      <trkpt lat="46.27382" lon="6.75516">
        <ele>1645.3525390625</ele>
        <time>2013-03-18T13:20:48Z</time>
      </trkpt>
      <trkpt lat="46.27382" lon="6.75513">
        <ele>1644.5250244141</ele>
        <time>2013-03-18T13:21:00Z</time>
      </trkpt>
      <trkpt lat="46.27381" lon="6.75515">
        <ele>1645.4300537109</ele>
        <time>2013-03-18T13:21:02Z</time>
      </trkpt>
      <trkpt lat="46.27373" lon="6.75521">
        <ele>1650.6157226562</ele>
        <time>2013-03-18T13:21:08Z</time>
      </trkpt>
      <trkpt lat="46.27374" lon="6.75511">
        <ele>1648.0699462891</ele>
        <time>2013-03-18T13:21:20Z</time>
      </trkpt>
      <trkpt lat="46.2737" lon="6.75514">
        <ele>1650.4478759766</ele>
        <time>2013-03-18T13:21:30Z</time>
      </trkpt>
      <trkpt lat="46.27369" lon="6.75512">
        <ele>1650.3983154297</ele>
        <time>2013-03-18T13:21:32Z</time>
      </trkpt>
      <trkpt lat="46.27368" lon="6.75507">
        <ele>1649.2993164062</ele>
        <time>2013-03-18T13:21:43Z</time>
      </trkpt>
      <trkpt lat="46.27365" lon="6.75515">
        <ele>1653.0599365234</ele>
        <time>2013-03-18T13:22:41Z</time>
      </trkpt>
      <trkpt lat="46.27364" lon="6.75506">
        <ele>1650.7755126953</ele>
        <time>2013-03-18T13:22:51Z</time>
      </trkpt>
      <trkpt lat="46.27359" lon="6.75502">
        <ele>1651.474609375</ele>
        <time>2013-03-18T13:23:07Z</time>
      </trkpt>
      <trkpt lat="46.27353" lon="6.75505">
        <ele>1654.2965087891</ele>
        <time>2013-03-18T13:23:16Z</time>
      </trkpt>
      <trkpt lat="46.27355" lon="6.75505">
        <ele>1653.5406494141</ele>
        <time>2013-03-18T13:23:18Z</time>
      </trkpt>
      <trkpt lat="46.27356" lon="6.75511">
        <ele>1654.8189697266</ele>
        <time>2013-03-18T13:23:28Z</time>
      </trkpt>
      <trkpt lat="46.27353" lon="6.75519">
        <ele>1658.3460693359</ele>
        <time>2013-03-18T13:25:36Z</time>
      </trkpt>
      <trkpt lat="46.27348" lon="6.75515">
        <ele>1658.625</ele>
        <time>2013-03-18T13:25:43Z</time>
      </trkpt>
      <trkpt lat="46.27338" lon="6.75514">
        <ele>1661.0124511719</ele>
        <time>2013-03-18T13:26:22Z</time>
      </trkpt>
      <trkpt lat="46.27334" lon="6.75517">
        <ele>1663.1773681641</ele>
        <time>2013-03-18T13:26:32Z</time>
      </trkpt>
      <trkpt lat="46.27333" lon="6.75517">
        <ele>1663.1636962891</ele>
        <time>2013-03-18T13:26:41Z</time>
      </trkpt>
      <trkpt lat="46.27333" lon="6.75517">
        <ele>1663.3953857422</ele>
        <time>2013-03-18T13:26:49Z</time>
      </trkpt>
      <trkpt lat="46.27329" lon="6.75518">
        <ele>1664.6330566406</ele>
        <time>2013-03-18T13:26:58Z</time>
      </trkpt>
      <trkpt lat="46.27324" lon="6.75517">
        <ele>1665.5102539062</ele>
        <time>2013-03-18T13:27:04Z</time>
      </trkpt>
      <trkpt lat="46.27322" lon="6.75515">
        <ele>1665.6184082031</ele>
        <time>2013-03-18T13:27:10Z</time>
      </trkpt>
      <trkpt lat="46.27321" lon="6.75515">
        <ele>1665.7746582031</ele>
        <time>2013-03-18T13:27:13Z</time>
      </trkpt>
      <trkpt lat="46.27321" lon="6.7552">
        <ele>1667.14453125</ele>
        <time>2013-03-18T13:27:55Z</time>
      </trkpt>
      <trkpt lat="46.27312" lon="6.75532">
        <ele>1672.2874755859</ele>
        <time>2013-03-18T13:29:51Z</time>
      </trkpt>
      <trkpt lat="46.27316" lon="6.75533">
        <ele>1671.8188476562</ele>
        <time>2013-03-18T13:30:10Z</time>
      </trkpt>
      <trkpt lat="46.27322" lon="6.75536">
        <ele>1671.1098632812</ele>
        <time>2013-03-18T13:31:21Z</time>
      </trkpt>
      <trkpt lat="46.27323" lon="6.75541">
        <ele>1671.9630126953</ele>
        <time>2013-03-18T13:31:29Z</time>
      </trkpt>
      <trkpt lat="46.27321" lon="6.75546">
        <ele>1673.8134765625</ele>
        <time>2013-03-18T13:31:35Z</time>
      </trkpt>
      <trkpt lat="46.27321" lon="6.75547">
        <ele>1674.0057373047</ele>
        <time>2013-03-18T13:31:37Z</time>
      </trkpt>
      <trkpt lat="46.27322" lon="6.75551">
        <ele>1674.5825195312</ele>
        <time>2013-03-18T13:31:43Z</time>
      </trkpt>
      <trkpt lat="46.27321" lon="6.75555">
        <ele>1675.9404296875</ele>
        <time>2013-03-18T13:31:52Z</time>
      </trkpt>
      <trkpt lat="46.2732" lon="6.75555">
        <ele>1676.0966796875</ele>
        <time>2013-03-18T13:31:53Z</time>
      </trkpt>
      <trkpt lat="46.27316" lon="6.75553">
        <ele>1676.6854248047</ele>
        <time>2013-03-18T13:31:58Z</time>
      </trkpt>
      <trkpt lat="46.27314" lon="6.75555">
        <ele>1677.6707763672</ele>
        <time>2013-03-18T13:32:05Z</time>
      </trkpt>
      <trkpt lat="46.27311" lon="6.75556">
        <ele>1678.5797119141</ele>
        <time>2013-03-18T13:32:12Z</time>
      </trkpt>
      <trkpt lat="46.2731" lon="6.75556">
        <ele>1679.0161132812</ele>
        <time>2013-03-18T13:32:14Z</time>
      </trkpt>
      <trkpt lat="46.27309" lon="6.75562">
        <ele>1680.3983154297</ele>
        <time>2013-03-18T13:32:19Z</time>
      </trkpt>
      <trkpt lat="46.27311" lon="6.75567">
        <ele>1681.1265869141</ele>
        <time>2013-03-18T13:32:27Z</time>
      </trkpt>
      <trkpt lat="46.27315" lon="6.75573">
        <ele>1681.7474365234</ele>
        <time>2013-03-18T13:32:43Z</time>
      </trkpt>
      <trkpt lat="46.27313" lon="6.75574">
        <ele>1682.1936035156</ele>
        <time>2013-03-18T13:32:48Z</time>
      </trkpt>
      <trkpt lat="46.2731" lon="6.75573">
        <ele>1682.8402099609</ele>
        <time>2013-03-18T13:32:56Z</time>
      </trkpt>
      <trkpt lat="46.27308" lon="6.75573">
        <ele>1683.4167480469</ele>
        <time>2013-03-18T13:33:03Z</time>
      </trkpt>
      <trkpt lat="46.27306" lon="6.75576">
        <ele>1684.3270263672</ele>
        <time>2013-03-18T13:33:10Z</time>
      </trkpt>
      <trkpt lat="46.27305" lon="6.75576">
        <ele>1684.5006103516</ele>
        <time>2013-03-18T13:33:13Z</time>
      </trkpt>
      <trkpt lat="46.27301" lon="6.75577">
        <ele>1685.9400634766</ele>
        <time>2013-03-18T13:33:42Z</time>
      </trkpt>
      <trkpt lat="46.27298" lon="6.75577">
        <ele>1686.599609375</ele>
        <time>2013-03-18T13:33:51Z</time>
      </trkpt>
      <trkpt lat="46.27295" lon="6.75577">
        <ele>1687.3331298828</ele>
        <time>2013-03-18T13:33:56Z</time>
      </trkpt>
      <trkpt lat="46.27293" lon="6.7558">
        <ele>1688.3194580078</ele>
        <time>2013-03-18T13:34:02Z</time>
      </trkpt>
      <trkpt lat="46.27296" lon="6.75589">
        <ele>1689.5889892578</ele>
        <time>2013-03-18T13:34:19Z</time>
      </trkpt>
      <trkpt lat="46.27294" lon="6.75595">
        <ele>1691.4222412109</ele>
        <time>2013-03-18T13:34:46Z</time>
      </trkpt>
      <trkpt lat="46.2729" lon="6.75589">
        <ele>1691.2060546875</ele>
        <time>2013-03-18T13:36:05Z</time>
      </trkpt>
      <trkpt lat="46.27286" lon="6.75587">
        <ele>1691.6385498047</ele>
        <time>2013-03-18T13:39:13Z</time>
      </trkpt>
      <trkpt lat="46.27283" lon="6.75589">
        <ele>1692.8779296875</ele>
        <time>2013-03-18T13:39:29Z</time>
      </trkpt>
      <trkpt lat="46.27282" lon="6.7559">
        <ele>1693.5336914062</ele>
        <time>2013-03-18T13:39:34Z</time>
      </trkpt>
      <trkpt lat="46.27276" lon="6.75591">
        <ele>1694.8922119141</ele>
        <time>2013-03-18T13:39:45Z</time>
      </trkpt>
      <trkpt lat="46.27271" lon="6.75591">
        <ele>1695.4429931641</ele>
        <time>2013-03-18T13:39:58Z</time>
      </trkpt>
      <trkpt lat="46.27264" lon="6.7559">
        <ele>1696.0531005859</ele>
        <time>2013-03-18T13:40:23Z</time>
      </trkpt>
      <trkpt lat="46.27261" lon="6.7559">
        <ele>1696.2969970703</ele>
        <time>2013-03-18T13:40:29Z</time>
      </trkpt>
      <trkpt lat="46.27259" lon="6.7559">
        <ele>1696.5760498047</ele>
        <time>2013-03-18T13:40:36Z</time>
      </trkpt>
      <trkpt lat="46.27256" lon="6.75591">
        <ele>1697.1046142578</ele>
        <time>2013-03-18T13:40:47Z</time>
      </trkpt>
      <trkpt lat="46.27254" lon="6.7559">
        <ele>1697.3140869141</ele>
        <time>2013-03-18T13:40:53Z</time>
      </trkpt>
      <trkpt lat="46.2725" lon="6.7559">
        <ele>1697.6033935547</ele>
        <time>2013-03-18T13:41:05Z</time>
      </trkpt>
      <trkpt lat="46.27246" lon="6.75591">
        <ele>1698.2316894531</ele>
        <time>2013-03-18T13:41:12Z</time>
      </trkpt>
      <trkpt lat="46.27245" lon="6.75589">
        <ele>1697.9467773438</ele>
        <time>2013-03-18T13:41:19Z</time>
      </trkpt>
      <trkpt lat="46.27242" lon="6.75588">
        <ele>1697.9879150391</ele>
        <time>2013-03-18T13:41:28Z</time>
      </trkpt>
      <trkpt lat="46.27239" lon="6.75587">
        <ele>1698.0119628906</ele>
        <time>2013-03-18T13:41:33Z</time>
      </trkpt>
      <trkpt lat="46.27237" lon="6.75586">
        <ele>1698.0720214844</ele>
        <time>2013-03-18T13:41:41Z</time>
      </trkpt>
      <trkpt lat="46.27234" lon="6.75585">
        <ele>1698.11328125</ele>
        <time>2013-03-18T13:41:54Z</time>
      </trkpt>
      <trkpt lat="46.27234" lon="6.75584">
        <ele>1697.8848876953</ele>
        <time>2013-03-18T13:42:10Z</time>
      </trkpt>
      <trkpt lat="46.27232" lon="6.75586">
        <ele>1698.5183105469</ele>
        <time>2013-03-18T13:42:22Z</time>
      </trkpt>
      <trkpt lat="46.27234" lon="6.75591">
        <ele>1699.7595214844</ele>
        <time>2013-03-18T13:42:31Z</time>
      </trkpt>
      <trkpt lat="46.27235" lon="6.75595">
        <ele>1700.4890136719</ele>
        <time>2013-03-18T13:42:41Z</time>
      </trkpt>
      <trkpt lat="46.27236" lon="6.75597">
        <ele>1700.9061279297</ele>
        <time>2013-03-18T13:42:48Z</time>
      </trkpt>
      <trkpt lat="46.2724" lon="6.75602">
        <ele>1701.9481201172</ele>
        <time>2013-03-18T13:43:02Z</time>
      </trkpt>
      <trkpt lat="46.27242" lon="6.75606">
        <ele>1702.46484375</ele>
        <time>2013-03-18T13:43:19Z</time>
      </trkpt>
      <trkpt lat="46.27244" lon="6.75609">
        <ele>1703.0450439453</ele>
        <time>2013-03-18T13:43:24Z</time>
      </trkpt>
      <trkpt lat="46.27247" lon="6.75617">
        <ele>1704.8056640625</ele>
        <time>2013-03-18T13:43:45Z</time>
      </trkpt>
      <trkpt lat="46.27251" lon="6.75622">
        <ele>1705.6339111328</ele>
        <time>2013-03-18T13:43:53Z</time>
      </trkpt>
      <trkpt lat="46.27253" lon="6.75627">
        <ele>1706.5386962891</ele>
        <time>2013-03-18T13:44:04Z</time>
      </trkpt>
      <trkpt lat="46.27254" lon="6.75633">
        <ele>1707.8370361328</ele>
        <time>2013-03-18T13:44:11Z</time>
      </trkpt>
      <trkpt lat="46.27256" lon="6.75635">
        <ele>1708.0390625</ele>
        <time>2013-03-18T13:44:15Z</time>
      </trkpt>
      <trkpt lat="46.27258" lon="6.7564">
        <ele>1708.9379882812</ele>
        <time>2013-03-18T13:44:22Z</time>
      </trkpt>
      <trkpt lat="46.27259" lon="6.75646">
        <ele>1710.0930175781</ele>
        <time>2013-03-18T13:44:30Z</time>
      </trkpt>
      <trkpt lat="46.2726" lon="6.75655">
        <ele>1711.9371337891</ele>
        <time>2013-03-18T13:44:40Z</time>
      </trkpt>
      <trkpt lat="46.27261" lon="6.75657">
        <ele>1712.2923583984</ele>
        <time>2013-03-18T13:44:43Z</time>
      </trkpt>
      <trkpt lat="46.27262" lon="6.7566">
        <ele>1712.7829589844</ele>
        <time>2013-03-18T13:44:46Z</time>
      </trkpt>
      <trkpt lat="46.27259" lon="6.75663">
        <ele>1714.068359375</ele>
        <time>2013-03-18T13:44:56Z</time>
      </trkpt>
      <trkpt lat="46.27262" lon="6.75606">
        <ele>1700.1632080078</ele>
        <time>2013-03-18T14:49:31Z</time>
      </trkpt>
      <trkpt lat="46.27262" lon="6.75606">
        <ele>1700.2158203125</ele>
        <time>2013-03-18T14:49:43Z</time>
      </trkpt>
      <trkpt lat="46.27258" lon="6.75615">
        <ele>1702.7373046875</ele>
        <time>2013-03-18T14:49:55Z</time>
      </trkpt>
      <trkpt lat="46.27256" lon="6.75619">
        <ele>1704.0803222656</ele>
        <time>2013-03-18T14:50:01Z</time>
      </trkpt>
      <trkpt lat="46.27255" lon="6.7562">
        <ele>1704.5014648438</ele>
        <time>2013-03-18T14:50:03Z</time>
      </trkpt>
      <trkpt lat="46.27253" lon="6.75627">
        <ele>1706.4796142578</ele>
        <time>2013-03-18T14:50:10Z</time>
      </trkpt>
      <trkpt lat="46.27251" lon="6.75629">
        <ele>1707.2712402344</ele>
        <time>2013-03-18T14:50:17Z</time>
      </trkpt>
      <trkpt lat="46.27249" lon="6.75625">
        <ele>1706.6896972656</ele>
        <time>2013-03-18T14:50:25Z</time>
      </trkpt>
      <trkpt lat="46.27251" lon="6.75624">
        <ele>1706.0775146484</ele>
        <time>2013-03-18T14:50:59Z</time>
      </trkpt>
      <trkpt lat="46.27254" lon="6.7562">
        <ele>1704.5500488281</ele>
        <time>2013-03-18T14:51:12Z</time>
      </trkpt>
      <trkpt lat="46.27258" lon="6.75619">
        <ele>1703.7380371094</ele>
        <time>2013-03-18T14:51:17Z</time>
      </trkpt>
      <trkpt lat="46.27259" lon="6.75617">
        <ele>1702.9439697266</ele>
        <time>2013-03-18T14:51:23Z</time>
      </trkpt>
      <trkpt lat="46.27254" lon="6.75618">
        <ele>1704.1623535156</ele>
        <time>2013-03-18T14:51:39Z</time>
      </trkpt>
      <trkpt lat="46.27253" lon="6.75619">
        <ele>1704.4915771484</ele>
        <time>2013-03-18T14:51:42Z</time>
      </trkpt>
      <trkpt lat="46.27252" lon="6.7562">
        <ele>1704.8466796875</ele>
        <time>2013-03-18T14:51:46Z</time>
      </trkpt>
      <trkpt lat="46.27256" lon="6.75617">
        <ele>1703.6135253906</ele>
        <time>2013-03-18T14:51:56Z</time>
      </trkpt>
      <trkpt lat="46.27258" lon="6.75604">
        <ele>1700.0391845703</ele>
        <time>2013-03-18T14:52:01Z</time>
      </trkpt>
      <trkpt lat="46.2726" lon="6.756">
        <ele>1698.8818359375</ele>
        <time>2013-03-18T14:52:02Z</time>
      </trkpt>
      <trkpt lat="46.27271" lon="6.75598">
        <ele>1697.0594482422</ele>
        <time>2013-03-18T14:52:07Z</time>
      </trkpt>
      <trkpt lat="46.27273" lon="6.75597">
        <ele>1696.50390625</ele>
        <time>2013-03-18T14:52:16Z</time>
      </trkpt>
      <trkpt lat="46.27277" lon="6.75593">
        <ele>1695.1354980469</ele>
        <time>2013-03-18T14:52:28Z</time>
      </trkpt>
      <trkpt lat="46.27277" lon="6.75593">
        <ele>1695.2849121094</ele>
        <time>2013-03-18T14:52:30Z</time>
      </trkpt>
      <trkpt lat="46.27275" lon="6.75593">
        <ele>1695.4467773438</ele>
        <time>2013-03-18T14:52:32Z</time>
      </trkpt>
      <trkpt lat="46.27283" lon="6.75593">
        <ele>1693.7774658203</ele>
        <time>2013-03-18T14:52:36Z</time>
      </trkpt>
      <trkpt lat="46.27286" lon="6.75594">
        <ele>1693.0908203125</ele>
        <time>2013-03-18T14:52:45Z</time>
      </trkpt>
      <trkpt lat="46.27287" lon="6.75592">
        <ele>1692.6204833984</ele>
        <time>2013-03-18T14:53:48Z</time>
      </trkpt>
      <trkpt lat="46.27293" lon="6.75592">
        <ele>1691.1888427734</ele>
        <time>2013-03-18T14:53:52Z</time>
      </trkpt>
      <trkpt lat="46.27299" lon="6.75594">
        <ele>1689.9219970703</ele>
        <time>2013-03-18T14:54:03Z</time>
      </trkpt>
      <trkpt lat="46.27313" lon="6.75599">
        <ele>1687.7573242188</ele>
        <time>2013-03-18T14:54:08Z</time>
      </trkpt>
      <trkpt lat="46.2732" lon="6.75601">
        <ele>1686.7272949219</ele>
        <time>2013-03-18T14:54:13Z</time>
      </trkpt>
      <trkpt lat="46.27323" lon="6.75602">
        <ele>1686.2329101562</ele>
        <time>2013-03-18T14:54:20Z</time>
      </trkpt>
      <trkpt lat="46.27322" lon="6.75603">
        <ele>1686.5831298828</ele>
        <time>2013-03-18T14:54:22Z</time>
      </trkpt>
      <trkpt lat="46.27321" lon="6.75603">
        <ele>1686.7583007812</ele>
        <time>2013-03-18T14:54:25Z</time>
      </trkpt>
      <trkpt lat="46.27324" lon="6.75604">
        <ele>1686.5419921875</ele>
        <time>2013-03-18T14:54:31Z</time>
      </trkpt>
      <trkpt lat="46.27324" lon="6.75602">
        <ele>1685.9548339844</ele>
        <time>2013-03-18T14:54:37Z</time>
      </trkpt>
      <trkpt lat="46.27331" lon="6.75603">
        <ele>1684.791015625</ele>
        <time>2013-03-18T14:54:43Z</time>
      </trkpt>
      <trkpt lat="46.27334" lon="6.75604">
        <ele>1684.2839355469</ele>
        <time>2013-03-18T14:54:45Z</time>
      </trkpt>
      <trkpt lat="46.27335" lon="6.75602">
        <ele>1683.7071533203</ele>
        <time>2013-03-18T14:54:58Z</time>
      </trkpt>
      <trkpt lat="46.27335" lon="6.75604">
        <ele>1683.9338378906</ele>
        <time>2013-03-18T14:55:03Z</time>
      </trkpt>
      <trkpt lat="46.27338" lon="6.75602">
        <ele>1682.2961425781</ele>
        <time>2013-03-18T14:55:09Z</time>
      </trkpt>
      <trkpt lat="46.27341" lon="6.75601">
        <ele>1681.2456054688</ele>
        <time>2013-03-18T14:55:20Z</time>
      </trkpt>
      <trkpt lat="46.27342" lon="6.75599">
        <ele>1680.4731445312</ele>
        <time>2013-03-18T14:55:24Z</time>
      </trkpt>
      <trkpt lat="46.27344" lon="6.75592">
        <ele>1678.4132080078</ele>
        <time>2013-03-18T14:55:29Z</time>
      </trkpt>
      <trkpt lat="46.27347" lon="6.75589">
        <ele>1676.7239990234</ele>
        <time>2013-03-18T14:55:50Z</time>
      </trkpt>
      <trkpt lat="46.27354" lon="6.7559">
        <ele>1674.55078125</ele>
        <time>2013-03-18T14:56:30Z</time>
      </trkpt>
      <trkpt lat="46.27355" lon="6.7559">
        <ele>1674.3138427734</ele>
        <time>2013-03-18T14:56:36Z</time>
      </trkpt>
      <trkpt lat="46.27356" lon="6.75587">
        <ele>1673.232421875</ele>
        <time>2013-03-18T14:56:39Z</time>
      </trkpt>
      <trkpt lat="46.27357" lon="6.75576">
        <ele>1670.6350097656</ele>
        <time>2013-03-18T14:56:44Z</time>
      </trkpt>
      <trkpt lat="46.27357" lon="6.75563">
        <ele>1667.8439941406</ele>
        <time>2013-03-18T14:57:01Z</time>
      </trkpt>
      <trkpt lat="46.27358" lon="6.75556">
        <ele>1665.81640625</ele>
        <time>2013-03-18T14:57:06Z</time>
      </trkpt>
      <trkpt lat="46.2736" lon="6.75553">
        <ele>1664.7229003906</ele>
        <time>2013-03-18T14:57:09Z</time>
      </trkpt>
      <trkpt lat="46.2736" lon="6.75547">
        <ele>1663.4543457031</ele>
        <time>2013-03-18T14:57:15Z</time>
      </trkpt>
      <trkpt lat="46.27361" lon="6.75541">
        <ele>1661.974609375</ele>
        <time>2013-03-18T14:57:32Z</time>
      </trkpt>
      <trkpt lat="46.27361" lon="6.75537">
        <ele>1661.1884765625</ele>
        <time>2013-03-18T14:57:34Z</time>
      </trkpt>
      <trkpt lat="46.27362" lon="6.75534">
        <ele>1659.6750488281</ele>
        <time>2013-03-18T14:57:41Z</time>
      </trkpt>
      <trkpt lat="46.27362" lon="6.75527">
        <ele>1658.5158691406</ele>
        <time>2013-03-18T14:57:48Z</time>
      </trkpt>
      <trkpt lat="46.27365" lon="6.75525">
        <ele>1655.7801513672</ele>
        <time>2013-03-18T14:57:55Z</time>
      </trkpt>
      <trkpt lat="46.27369" lon="6.75526">
        <ele>1653.904296875</ele>
        <time>2013-03-18T14:57:58Z</time>
      </trkpt>
      <trkpt lat="46.27373" lon="6.75519">
        <ele>1650.3372802734</ele>
        <time>2013-03-18T14:58:02Z</time>
      </trkpt>
      <trkpt lat="46.27374" lon="6.75518">
        <ele>1649.5386962891</ele>
        <time>2013-03-18T14:58:05Z</time>
      </trkpt>
      <trkpt lat="46.27376" lon="6.75519">
        <ele>1648.6489257812</ele>
        <time>2013-03-18T14:58:07Z</time>
      </trkpt>
      <trkpt lat="46.27383" lon="6.75522">
        <ele>1645.2850341797</ele>
        <time>2013-03-18T14:58:12Z</time>
      </trkpt>
      <trkpt lat="46.27392" lon="6.75533">
        <ele>1642.2238769531</ele>
        <time>2013-03-18T14:58:16Z</time>
      </trkpt>
      <trkpt lat="46.27407" lon="6.75549">
        <ele>1638.6916503906</ele>
        <time>2013-03-18T14:58:21Z</time>
      </trkpt>
      <trkpt lat="46.27405" lon="6.7555">
        <ele>1639.4392089844</ele>
        <time>2013-03-18T14:58:24Z</time>
      </trkpt>
      <trkpt lat="46.27419" lon="6.75556">
        <ele>1634.4975585938</ele>
        <time>2013-03-18T14:58:32Z</time>
      </trkpt>
      <trkpt lat="46.27422" lon="6.75557">
        <ele>1633.0300292969</ele>
        <time>2013-03-18T14:58:35Z</time>
      </trkpt>
      <trkpt lat="46.27418" lon="6.75562">
        <ele>1635.5931396484</ele>
        <time>2013-03-18T14:58:43Z</time>
      </trkpt>
      <trkpt lat="46.27418" lon="6.75564">
        <ele>1635.9228515625</ele>
        <time>2013-03-18T14:58:56Z</time>
      </trkpt>
      <trkpt lat="46.27422" lon="6.75557">
        <ele>1633.2493896484</ele>
        <time>2013-03-18T14:59:01Z</time>
      </trkpt>
      <trkpt lat="46.27427" lon="6.75553">
        <ele>1629.7476806641</ele>
        <time>2013-03-18T14:59:08Z</time>
      </trkpt>
      <trkpt lat="46.27428" lon="6.75553">
        <ele>1628.8914794922</ele>
        <time>2013-03-18T14:59:14Z</time>
      </trkpt>
      <trkpt lat="46.27428" lon="6.75554">
        <ele>1629.5288085938</ele>
        <time>2013-03-18T14:59:23Z</time>
      </trkpt>
      <trkpt lat="46.27428" lon="6.75554">
        <ele>1629.5068359375</ele>
        <time>2013-03-18T14:59:24Z</time>
      </trkpt>
      <trkpt lat="46.2743" lon="6.75553">
        <ele>1628.2250976562</ele>
        <time>2013-03-18T14:59:30Z</time>
      </trkpt>
      <trkpt lat="46.27431" lon="6.75555">
        <ele>1627.8774414062</ele>
        <time>2013-03-18T14:59:34Z</time>
      </trkpt>
      <trkpt lat="46.27431" lon="6.7556">
        <ele>1627.5301513672</ele>
        <time>2013-03-18T14:59:44Z</time>
      </trkpt>
      <trkpt lat="46.27434" lon="6.75571">
        <ele>1626.2272949219</ele>
        <time>2013-03-18T15:00:54Z</time>
      </trkpt>
      <trkpt lat="46.27433" lon="6.75574">
        <ele>1626.4926757812</ele>
        <time>2013-03-18T15:00:57Z</time>
      </trkpt>
      <trkpt lat="46.2743" lon="6.75578">
        <ele>1628.7989501953</ele>
        <time>2013-03-18T15:01:03Z</time>
      </trkpt>
      <trkpt lat="46.2743" lon="6.75578">
        <ele>1629.0562744141</ele>
        <time>2013-03-18T15:01:04Z</time>
      </trkpt>
      <trkpt lat="46.27429" lon="6.75583">
        <ele>1629.6799316406</ele>
        <time>2013-03-18T15:01:09Z</time>
      </trkpt>
      <trkpt lat="46.2743" lon="6.75586">
        <ele>1629.0994873047</ele>
        <time>2013-03-18T15:01:11Z</time>
      </trkpt>
      <trkpt lat="46.27429" lon="6.75594">
        <ele>1629.3918457031</ele>
        <time>2013-03-18T15:01:16Z</time>
      </trkpt>
      <trkpt lat="46.27428" lon="6.75596">
        <ele>1629.9077148438</ele>
        <time>2013-03-18T15:01:17Z</time>
      </trkpt>
      <trkpt lat="46.27425" lon="6.75599">
        <ele>1631.8885498047</ele>
        <time>2013-03-18T15:01:22Z</time>
      </trkpt>
      <trkpt lat="46.27426" lon="6.756">
        <ele>1631.2972412109</ele>
        <time>2013-03-18T15:01:33Z</time>
      </trkpt>
      <trkpt lat="46.27425" lon="6.75601">
        <ele>1632.4639892578</ele>
        <time>2013-03-18T15:01:38Z</time>
      </trkpt>
      <trkpt lat="46.27419" lon="6.75607">
        <ele>1637.3525390625</ele>
        <time>2013-03-18T15:01:44Z</time>
      </trkpt>
      <trkpt lat="46.27419" lon="6.7561">
        <ele>1637.4293212891</ele>
        <time>2013-03-18T15:01:47Z</time>
      </trkpt>
      <trkpt lat="46.27424" lon="6.75606">
        <ele>1632.7454833984</ele>
        <time>2013-03-18T15:01:55Z</time>
      </trkpt>
      <trkpt lat="46.27425" lon="6.75608">
        <ele>1631.8078613281</ele>
        <time>2013-03-18T15:02:19Z</time>
      </trkpt>
      <trkpt lat="46.2743" lon="6.75624">
        <ele>1629.3288574219</ele>
        <time>2013-03-18T15:02:25Z</time>
      </trkpt>
      <trkpt lat="46.27439" lon="6.75618">
        <ele>1620.9299316406</ele>
        <time>2013-03-18T15:02:28Z</time>
      </trkpt>
      <trkpt lat="46.27459" lon="6.75618">
        <ele>1606.7166748047</ele>
        <time>2013-03-18T15:02:32Z</time>
      </trkpt>
      <trkpt lat="46.27462" lon="6.75609">
        <ele>1604.6148681641</ele>
        <time>2013-03-18T15:02:35Z</time>
      </trkpt>
      <trkpt lat="46.27476" lon="6.75615">
        <ele>1594.9458007812</ele>
        <time>2013-03-18T15:02:38Z</time>
      </trkpt>
      <trkpt lat="46.27487" lon="6.7562">
        <ele>1586.7154541016</ele>
        <time>2013-03-18T15:02:42Z</time>
      </trkpt>
      <trkpt lat="46.27487" lon="6.75617">
        <ele>1586.9891357422</ele>
        <time>2013-03-18T15:02:45Z</time>
      </trkpt>
      <trkpt lat="46.27479" lon="6.75613">
        <ele>1592.7194824219</ele>
        <time>2013-03-18T15:02:52Z</time>
      </trkpt>
      <trkpt lat="46.27478" lon="6.75612">
        <ele>1593.6002197266</ele>
        <time>2013-03-18T15:03:07Z</time>
      </trkpt>
      <trkpt lat="46.2749" lon="6.75609">
        <ele>1584.5883789062</ele>
        <time>2013-03-18T15:03:12Z</time>
      </trkpt>
      <trkpt lat="46.27504" lon="6.75604">
        <ele>1575.0977783203</ele>
        <time>2013-03-18T15:03:15Z</time>
      </trkpt>
      <trkpt lat="46.27519" lon="6.75604">
        <ele>1564.7073974609</ele>
        <time>2013-03-18T15:03:18Z</time>
      </trkpt>
      <trkpt lat="46.27535" lon="6.75594">
        <ele>1554.3464355469</ele>
        <time>2013-03-18T15:03:21Z</time>
      </trkpt>
      <trkpt lat="46.27552" lon="6.75596">
        <ele>1543.4455566406</ele>
        <time>2013-03-18T15:03:24Z</time>
      </trkpt>
      <trkpt lat="46.27556" lon="6.75587">
        <ele>1540.1668701172</ele>
        <time>2013-03-18T15:03:25Z</time>
      </trkpt>
      <trkpt lat="46.27555" lon="6.75576">
        <ele>1540.3267822266</ele>
        <time>2013-03-18T15:03:27Z</time>
      </trkpt>
      <trkpt lat="46.27566" lon="6.75583">
        <ele>1536.3114013672</ele>
        <time>2013-03-18T15:03:31Z</time>
      </trkpt>
      <trkpt lat="46.27571" lon="6.75576">
        <ele>1533.9448242188</ele>
        <time>2013-03-18T15:03:35Z</time>
      </trkpt>
      <trkpt lat="46.27567" lon="6.75575">
        <ele>1535.662109375</ele>
        <time>2013-03-18T15:03:42Z</time>
      </trkpt>
      <trkpt lat="46.27565" lon="6.75577">
        <ele>1536.2912597656</ele>
        <time>2013-03-18T15:03:52Z</time>
      </trkpt>
      <trkpt lat="46.27561" lon="6.75575">
        <ele>1537.9940185547</ele>
        <time>2013-03-18T15:04:30Z</time>
      </trkpt>
      <trkpt lat="46.27562" lon="6.75577">
        <ele>1537.5931396484</ele>
        <time>2013-03-18T15:05:01Z</time>
      </trkpt>
      <trkpt lat="46.27561" lon="6.75572">
        <ele>1537.8078613281</ele>
        <time>2013-03-18T15:05:04Z</time>
      </trkpt>
      <trkpt lat="46.27567" lon="6.75554">
        <ele>1534.9071044922</ele>
        <time>2013-03-18T15:05:10Z</time>
      </trkpt>
      <trkpt lat="46.27577" lon="6.75544">
        <ele>1530.4910888672</ele>
        <time>2013-03-18T15:05:14Z</time>
      </trkpt>
      <trkpt lat="46.27604" lon="6.75552">
        <ele>1516.8507080078</ele>
        <time>2013-03-18T15:05:19Z</time>
      </trkpt>
      <trkpt lat="46.27617" lon="6.7556">
        <ele>1510.0606689453</ele>
        <time>2013-03-18T15:05:22Z</time>
      </trkpt>
      <trkpt lat="46.27626" lon="6.75555">
        <ele>1505.0979003906</ele>
        <time>2013-03-18T15:05:26Z</time>
      </trkpt>
      <trkpt lat="46.27629" lon="6.7554">
        <ele>1502.3321533203</ele>
        <time>2013-03-18T15:05:30Z</time>
      </trkpt>
      <trkpt lat="46.27638" lon="6.75536">
        <ele>1497.8243408203</ele>
        <time>2013-03-18T15:05:34Z</time>
      </trkpt>
      <trkpt lat="46.27655" lon="6.7553">
        <ele>1490.3204345703</ele>
        <time>2013-03-18T15:05:38Z</time>
      </trkpt>
      <trkpt lat="46.27654" lon="6.75534">
        <ele>1491.0289306641</ele>
        <time>2013-03-18T15:05:39Z</time>
      </trkpt>
      <trkpt lat="46.27673" lon="6.75544">
        <ele>1482.8740234375</ele>
        <time>2013-03-18T15:06:02Z</time>
      </trkpt>
      <trkpt lat="46.27674" lon="6.75546">
        <ele>1482.4664306641</ele>
        <time>2013-03-18T15:06:04Z</time>
      </trkpt>
      <trkpt lat="46.27692" lon="6.75558">
        <ele>1474.1730957031</ele>
        <time>2013-03-18T15:06:09Z</time>
      </trkpt>
      <trkpt lat="46.27707" lon="6.75568">
        <ele>1469.1870117188</ele>
        <time>2013-03-18T15:06:13Z</time>
      </trkpt>
      <trkpt lat="46.27722" lon="6.7557">
        <ele>1463.6743164062</ele>
        <time>2013-03-18T15:06:16Z</time>
      </trkpt>
      <trkpt lat="46.27747" lon="6.75585">
        <ele>1457.2227783203</ele>
        <time>2013-03-18T15:06:20Z</time>
      </trkpt>
      <trkpt lat="46.27752" lon="6.75583">
        <ele>1455.3070068359</ele>
        <time>2013-03-18T15:06:21Z</time>
      </trkpt>
      <trkpt lat="46.27762" lon="6.75583">
        <ele>1450.7138671875</ele>
        <time>2013-03-18T15:06:25Z</time>
      </trkpt>
      <trkpt lat="46.2776" lon="6.75585">
        <ele>1451.6848144531</ele>
        <time>2013-03-18T15:06:32Z</time>
      </trkpt>
      <trkpt lat="46.27757" lon="6.75583">
        <ele>1452.8322753906</ele>
        <time>2013-03-18T15:07:34Z</time>
      </trkpt>
      <trkpt lat="46.27757" lon="6.75582">
        <ele>1452.7100830078</ele>
        <time>2013-03-18T15:07:46Z</time>
      </trkpt>
      <trkpt lat="46.27761" lon="6.75581">
        <ele>1450.8746337891</ele>
        <time>2013-03-18T15:08:03Z</time>
      </trkpt>
      <trkpt lat="46.27768" lon="6.75576">
        <ele>1447.6645507812</ele>
        <time>2013-03-18T15:08:14Z</time>
      </trkpt>
      <trkpt lat="46.2777" lon="6.75579">
        <ele>1446.8951416016</ele>
        <time>2013-03-18T15:08:23Z</time>
      </trkpt>
      <trkpt lat="46.27777" lon="6.75587">
        <ele>1444.7252197266</ele>
        <time>2013-03-18T15:08:27Z</time>
      </trkpt>
      <trkpt lat="46.27794" lon="6.75593">
        <ele>1439.2913818359</ele>
        <time>2013-03-18T15:08:31Z</time>
      </trkpt>
      <trkpt lat="46.27817" lon="6.75592">
        <ele>1430.3165283203</ele>
        <time>2013-03-18T15:08:36Z</time>
      </trkpt>
      <trkpt lat="46.27837" lon="6.75593">
        <ele>1423.3787841797</ele>
        <time>2013-03-18T15:08:40Z</time>
      </trkpt>
      <trkpt lat="46.27869" lon="6.75602">
        <ele>1416.2543945312</ele>
        <time>2013-03-18T15:08:45Z</time>
      </trkpt>
      <trkpt lat="46.27892" lon="6.75616">
        <ele>1408.4411621094</ele>
        <time>2013-03-18T15:08:49Z</time>
      </trkpt>
      <trkpt lat="46.2791" lon="6.75635">
        <ele>1401.8253173828</ele>
        <time>2013-03-18T15:08:53Z</time>
      </trkpt>
      <trkpt lat="46.27932" lon="6.75639">
        <ele>1396.3432617188</ele>
        <time>2013-03-18T15:08:58Z</time>
      </trkpt>
      <trkpt lat="46.27933" lon="6.75635">
        <ele>1396.2570800781</ele>
        <time>2013-03-18T15:09:00Z</time>
      </trkpt>
      <trkpt lat="46.27937" lon="6.75634">
        <ele>1395.5395507812</ele>
        <time>2013-03-18T15:09:20Z</time>
      </trkpt>
      <trkpt lat="46.27933" lon="6.75634">
        <ele>1396.2279052734</ele>
        <time>2013-03-18T15:09:31Z</time>
      </trkpt>
      <trkpt lat="46.27933" lon="6.75634">
        <ele>1396.2124023438</ele>
        <time>2013-03-18T15:09:39Z</time>
      </trkpt>
      <trkpt lat="46.27948" lon="6.7564">
        <ele>1393.5063476562</ele>
        <time>2013-03-18T15:09:44Z</time>
      </trkpt>
      <trkpt lat="46.27972" lon="6.7565">
        <ele>1391.6572265625</ele>
        <time>2013-03-18T15:09:50Z</time>
      </trkpt>
      <trkpt lat="46.2798" lon="6.75655">
        <ele>1390.6492919922</ele>
        <time>2013-03-18T15:09:52Z</time>
      </trkpt>
      <trkpt lat="46.27988" lon="6.7566">
        <ele>1389.6535644531</ele>
        <time>2013-03-18T15:09:54Z</time>
      </trkpt>
      <trkpt lat="46.27992" lon="6.75665">
        <ele>1389.4544677734</ele>
        <time>2013-03-18T15:09:58Z</time>
      </trkpt>
      <trkpt lat="46.27993" lon="6.75666">
        <ele>1389.4201660156</ele>
        <time>2013-03-18T15:10:07Z</time>
      </trkpt>
      <trkpt lat="46.27998" lon="6.75673">
        <ele>1389.6484375</ele>
        <time>2013-03-18T15:10:12Z</time>
      </trkpt>
      <trkpt lat="46.28008" lon="6.75683">
        <ele>1388.0324707031</ele>
        <time>2013-03-18T15:10:15Z</time>
      </trkpt>
      <trkpt lat="46.28033" lon="6.75694">
        <ele>1380.3181152344</ele>
        <time>2013-03-18T15:10:19Z</time>
      </trkpt>
      <trkpt lat="46.28042" lon="6.75695">
        <ele>1375.8294677734</ele>
        <time>2013-03-18T15:10:21Z</time>
      </trkpt>
      <trkpt lat="46.28049" lon="6.75686">
        <ele>1371.0533447266</ele>
        <time>2013-03-18T15:10:25Z</time>
      </trkpt>
      <trkpt lat="46.28064" lon="6.7569">
        <ele>1365.9068603516</ele>
        <time>2013-03-18T15:10:28Z</time>
      </trkpt>
      <trkpt lat="46.28064" lon="6.75698">
        <ele>1366.5310058594</ele>
        <time>2013-03-18T15:10:31Z</time>
      </trkpt>
      <trkpt lat="46.28067" lon="6.75698">
        <ele>1365.4289550781</ele>
        <time>2013-03-18T15:10:42Z</time>
      </trkpt>
      <trkpt lat="46.28067" lon="6.75699">
        <ele>1365.6486816406</ele>
        <time>2013-03-18T15:10:45Z</time>
      </trkpt>
      <trkpt lat="46.28067" lon="6.75701">
        <ele>1365.7860107422</ele>
        <time>2013-03-18T15:10:48Z</time>
      </trkpt>
      <trkpt lat="46.28063" lon="6.75692">
        <ele>1366.2570800781</ele>
        <time>2013-03-18T15:10:52Z</time>
      </trkpt>
      <trkpt lat="46.28063" lon="6.7569">
        <ele>1366.0510253906</ele>
        <time>2013-03-18T15:10:54Z</time>
      </trkpt>
      <trkpt lat="46.28064" lon="6.75683">
        <ele>1365.1550292969</ele>
        <time>2013-03-18T15:11:02Z</time>
      </trkpt>
      <trkpt lat="46.28064" lon="6.7568">
        <ele>1364.5473632812</ele>
        <time>2013-03-18T15:11:11Z</time>
      </trkpt>
      <trkpt lat="46.28065" lon="6.75679">
        <ele>1364.2692871094</ele>
        <time>2013-03-18T15:11:13Z</time>
      </trkpt>
      <trkpt lat="46.28068" lon="6.75677">
        <ele>1363.1877441406</ele>
        <time>2013-03-18T15:11:19Z</time>
      </trkpt>
      <trkpt lat="46.28068" lon="6.75676">
        <ele>1363.0075683594</ele>
        <time>2013-03-18T15:11:30Z</time>
      </trkpt>
      <trkpt lat="46.28072" lon="6.75668">
        <ele>1360.7158203125</ele>
        <time>2013-03-18T15:11:36Z</time>
      </trkpt>
      <trkpt lat="46.28072" lon="6.75666">
        <ele>1360.5203857422</ele>
        <time>2013-03-18T15:11:40Z</time>
      </trkpt>
      <trkpt lat="46.28071" lon="6.75665">
        <ele>1360.8038330078</ele>
        <time>2013-03-18T15:11:49Z</time>
      </trkpt>
      <trkpt lat="46.28074" lon="6.75668">
        <ele>1360.0308837891</ele>
        <time>2013-03-18T15:12:01Z</time>
      </trkpt>
      <trkpt lat="46.28076" lon="6.75664">
        <ele>1359.1534423828</ele>
        <time>2013-03-18T15:12:09Z</time>
      </trkpt>
      <trkpt lat="46.28076" lon="6.7566">
        <ele>1358.8162841797</ele>
        <time>2013-03-18T15:12:12Z</time>
      </trkpt>
      <trkpt lat="46.28085" lon="6.75668">
        <ele>1355.8236083984</ele>
        <time>2013-03-18T15:12:16Z</time>
      </trkpt>
      <trkpt lat="46.28091" lon="6.7567">
        <ele>1352.0876464844</ele>
        <time>2013-03-18T15:12:18Z</time>
      </trkpt>
      <trkpt lat="46.2809" lon="6.75666">
        <ele>1352.9602050781</ele>
        <time>2013-03-18T15:12:23Z</time>
      </trkpt>
      <trkpt lat="46.28091" lon="6.75674">
        <ele>1352.4921875</ele>
        <time>2013-03-18T15:12:57Z</time>
      </trkpt>
      <trkpt lat="46.28089" lon="6.75668">
        <ele>1353.4180908203</ele>
        <time>2013-03-18T15:13:38Z</time>
      </trkpt>
      <trkpt lat="46.28097" lon="6.75668">
        <ele>1348.1867675781</ele>
        <time>2013-03-18T15:13:42Z</time>
      </trkpt>
      <trkpt lat="46.28099" lon="6.75674">
        <ele>1347.1766357422</ele>
        <time>2013-03-18T15:13:47Z</time>
      </trkpt>
      <trkpt lat="46.28099" lon="6.75675">
        <ele>1347.5610351562</ele>
        <time>2013-03-18T15:13:51Z</time>
      </trkpt>
      <trkpt lat="46.28103" lon="6.75685">
        <ele>1345.5789794922</ele>
        <time>2013-03-18T15:13:55Z</time>
      </trkpt>
      <trkpt lat="46.28115" lon="6.75691">
        <ele>1339.0915527344</ele>
        <time>2013-03-18T15:14:00Z</time>
      </trkpt>
      <trkpt lat="46.28114" lon="6.75689">
        <ele>1339.0718994141</ele>
        <time>2013-03-18T15:14:07Z</time>
      </trkpt>
      <trkpt lat="46.28113" lon="6.75676">
        <ele>1338.6401367188</ele>
        <time>2013-03-18T15:14:11Z</time>
      </trkpt>
      <trkpt lat="46.28117" lon="6.7565">
        <ele>1334.9167480469</ele>
        <time>2013-03-18T15:14:15Z</time>
      </trkpt>
      <trkpt lat="46.28116" lon="6.75642">
        <ele>1334.7215576172</ele>
        <time>2013-03-18T15:14:18Z</time>
      </trkpt>
      <trkpt lat="46.28115" lon="6.75647">
        <ele>1335.6485595703</ele>
        <time>2013-03-18T15:14:27Z</time>
      </trkpt>
      <trkpt lat="46.28117" lon="6.75646">
        <ele>1334.4239501953</ele>
        <time>2013-03-18T15:14:40Z</time>
      </trkpt>
      <trkpt lat="46.2812" lon="6.75645">
        <ele>1332.8732910156</ele>
        <time>2013-03-18T15:15:01Z</time>
      </trkpt>
      <trkpt lat="46.28121" lon="6.7564">
        <ele>1331.6351318359</ele>
        <time>2013-03-18T15:16:02Z</time>
      </trkpt>
      <trkpt lat="46.28121" lon="6.75642">
        <ele>1331.9979248047</ele>
        <time>2013-03-18T15:16:07Z</time>
      </trkpt>
      <trkpt lat="46.28117" lon="6.75651">
        <ele>1334.7769775391</ele>
        <time>2013-03-18T15:19:15Z</time>
      </trkpt>
      <trkpt lat="46.28117" lon="6.75647">
        <ele>1334.2866210938</ele>
        <time>2013-03-18T15:19:26Z</time>
      </trkpt>
      <trkpt lat="46.28119" lon="6.75646">
        <ele>1333.3851318359</ele>
        <time>2013-03-18T15:19:36Z</time>
      </trkpt>
      <trkpt lat="46.28119" lon="6.75646">
        <ele>1333.3851318359</ele>
        <time>2013-03-18T15:19:36Z</time>
      </trkpt>
      <trkpt lat="46.28123" lon="6.75648">
        <ele>1331.1572265625</ele>
        <time>2013-03-18T15:21:16Z</time>
      </trkpt>
      <trkpt lat="46.28131" lon="6.7566">
        <ele>1328.4749755859</ele>
        <time>2013-03-18T15:21:21Z</time>
      </trkpt>
      <trkpt lat="46.28141" lon="6.75655">
        <ele>1322.7756347656</ele>
        <time>2013-03-18T15:21:25Z</time>
      </trkpt>
      <trkpt lat="46.28158" lon="6.75652">
        <ele>1316.1031494141</ele>
        <time>2013-03-18T15:21:30Z</time>
      </trkpt>
      <trkpt lat="46.28165" lon="6.75644">
        <ele>1312.9426269531</ele>
        <time>2013-03-18T15:21:33Z</time>
      </trkpt>
      <trkpt lat="46.28176" lon="6.75648">
        <ele>1307.9014892578</ele>
        <time>2013-03-18T15:21:36Z</time>
      </trkpt>
      <trkpt lat="46.28179" lon="6.75652">
        <ele>1306.6448974609</ele>
        <time>2013-03-18T15:21:37Z</time>
      </trkpt>
      <trkpt lat="46.28194" lon="6.75671">
        <ele>1300.6333007812</ele>
        <time>2013-03-18T15:21:42Z</time>
      </trkpt>
      <trkpt lat="46.28206" lon="6.75687">
        <ele>1297.6685791016</ele>
        <time>2013-03-18T15:21:47Z</time>
      </trkpt>
      <trkpt lat="46.28215" lon="6.75702">
        <ele>1295.2705078125</ele>
        <time>2013-03-18T15:21:51Z</time>
      </trkpt>
      <trkpt lat="46.28232" lon="6.75719">
        <ele>1289.2509765625</ele>
        <time>2013-03-18T15:21:56Z</time>
      </trkpt>
      <trkpt lat="46.28231" lon="6.75723">
        <ele>1289.7042236328</ele>
        <time>2013-03-18T15:22:00Z</time>
      </trkpt>
      <trkpt lat="46.28229" lon="6.75734">
        <ele>1291.4190673828</ele>
        <time>2013-03-18T15:23:43Z</time>
      </trkpt>
      <trkpt lat="46.28229" lon="6.75743">
        <ele>1291.8857421875</ele>
        <time>2013-03-18T15:23:48Z</time>
      </trkpt>
      <trkpt lat="46.2823" lon="6.75755">
        <ele>1290.4597167969</ele>
        <time>2013-03-18T15:23:52Z</time>
      </trkpt>
      <trkpt lat="46.28231" lon="6.75758">
        <ele>1288.8117675781</ele>
        <time>2013-03-18T15:23:57Z</time>
      </trkpt>
      <trkpt lat="46.28234" lon="6.7576">
        <ele>1286.6832275391</ele>
        <time>2013-03-18T15:24:07Z</time>
      </trkpt>
      <trkpt lat="46.28236" lon="6.75762">
        <ele>1285.3923339844</ele>
        <time>2013-03-18T15:24:19Z</time>
      </trkpt>
      <trkpt lat="46.28237" lon="6.75764">
        <ele>1284.0465087891</ele>
        <time>2013-03-18T15:24:47Z</time>
      </trkpt>
      <trkpt lat="46.28241" lon="6.75765">
        <ele>1281.7393798828</ele>
        <time>2013-03-18T15:24:53Z</time>
      </trkpt>
      <trkpt lat="46.28241" lon="6.75768">
        <ele>1280.7780761719</ele>
        <time>2013-03-18T15:24:59Z</time>
      </trkpt>
      <trkpt lat="46.2824" lon="6.75769">
        <ele>1281.0390625</ele>
        <time>2013-03-18T15:25:06Z</time>
      </trkpt>
      <trkpt lat="46.28239" lon="6.75769">
        <ele>1281.3686523438</ele>
        <time>2013-03-18T15:25:11Z</time>
      </trkpt>
      <trkpt lat="46.28239" lon="6.75762">
        <ele>1283.1264648438</ele>
        <time>2013-03-18T15:25:16Z</time>
      </trkpt>
      <trkpt lat="46.28244" lon="6.75771">
        <ele>1278.2512207031</ele>
        <time>2013-03-18T15:25:21Z</time>
      </trkpt>
      <trkpt lat="46.28248" lon="6.75771">
        <ele>1275.8754882812</ele>
        <time>2013-03-18T15:25:26Z</time>
      </trkpt>
      <trkpt lat="46.28249" lon="6.75769">
        <ele>1276.2873535156</ele>
        <time>2013-03-18T15:25:32Z</time>
      </trkpt>
      <trkpt lat="46.2825" lon="6.75768">
        <ele>1275.8677978516</ele>
        <time>2013-03-18T15:25:33Z</time>
      </trkpt>
      <trkpt lat="46.28253" lon="6.75765">
        <ele>1274.65625</ele>
        <time>2013-03-18T15:25:38Z</time>
      </trkpt>
      <trkpt lat="46.28258" lon="6.75771">
        <ele>1270.2749023438</ele>
        <time>2013-03-18T15:25:43Z</time>
      </trkpt>
      <trkpt lat="46.2827" lon="6.7576">
        <ele>1265.8776855469</ele>
        <time>2013-03-18T15:25:47Z</time>
      </trkpt>
      <trkpt lat="46.28273" lon="6.75757">
        <ele>1264.3420410156</ele>
        <time>2013-03-18T15:25:49Z</time>
      </trkpt>
      <trkpt lat="46.28275" lon="6.75755">
        <ele>1263.6351318359</ele>
        <time>2013-03-18T15:25:51Z</time>
      </trkpt>
      <trkpt lat="46.28275" lon="6.75757">
        <ele>1263.609375</ele>
        <time>2013-03-18T15:25:54Z</time>
      </trkpt>
      <trkpt lat="46.28281" lon="6.7576">
        <ele>1258.8050537109</ele>
        <time>2013-03-18T15:25:59Z</time>
      </trkpt>
      <trkpt lat="46.28286" lon="6.7576">
        <ele>1255.6313476562</ele>
        <time>2013-03-18T15:26:00Z</time>
      </trkpt>
      <trkpt lat="46.28299" lon="6.75744">
        <ele>1251.6201171875</ele>
        <time>2013-03-18T15:26:06Z</time>
      </trkpt>
      <trkpt lat="46.2831" lon="6.7573">
        <ele>1249.7486572266</ele>
        <time>2013-03-18T15:26:10Z</time>
      </trkpt>
      <trkpt lat="46.28313" lon="6.75723">
        <ele>1249.0690917969</ele>
        <time>2013-03-18T15:26:14Z</time>
      </trkpt>
      <trkpt lat="46.28323" lon="6.75726">
        <ele>1239.796875</ele>
        <time>2013-03-18T15:26:21Z</time>
      </trkpt>
      <trkpt lat="46.28332" lon="6.75729">
        <ele>1231.5721435547</ele>
        <time>2013-03-18T15:29:14Z</time>
      </trkpt>
      <trkpt lat="46.28336" lon="6.75729">
        <ele>1229.4796142578</ele>
        <time>2013-03-18T15:29:18Z</time>
      </trkpt>
      <trkpt lat="46.2834" lon="6.75733">
        <ele>1226.9588623047</ele>
        <time>2013-03-18T15:29:26Z</time>
      </trkpt>
      <trkpt lat="46.28337" lon="6.75735">
        <ele>1227.5893554688</ele>
        <time>2013-03-18T15:29:37Z</time>
      </trkpt>
      <trkpt lat="46.28313" lon="6.75729">
        <ele>1247.3110351562</ele>
        <time>2013-03-18T15:30:05Z</time>
      </trkpt>
      <trkpt lat="46.28323" lon="6.75722">
        <ele>1240.6682128906</ele>
        <time>2013-03-18T15:30:10Z</time>
      </trkpt>
      <trkpt lat="46.28342" lon="6.75736">
        <ele>1225.5061035156</ele>
        <time>2013-03-18T15:30:14Z</time>
      </trkpt>
      <trkpt lat="46.28362" lon="6.7574">
        <ele>1216.8352050781</ele>
        <time>2013-03-18T15:30:17Z</time>
      </trkpt>
      <trkpt lat="46.28375" lon="6.75749">
        <ele>1207.1608886719</ele>
        <time>2013-03-18T15:30:20Z</time>
      </trkpt>
      <trkpt lat="46.28394" lon="6.75735">
        <ele>1196.5463867188</ele>
        <time>2013-03-18T15:30:23Z</time>
      </trkpt>
      <trkpt lat="46.28398" lon="6.75729">
        <ele>1195.337890625</ele>
        <time>2013-03-18T15:30:24Z</time>
      </trkpt>
      <trkpt lat="46.28405" lon="6.75717">
        <ele>1193.4012451172</ele>
        <time>2013-03-18T15:30:26Z</time>
      </trkpt>
      <trkpt lat="46.28443" lon="6.75705">
        <ele>1180.0321044922</ele>
        <time>2013-03-18T15:30:30Z</time>
      </trkpt>
      <trkpt lat="46.2846" lon="6.75703">
        <ele>1178.7436523438</ele>
        <time>2013-03-18T15:30:32Z</time>
      </trkpt>
      <trkpt lat="46.28476" lon="6.75681">
        <ele>1176.0493164062</ele>
        <time>2013-03-18T15:30:36Z</time>
      </trkpt>
      <trkpt lat="46.28487" lon="6.75673">
        <ele>1172.5424804688</ele>
        <time>2013-03-18T15:30:40Z</time>
      </trkpt>
      <trkpt lat="46.28503" lon="6.75674">
        <ele>1169.4689941406</ele>
        <time>2013-03-18T15:30:46Z</time>
      </trkpt>
      <trkpt lat="46.28508" lon="6.75674">
        <ele>1169.5120849609</ele>
        <time>2013-03-18T15:30:52Z</time>
      </trkpt>
      <trkpt lat="46.2851" lon="6.75675">
        <ele>1169.7637939453</ele>
        <time>2013-03-18T15:31:04Z</time>
      </trkpt>
      <trkpt lat="46.28511" lon="6.75676">
        <ele>1170.0296630859</ele>
        <time>2013-03-18T15:31:09Z</time>
      </trkpt>
      <trkpt lat="46.28506" lon="6.75677">
        <ele>1170.0897216797</ele>
        <time>2013-03-18T15:31:17Z</time>
      </trkpt>
      <trkpt lat="46.28505" lon="6.75677">
        <ele>1170.0606689453</ele>
        <time>2013-03-18T15:31:22Z</time>
      </trkpt>
      <trkpt lat="46.2851" lon="6.75675">
        <ele>1169.7956542969</ele>
        <time>2013-03-18T15:31:29Z</time>
      </trkpt>
      <trkpt lat="46.2851" lon="6.75674">
        <ele>1169.5395507812</ele>
        <time>2013-03-18T15:31:33Z</time>
      </trkpt>
    </trkseg>
  </trk>
</gpx>